[[{"header":{"parameterUnit":"m.s-1","parameterCategory":1,"la1":30.6,"la2":28.766,"lo1":-90.7593,"lo2":-88.6598,"dy":0.0162,"dx":0.0183,"nx":116,"ny":114,"refTime":"2024-02-25T06:00:00:Z","depth":0,"parameterNumber":2,"parameterNumberName":"U-component_of_WINDS"},"data":[0.0,0.0,0.0,0.0,0.0,0.0,0.0,0.0,0.0,0.0,0.0,0.0,0.0,0.0,0.0,0.0,0.0,0.0,0.0,0.0,0.0,0.0,0.0,0.0,0.0,0.0,0.0,0.0,0.0,0.0,0.0,0.0,0.0,0.0,0.0,0.0,0.0,0.0,0.0,0.0,0.0,0.0,0.0,0.0,0.0,0.0,0.0,0.0,0.0,0.0,0.0,0.0,0.0,0.0,0.0,0.0,0.0,0.0,0.0,0.0,0.0,0.0,0.0,0.0,0.0,0.0,0.0,0.0,0.0,0.0,0.0,0.0,0.0,0.0,0.0,0.0,0.0,0.0,0.0,0.0,0.0,0.0,0.0,0.0,0.0,0.0,0.0,0.0,0.0,0.0,0.0,0.0,0.0,0.0,0.0,0.0,0.0,0.0,0.0,0.0,0.0,0.0,0.0,0.0,0.0,0.0,0.0,0.0,0.0,0.0,0.0,0.0,0.0,0.0,0.0,0.0,0.0,0.0,0.0,0.0,0.0,0.0,0.0,0.0,0.0,0.0,0.0,0.0,0.0,0.0,0.0,0.0,0.0,0.0,0.0,0.0,0.0,0.0,0.0,0.0,0.0,0.0,0.0,0.0,0.0,0.0,0.0,0.0,0.0,0.0,0.0,0.0,0.0,0.0,0.0,0.0,0.0,0.0,0.0,0.0,0.0,0.0,0.0,0.0,0.0,0.0,0.0,0.0,0.0,0.0,0.0,0.0,0.0,0.0,0.0,0.0,0.0,0.0,0.0,0.0,0.0,0.0,0.0,0.0,0.0,0.0,0.0,0.0,0.0,0.0,0.0,0.0,0.0,0.0,0.0,0.0,0.0,0.0,0.0,0.0,0.0,0.0,0.0,0.0,0.0,0.0,0.0,0.0,0.0,0.0,0.0,0.0,0.0,0.0,0.0,0.0,0.0,0.0,0.0,0.0,0.0,0.0,0.0,0.0,0.0,0.0,0.0,0.0,0.0,0.0,0.0,0.0,0.0,0.0,0.0,0.0,0.0,0.0,0.0,0.0,0.0,0.0,0.0,0.0,0.0,0.0,0.0,0.0,0.0,0.0,0.0,0.0,0.0,0.0,0.0,0.0,0.0,0.0,0.0,0.0,0.0,0.0,0.0,0.0,0.0,0.0,0.0,0.0,0.0,0.0,0.0,0.0,0.0,0.0,0.0,0.0,0.0,0.0,0.0,0.0,0.0,0.0,0.0,0.0,0.0,0.0,0.0,0.0,0.0,0.0,0.0,0.0,0.0,0.0,0.0,0.0,0.0,0.0,0.0,0.0,0.0,0.0,0.0,0.0,0.0,0.0,0.0,0.0,0.0,0.0,0.0,0.0,0.0,0.0,0.0,0.0,0.0,0.0,0.0,0.0,0.0,0.0,0.0,0.0,0.0,0.0,0.0,0.0,0.0,0.0,0.0,0.0,0.0,0.0,0.0,0.0,0.0,0.0,0.0,0.0,0.0,0.0,0.0,0.0,0.0,0.0,0.0,0.0,0.0,0.0,0.0,0.0,0.0,0.0,0.0,0.0,0.0,0.0,0.0,0.0,0.0,0.0,0.0,0.0,0.0,0.0,0.0,0.0,0.0,0.0,0.0,0.0,0.0,0.0,0.0,0.0,0.0,0.0,0.0,0.0,0.0,0.0,0.0,0.0,0.0,0.0,0.0,0.0,0.0,0.0,0.0,0.0,0.0,0.0,0.0,0.0,0.0,0.0,0.0,0.0,0.0,0.0,0.0,0.0,0.0,0.0,0.0,0.0,0.0,0.0,0.0,0.0,0.0,0.0,0.0,0.0,0.0,0.0,0.0,0.0,0.0,0.0,0.0,0.0,0.0,0.0,0.0,0.0,0.0,0.0,0.0,0.0,0.0,0.0,0.0,0.0,0.0,0.0,0.0,0.0,0.0,0.0,0.0,0.0,0.0,0.0,0.0,0.0,0.0,0.0,0.0,0.0,0.0,0.0,0.0,0.0,0.0,0.0,0.0,0.0,0.0,0.0,0.0,0.0,0.0,0.0,0.0,0.0,0.0,0.0,0.0,0.0,0.0,0.0,0.0,0.0,0.0,0.0,0.0,0.0,0.0,0.0,0.0,0.0,0.0,0.0,0.0,0.0,0.0,0.0,0.0,0.0,0.0,0.0,0.0,0.0,0.0,0.0,0.0,0.0,0.0,0.0,0.0,0.0,0.0,0.0,0.0,0.0,0.0,0.0,0.0,0.0,0.0,0.0,0.0,0.0,0.0,0.0,0.0,0.0,0.0,0.0,0.0,0.0,0.0,0.0,0.0,0.0,0.0,0.0,0.0,0.0,0.0,0.0,0.0,0.0,0.0,0.0,0.0,0.0,0.0,0.0,0.0,0.0,0.0,0.0,0.0,0.0,0.0,0.0,0.0,0.0,0.0,0.0,0.0,0.0,0.0,0.0,0.0,0.0,0.0,0.0,0.0,0.0,0.0,0.0,0.0,0.0,0.0,0.0,0.0,0.0,0.0,0.0,0.0,0.0,0.0,0.0,0.0,0.0,0.0,0.0,0.0,0.0,0.0,0.0,0.0,0.0,0.0,0.0,0.0,0.0,0.0,0.0,0.0,0.0,0.0,0.0,0.0,0.0,0.0,0.0,0.0,0.0,0.0,0.0,0.0,0.0,0.0,0.0,0.0,0.0,0.0,0.0,0.0,0.0,0.0,0.0,0.0,0.0,0.0,0.0,0.0,0.0,0.0,0.0,0.0,0.0,0.0,0.0,0.0,0.0,0.0,0.0,0.0,0.0,0.0,0.0,0.0,0.0,0.0,0.0,0.0,0.0,0.0,0.0,0.0,0.0,0.0,0.0,0.0,0.0,0.0,0.0,0.0,0.0,0.0,0.0,0.0,0.0,0.0,0.0,0.0,0.0,0.0,0.0,0.0,0.0,0.0,0.0,0.0,0.0,0.0,0.0,0.0,0.0,0.0,0.0,0.0,0.0,0.0,0.0,0.0,0.0,0.0,0.0,0.0,0.0,0.0,0.0,0.0,0.0,0.0,0.0,0.0,0.0,0.0,0.0,0.0,0.0,0.0,0.0,0.0,0.0,0.0,0.0,0.0,0.0,0.0,0.0,0.0,0.0,0.0,0.0,0.0,0.0,0.0,0.0,0.0,0.0,0.0,0.0,0.0,0.0,0.0,0.0,0.0,0.0,0.0,0.0,0.0,0.0,0.0,0.0,0.0,0.0,0.0,0.0,0.0,0.0,0.0,0.0,0.0,0.0,0.0,0.0,0.0,0.0,0.0,0.0,0.0,0.0,0.0,0.0,0.0,0.0,0.0,0.0,0.0,0.0,0.0,0.0,0.0,0.0,0.0,0.0,0.0,0.0,0.0,0.0,0.0,0.0,0.0,0.0,0.0,0.0,0.0,0.0,0.0,0.0,0.0,0.0,0.0,0.0,0.0,0.0,0.0,0.0,0.0,0.0,0.0,0.0,0.0,0.0,0.0,0.0,0.0,0.0,0.0,0.0,0.0,0.0,0.0,0.0,0.0,0.0,0.0,0.0,0.0,0.0,0.0,0.0,0.0,0.0,0.0,0.0,0.0,0.0,0.0,0.0,0.0,0.0,0.0,0.0,0.0,0.0,0.0,0.0,0.0,0.0,0.0,0.0,0.0,0.0,0.0,0.0,0.0,0.0,0.0,0.0,0.0,0.0,0.0,0.0,0.0,0.0,0.0,0.0,0.0,0.0,0.0,0.0,0.0,0.0,0.0,0.0,0.0,0.0,0.0,0.0,0.0,0.0,0.0,0.0,0.0,0.0,0.0,0.0,0.0,0.0,0.0,0.0,0.0,0.0,0.0,0.0,0.0,0.0,0.0,0.0,0.0,0.0,0.0,0.0,0.0,0.0,0.0,0.0,0.0,0.0,0.0,0.0,0.0,0.0,0.0,0.0,0.0,0.0,0.0,0.0,0.0,0.0,0.0,0.0,0.0,0.0,0.0,0.0,0.0,0.0,0.0,0.0,0.0,0.0,0.0,0.0,0.0,0.0,0.0,0.0,0.0,0.0,0.0,0.0,0.0,0.0,0.0,0.0,0.0,0.0,0.0,0.0,0.0,0.0,0.0,0.0,0.0,0.0,0.0,0.0,0.0,0.0,0.0,0.0,0.0,0.0,0.0,0.0,0.0,0.0,0.0,0.0,0.0,0.0,0.0,0.0,0.0,0.0,0.0,0.0,0.0,0.0,0.0,0.0,0.0,0.0,0.0,0.0,0.0,0.0,0.0,0.0,0.0,0.0,0.0,0.0,0.0,0.0,0.0,0.0,0.0,0.0,0.0,0.0,0.0,0.0,0.0,0.0,0.0,0.0,0.0,0.0,0.0,0.0,0.0,0.0,0.0,0.0,0.0,0.0,0.0,0.0,0.0,0.0,0.0,0.0,0.0,0.0,0.0,0.0,0.0,0.0,0.0,0.0,0.0,0.0,0.0,0.0,0.0,0.0,0.0,0.0,0.0,0.0,0.0,0.0,0.0,0.0,0.0,0.0,0.0,0.0,0.0,0.0,0.0,0.0,0.0,0.0,0.0,0.0,0.0,0.0,0.0,0.0,0.0,0.0,0.0,0.0,0.0,0.0,0.0,0.0,0.0,0.0,0.0,0.0,0.0,0.0,0.0,0.0,0.0,0.0,0.0,0.0,0.0,0.0,0.0,0.0,0.0,0.0,0.0,0.0,0.0,0.0,0.0,0.0,0.0,0.0,0.0,0.0,0.0,0.0,0.0,0.0,0.0,0.0,0.0,0.0,0.0,0.0,0.0,0.0,0.0,0.0,0.0,0.0,0.0,0.0,0.0,0.0,0.0,0.0,0.0,0.0,0.0,0.0,0.0,0.0,0.0,0.0,0.0,0.0,0.0,0.0,0.0,0.0,0.0,0.0,0.0,0.0,0.0,0.0,0.0,0.0,0.0,0.0,0.0,0.0,0.0,0.0,0.0,0.0,0.0,0.0,0.0,0.0,0.0,0.0,0.0,0.0,0.0,0.0,0.0,0.0,0.0,0.0,0.0,0.0,0.0,0.0,0.0,0.0,0.0,0.0,0.0,0.0,0.0,0.0,0.0,0.0,0.0,0.0,0.0,0.0,0.0,0.0,0.0,0.0,0.0,0.0,0.0,0.0,0.0,0.0,0.0,0.0,0.0,0.0,0.0,0.0,0.0,0.0,0.0,0.0,0.0,0.0,0.0,0.0,0.0,0.0,0.0,0.0,0.0,0.0,0.0,0.0,0.0,0.0,0.0,0.0,0.0,0.0,0.0,0.0,0.0,0.0,0.0,0.0,0.0,0.0,0.0,0.0,0.0,0.0,0.0,0.0,0.0,0.0,0.0,0.0,0.0,0.0,0.0,0.0,0.0,0.0,0.0,0.0,0.0,0.0,0.0,0.0,0.0,0.0,0.0,0.0,0.0,0.0,0.0,0.0,0.0,0.0,0.0,0.0,0.0,0.0,0.0,0.0,0.0,0.0,0.0,0.0,0.0,0.0,0.0,0.0,0.0,0.0,0.0,0.0,0.0,0.0,0.0,0.0,0.0,0.0,0.0,0.0,0.0,0.0,0.0,0.0,0.0,0.0,0.0,0.0,0.0,0.0,0.0,0.0,0.0,0.0,0.0,0.0,0.0,0.0,0.0,0.0,0.0,0.0,0.0,0.0,0.0,0.0,0.0,0.0,0.0,0.0,0.0,0.0,0.0,0.0,0.0,0.0,0.0,0.0,0.0,0.0,0.0,0.0,0.0,0.0,0.0,0.0,0.0,0.0,0.0,0.0,0.0,0.0,0.0,0.0,0.0,0.0,0.0,0.0,0.0,0.0,0.0,0.0,0.0,0.0,0.0,0.0,0.0,0.0,0.0,0.0,0.0,0.0,0.0,0.0,0.0,0.0,0.0,0.0,0.0,0.0,0.0,0.0,0.0,0.0,0.0,0.0,0.0,0.0,0.0,0.0,0.0,0.0,0.0,0.0,0.0,0.0,0.0,0.0,0.0,0.0,0.0,0.0,0.0,0.0,0.0,0.0,0.0,0.0,0.0,0.0,0.0,0.0,-4.1643,0.0,0.0,0.0,0.0,0.0,0.0,0.0,0.0,0.0,0.0,0.0,0.0,0.0,0.0,0.0,0.0,0.0,0.0,0.0,0.0,0.0,0.0,0.0,0.0,0.0,0.0,0.0,-3.7084,-3.77,-3.8584,-3.9053,-3.9477,-3.99,-3.9938,-3.9938,-3.9938,-3.9084,-3.9277,-4.0508,-4.0931,-4.2162,-4.4162,-4.5017,-4.4982,-4.4199,0.0,0.0,0.0,0.0,0.0,0.0,0.0,0.0,0.0,0.0,0.0,0.0,0.0,0.0,0.0,0.0,0.0,0.0,0.0,0.0,0.0,0.0,0.0,0.0,0.0,0.0,0.0,0.0,0.0,0.0,0.0,0.0,0.0,0.0,0.0,0.0,0.0,0.0,0.0,0.0,0.0,0.0,0.0,0.0,0.0,0.0,0.0,0.0,0.0,0.0,0.0,0.0,0.0,0.0,0.0,0.0,0.0,0.0,0.0,0.0,0.0,0.0,0.0,0.0,0.0,0.0,0.0,0.0,0.0,0.0,0.0,-4.2941,0.0,0.0,0.0,0.0,0.0,0.0,0.0,0.0,0.0,0.0,0.0,0.0,0.0,0.0,0.0,0.0,0.0,0.0,0.0,0.0,0.0,0.0,0.0,-3.6962,-3.743,-3.8161,-3.8354,-3.8738,-3.9477,-3.9515,-3.9438,-3.9323,-3.9438,-3.9438,-3.9284,-3.8892,-3.9777,-4.2038,-4.2769,-4.5201,-4.924,-5.0818,-5.0173,0.0,0.0,0.0,0.0,0.0,0.0,0.0,0.0,0.0,0.0,0.0,0.0,0.0,0.0,0.0,0.0,0.0,0.0,0.0,0.0,0.0,0.0,0.0,0.0,0.0,0.0,0.0,0.0,0.0,0.0,0.0,0.0,0.0,0.0,0.0,0.0,0.0,0.0,0.0,0.0,0.0,0.0,0.0,0.0,0.0,0.0,0.0,0.0,0.0,0.0,0.0,0.0,0.0,0.0,0.0,0.0,0.0,0.0,0.0,0.0,0.0,0.0,0.0,0.0,0.0,-5.1977,-5.2123,-5.2286,-5.2864,-5.3032,-5.2667,-4.8518,-4.6261,-4.5351,-4.285,0.0,0.0,0.0,0.0,0.0,0.0,0.0,0.0,0.0,0.0,0.0,0.0,0.0,0.0,0.0,0.0,0.0,0.0,0.0,0.0,0.0,-3.8046,-3.9015,-3.913,-3.9785,-4.0208,-4.0323,-4.0323,-4.0015,-3.9323,-3.9977,-4.0015,-3.9323,-4.0623,-4.1816,-4.2931,-4.6586,-5.0202,-5.3664,-5.4587,-5.5566,-5.6356,0.0,0.0,0.0,0.0,0.0,0.0,0.0,0.0,0.0,0.0,0.0,0.0,0.0,0.0,0.0,0.0,0.0,0.0,0.0,0.0,0.0,0.0,0.0,0.0,0.0,0.0,0.0,0.0,0.0,0.0,0.0,0.0,0.0,0.0,0.0,0.0,0.0,0.0,0.0,0.0,0.0,0.0,0.0,0.0,-3.9717,-4.0508,0.0,0.0,0.0,0.0,0.0,0.0,0.0,0.0,0.0,0.0,0.0,0.0,0.0,-5.0068,-5.236,-5.3188,-5.4399,-5.6014,-5.6712,-5.7409,-5.812,-5.8846,-5.8761,-5.7956,-5.6559,0.0,-4.943,-4.6844,0.0,0.0,0.0,0.0,0.0,0.0,0.0,0.0,0.0,0.0,0.0,0.0,0.0,0.0,0.0,0.0,0.0,0.0,0.0,0.0,0.0,-4.0662,-4.1816,-4.2747,-4.317,-4.317,-4.267,-4.22,-4.1362,-4.0015,-3.99,-3.9861,-3.9977,-4.1162,-4.3624,-4.7355,-5.1125,-5.4434,-5.7357,-5.9127,-6.0592,-6.1658,-5.979,-5.6851,-5.3204,-5.2094,0.0,0.0,0.0,0.0,0.0,0.0,0.0,0.0,0.0,0.0,0.0,0.0,0.0,0.0,0.0,0.0,0.0,0.0,0.0,0.0,0.0,0.0,0.0,0.0,0.0,0.0,0.0,0.0,0.0,0.0,0.0,0.0,0.0,0.0,0.0,0.0,0.0,0.0,0.0,-3.935,-4.0891,-4.1699,-4.1846,-4.1789,0.0,0.0,0.0,0.0,0.0,0.0,0.0,0.0,0.0,-5.0488,-5.3004,-5.506,-5.6542,-5.7813,-5.9024,-6.0199,-6.0529,-6.0896,-6.1239,-6.1544,-6.1457,-6.103,-6.0126,-5.8276,-5.556,-5.1144,-4.8172,-4.623,0.0,0.0,0.0,0.0,-4.0364,-4.0851,0.0,0.0,0.0,0.0,0.0,0.0,0.0,0.0,0.0,0.0,0.0,0.0,-4.22,-4.3816,-4.5316,-4.6787,-4.7086,-4.6663,-4.5355,-4.4316,-4.2777,-4.0593,-3.9938,-3.99,-4.0477,-4.2624,-4.6432,-5.1982,-5.5357,-5.8434,-6.1204,-6.3512,-6.5141,-6.614,-6.614,-6.2951,-5.7426,-5.6218,-5.3821,0.0,0.0,0.0,0.0,0.0,0.0,0.0,0.0,0.0,0.0,0.0,0.0,0.0,0.0,0.0,0.0,0.0,0.0,0.0,0.0,0.0,0.0,0.0,0.0,0.0,0.0,0.0,0.0,0.0,0.0,0.0,0.0,0.0,0.0,0.0,0.0,0.0,0.0,-4.0875,-4.2379,-4.3424,-4.4452,-4.4966,0.0,0.0,0.0,0.0,0.0,0.0,-4.9481,-5.1536,-5.3298,-5.4671,-5.7446,-5.9501,-6.0725,-6.1961,-6.3062,-6.4053,-6.4273,-6.4383,-6.4358,-6.4317,-6.4181,-6.3925,-6.3017,-6.1956,-6.0432,-5.4994,-5.1806,-5.011,-4.724,-4.5687,-4.491,-4.3918,-4.399,-4.4626,0.0,0.0,0.0,0.0,0.0,0.0,0.0,0.0,0.0,0.0,0.0,-4.2277,-4.397,-4.7124,-4.9433,-5.0366,-5.1125,-5.0538,-4.8086,-4.6394,-4.3978,-4.0669,-4.0477,-4.0477,-4.0516,-4.6086,-5.1125,-5.5434,-5.8858,-6.2281,-6.5628,-6.7359,-6.9013,-7.0591,-7.0591,-6.7639,-6.2553,-6.0161,-5.7651,-5.5001,0.0,0.0,0.0,0.0,0.0,0.0,0.0,0.0,0.0,0.0,0.0,0.0,0.0,0.0,0.0,0.0,0.0,0.0,0.0,0.0,0.0,0.0,0.0,0.0,0.0,0.0,0.0,0.0,0.0,0.0,0.0,0.0,0.0,0.0,0.0,0.0,0.0,0.0,0.0,-4.6672,-4.8306,0.0,0.0,0.0,0.0,-4.9334,-5.1463,-5.2858,-5.2947,-5.5941,-5.8033,-5.8854,-6.0529,-6.2585,-6.4971,-6.5081,-6.5888,-6.7467,-6.8238,-6.8605,-6.8605,-6.8577,-6.8164,-6.7393,-6.6586,-6.4872,-6.2315,-5.7958,-5.5259,-5.358,-5.086,-4.9293,-4.8424,-4.7334,-4.6958,-4.7115,0.0,0.0,0.0,0.0,0.0,0.0,0.0,0.0,-3.7392,-3.9354,-4.1816,-4.4893,-4.8779,-5.1279,-5.3472,-5.5434,-5.4818,-5.351,-5.151,-4.8779,-4.5932,-4.3085,-4.2431,-4.3431,-4.6163,-5.0471,-5.4741,-5.8973,-6.2397,-6.5551,-6.8398,-7.0052,-7.1745,-7.3322,-7.2822,-7.1525,-6.9561,-6.5897,-6.2257,-5.8719,-5.5874,-5.2528,0.0,0.0,0.0,0.0,0.0,0.0,0.0,0.0,0.0,0.0,0.0,0.0,0.0,0.0,0.0,0.0,0.0,0.0,0.0,0.0,0.0,0.0,0.0,0.0,0.0,0.0,0.0,0.0,0.0,0.0,0.0,0.0,0.0,0.0,0.0,0.0,0.0,-4.9994,-5.1683,0.0,-5.2968,-5.3995,-5.4766,-5.495,-5.6271,-5.7496,-5.8547,-6.0713,-6.2291,-6.3074,-6.5191,-6.6733,-6.7614,-6.8128,-6.8678,-6.9229,-6.9522,-6.9412,-6.8898,-6.8898,-6.8458,-6.765,-6.6843,-6.5705,-6.4211,-6.1605,-5.8932,-5.6264,-5.4136,-5.2831,-5.2031,-5.1098,-5.1076,-5.1606,0.0,0.0,0.0,0.0,0.0,0.0,0.0,0.0,-3.8507,-4.1054,-4.4085,-4.774,-5.2279,-5.5088,-5.7434,-5.9396,-5.8242,-5.6472,-5.4203,-5.0587,-4.7394,-4.4855,-4.4778,-4.6624,-5.0587,-5.4318,-5.8127,-6.2089,-6.5513,-6.8321,-7.0591,-7.2552,-7.4245,-7.5553,-7.5284,-7.5053,-7.4591,-7.1437,-6.7321,-6.2666,-5.9869,-5.6522,-5.2933,0.0,0.0,0.0,0.0,0.0,0.0,0.0,0.0,0.0,0.0,0.0,0.0,0.0,0.0,0.0,0.0,0.0,0.0,0.0,0.0,0.0,0.0,0.0,0.0,0.0,0.0,0.0,0.0,0.0,0.0,0.0,0.0,0.0,0.0,0.0,-5.1279,-5.3739,-5.5904,-5.7446,-5.796,-5.9024,-5.9905,-6.0419,-6.1227,-6.2144,-6.3209,-6.4824,-6.5962,-6.6512,-6.8348,-6.9449,-6.9706,-7.0257,-7.0624,-7.0917,-7.0624,-7.022,-6.9706,-6.9155,-6.8605,-6.8054,-6.7247,-6.6292,-6.5228,-6.4127,-6.1838,-5.8882,-5.6862,-5.5779,-5.5218,-5.4032,-5.3995,-5.4456,0.0,0.0,0.0,0.0,0.0,0.0,0.0,-3.8161,-4.0246,-4.2854,-4.6817,-5.0779,-5.428,-5.8357,-6.1204,-6.2101,-6.132,-5.9358,-5.5972,-5.1818,-4.8355,-4.5825,-4.7317,-4.9817,-5.328,-5.7473,-6.132,-6.4743,-6.8129,-7.0667,-7.236,-7.4861,-7.6515,-7.74,-7.8169,-7.8092,-7.7323,-7.6438,-7.2668,-6.709,-6.3678,-6.0742,-5.8088,0.0,0.0,0.0,0.0,0.0,0.0,0.0,0.0,0.0,0.0,0.0,0.0,0.0,0.0,0.0,0.0,0.0,0.0,0.0,0.0,0.0,0.0,0.0,0.0,0.0,0.0,0.0,0.0,0.0,0.0,0.0,0.0,0.0,-4.9757,-5.2527,-5.5464,-5.7886,-6.1006,-6.2952,-6.2952,-6.4457,-6.5411,-6.5411,-6.6145,-6.6623,-6.6623,-6.8128,-6.8972,-6.8972,-6.9743,-7.055,-7.1329,-7.1329,-7.1725,-7.2459,-7.1688,-7.1256,-7.1146,-6.9633,-6.8898,-6.8825,-6.8017,-6.6769,-6.5301,-6.5264,-6.3833,-6.1374,-5.8988,-5.807,-5.785,-5.6099,-5.5468,-5.5446,0.0,0.0,0.0,0.0,0.0,0.0,0.0,-3.8161,-4.0669,-4.444,-4.8095,-5.2318,-5.755,-6.0281,-6.232,-6.3782,-6.2012,-5.9627,-5.6819,-5.3231,-5.0356,-4.8432,-4.9971,0.0,-5.6819,-6.0435,-6.4243,-6.8282,-7.0475,-7.2668,-7.4976,-7.6322,-7.7707,-7.9092,-7.8669,-7.8707,-7.9015,-7.7553,-7.563,-7.3129,-6.8513,-6.4782,-6.1538,0.0,0.0,0.0,0.0,0.0,0.0,0.0,0.0,0.0,0.0,0.0,0.0,0.0,0.0,0.0,0.0,0.0,0.0,0.0,0.0,0.0,0.0,0.0,0.0,0.0,0.0,0.0,0.0,0.0,0.0,0.0,-4.9407,-5.2417,-5.3004,-5.6345,-5.9648,-6.2108,-6.4237,-6.5705,-6.6292,-6.7283,-6.7907,-6.7907,-6.8641,-6.9119,-6.9119,-7.0073,-7.066,-7.066,-7.1431,-7.1945,-7.2165,-7.2165,-7.1982,-7.1651,-7.1403,-7.0697,-6.9559,-6.9119,-6.8568,-6.7981,-6.7173,-6.6256,-6.5264,-6.4677,-6.3319,-6.1484,-6.0236,-5.9391,-5.8744,-5.7657,-5.729,-5.7217,0.0,0.0,0.0,0.0,0.0,0.0,0.0,-3.87,-4.1208,-4.5094,-4.9202,-5.3472,-5.7973,-6.0935,-6.2858,-6.3512,-6.1858,-5.955,-5.6665,-5.3577,0.0,0.0,0.0,-5.6731,-6.0319,-6.4051,-6.7359,-7.0206,-7.2591,-7.4553,-7.6015,-7.7592,-7.8861,-7.9785,-7.9631,-7.9862,-8.0246,-7.8938,-7.8054,-7.7246,-7.3206,-6.9321,-6.5705,-6.3012,-6.05,-5.8054,-5.5709,-5.3612,-5.1659,-5.0008,0.0,0.0,0.0,0.0,0.0,0.0,0.0,0.0,0.0,0.0,0.0,0.0,0.0,0.0,0.0,0.0,0.0,0.0,0.0,0.0,0.0,0.0,0.0,0.0,-5.3371,-5.6859,-5.8731,-6.097,-6.3503,-6.6256,-6.8017,-6.9339,-7.0146,-7.0954,-7.1284,-7.0954,-7.1321,-7.1468,-7.1101,-7.1541,-7.1798,-7.1798,-7.2275,-7.2496,-7.2496,-7.2165,-7.1762,-7.1293,-7.0624,-6.9816,-6.8898,-6.8201,-6.765,-6.7136,-6.6366,-6.5558,-6.4751,-6.4273,-6.3099,0.0,0.0,0.0,0.0,0.0,-5.7997,-5.7923,0.0,0.0,0.0,0.0,0.0,0.0,0.0,-3.92,-4.1593,-4.5017,-4.974,-5.3818,-5.656,-6.0358,-6.2435,-6.1743,-6.0858,-5.9011,-5.578,0.0,0.0,-5.4972,-5.828,-6.1281,-6.3808,-6.7898,-7.0475,-7.1475,-7.4514,-7.6169,-7.6476,-7.8746,-7.9862,-7.9977,-8.0746,-8.1093,-8.1054,-8.0285,-7.99,-7.9592,-7.7361,-7.3937,-7.0052,-6.8244,-6.5551,-6.2678,-6.1589,-5.9165,-5.6165,-5.4357,0.0,0.0,0.0,0.0,0.0,0.0,0.0,0.0,0.0,0.0,0.0,0.0,0.0,0.0,0.0,0.0,0.0,0.0,0.0,0.0,0.0,0.0,0.0,0.0,-5.7886,-6.2144,-6.5521,-6.6072,-6.7173,-7.0036,-7.1798,-7.3046,-7.378,-7.4478,-7.4588,-7.3744,-7.3707,-7.334,-7.2532,0.0,0.0,0.0,0.0,-7.2459,-7.2386,-7.1688,-7.1183,-7.0999,-6.9596,-6.8862,-6.8715,-6.7173,-6.6512,-6.6439,-6.5558,-6.4751,-6.409,-6.3906,-6.2842,-6.1263,-6.0529,-5.9795,-5.8964,-5.8253,-5.7997,-5.7997,0.0,0.0,0.0,0.0,0.0,0.0,0.0,-3.8007,-4.0746,-4.4124,-4.7817,-5.1625,-5.5511,-5.7934,-5.9204,-5.905,-5.8242,-5.6868,0.0,0.0,-5.6011,-5.8434,-6.1781,-6.482,-6.7346,-7.0244,-7.2783,-7.5014,-7.5668,-7.7053,-7.9092,-7.9592,-8.0169,-8.0862,-8.1016,-8.1093,-8.1093,-8.0939,-8.0439,-7.9746,-7.9246,-7.6938,-7.3476,-7.1091,-6.8936,-6.6898,-6.4666,-6.2551,-6.0523,-5.8127,-5.5972,-5.3886,-5.1557,0.0,0.0,0.0,0.0,0.0,0.0,0.0,0.0,0.0,0.0,0.0,0.0,0.0,0.0,0.0,0.0,0.0,0.0,0.0,0.0,-5.735,-6.1569,-6.5705,-6.9596,-7.0697,-7.1358,-7.1945,-7.345,-7.4515,-7.4661,-7.4808,-7.4588,-7.3744,-7.3707,-7.334,-7.2532,-7.2496,-7.2496,-7.2496,-7.2496,-7.2202,-7.1541,-7.1366,-7.0632,-6.9376,0.0,0.0,-6.7907,-6.6953,-6.6512,-6.6402,-6.4971,-6.4237,-6.398,-6.2622,-6.1117,-5.9625,-5.9478,-5.8951,-5.8217,-5.807,-5.7997,-5.7997,0.0,0.0,0.0,0.0,0.0,0.0,0.0,-3.7661,-4.02,-4.2739,-4.6394,-4.9702,-5.2279,-5.4472,-5.5588,-5.5154,-5.4703,-5.4626,0.0,-5.6665,-5.8934,-6.1935,-6.532,-6.8359,-7.0898,-7.3014,-7.4938,-7.663,-7.7476,-7.8554,-7.9823,-8.0246,-8.0669,-8.1093,-8.1093,-8.1093,-8.1093,-8.1093,-8.0862,-8.04,-7.9977,-7.8515,-7.6361,-7.4245,-7.186,-6.9436,-6.7744,-6.5782,-6.3601,-6.105,-5.8992,-5.7001,-5.4506,-5.2226,-4.9964,0.0,0.0,0.0,0.0,0.0,0.0,0.0,0.0,0.0,0.0,0.0,0.0,0.0,0.0,-4.6177,-4.904,0.0,-5.6455,-6.0933,-6.4383,-6.7614,-7.0881,-7.2349,-7.3413,-7.4221,-7.5028,-7.5506,-7.5506,-7.5506,-7.4992,-7.378,-7.3707,-7.334,-7.2532,-7.2496,-7.2496,-7.2496,-7.2496,-7.2129,-7.1293,-7.0917,-7.011,-6.8898,-6.8495,-6.7871,-6.7063,-6.6256,-6.5668,-6.5228,-6.398,-6.3209,-6.2732,-6.108,-5.9942,-5.9148,-5.8767,-5.8364,-5.7997,-5.7997,-5.7997,-5.7997,0.0,0.0,0.0,0.0,0.0,0.0,0.0,-3.7007,-3.9161,-4.0854,-4.447,-4.7278,-4.8317,-5.0548,-5.1779,-5.1192,-5.1462,0.0,0.0,-5.8396,-6.1589,-6.5166,-6.8629,-7.1552,-7.3937,-7.563,-7.6899,-7.7784,-7.9131,-7.9977,-8.0285,-8.1016,-8.14,-8.1593,-8.1593,-8.1593,-8.1554,-8.14,-8.1323,-8.1246,-8.04,-7.9438,-7.8323,-7.6823,-7.413,-7.1014,-6.986,-6.7936,-6.5513,-6.2947,-6.1015,-5.9238,-5.6844,-5.4353,-5.1957,-5.0167,-4.7679,0.0,0.0,0.0,0.0,0.0,0.0,0.0,0.0,0.0,-4.3975,-4.5773,-4.7902,-5.0472,-5.3775,-5.6492,-5.9648,-6.409,-6.6806,-6.9192,-7.1468,-7.2899,-7.4221,-7.5689,-7.5873,-7.5873,-7.5873,-7.5873,-7.5249,-7.3817,-7.3707,-7.334,-7.2532,-7.2496,-7.2496,-7.2496,-7.2349,-7.1872,-7.1101,-7.0257,-6.9449,-6.8678,-6.8017,-6.7283,-6.6476,-6.5668,-6.4861,-6.4016,-6.3025,-6.2108,-6.1263,-5.9795,-5.9111,-5.8891,-5.8253,-5.7997,-5.7997,-5.7997,-5.7997,-5.7997,0.0,0.0,0.0,0.0,0.0,0.0,0.0,0.0,-3.6538,-3.82,-4.0816,-4.3124,-4.4701,-4.6509,-4.7846,-4.8471,0.0,0.0,0.0,-5.9523,-6.3628,-6.7782,-7.1245,-7.3899,-7.5668,-7.7361,-7.8631,-7.9515,-7.9708,-8.0554,-8.2016,-8.2131,-8.2593,-8.3324,-8.3324,-8.3324,-8.3247,-8.2477,-8.217,-8.2093,-8.1285,-7.9977,-7.84,-7.7476,-7.5014,-7.1745,-6.9398,-6.7398,-6.5513,-6.2947,-6.1399,-6.0236,-5.8457,-5.6107,-5.366,-5.187,0.0,-4.5993,-4.4713,-4.339,-4.269,-4.3931,-4.42,-4.452,0.0,0.0,-4.8306,-5.0692,-5.2527,-5.4693,-5.7937,-6.1117,-6.4163,-6.6843,-6.9339,-7.1505,-7.3193,-7.3597,-7.4037,-7.4955,-7.5028,-7.5028,-7.5028,-7.5028,-7.4661,-7.378,-7.3707,-7.334,-7.2532,-7.2496,-7.2496,-7.2496,-7.1835,-7.1064,-7.022,-6.9449,-6.8641,-6.7834,-6.7724,-6.7283,-6.6476,-6.5668,-6.4861,-6.4016,-6.2401,-6.1263,-6.0456,-5.9551,-5.8804,-5.8143,-5.8033,-5.7997,-5.7997,-5.7997,-5.7997,-5.7997,0.0,0.0,0.0,0.0,0.0,0.0,0.0,0.0,0.0,-3.6462,-3.8777,-4.0623,-4.1316,-4.2893,-4.447,0.0,0.0,0.0,-5.4741,-5.9484,-6.3974,0.0,0.0,0.0,0.0,0.0,0.0,0.0,0.0,0.0,0.0,0.0,0.0,0.0,-8.3593,-8.3593,-8.3516,-8.267,-8.2285,-8.217,-8.0862,-7.9323,-7.7553,-7.5207,-7.2206,-6.909,-6.8013,-6.5936,0.0,0.0,-5.9308,-5.8247,-5.6593,-5.4957,-5.33,-5.1502,-4.9492,0.0,-4.6769,-4.5978,-4.5779,-4.7334,-4.7647,-4.8143,-5.0178,-5.1279,-5.2527,-5.4987,-5.6418,-5.801,-6.0762,-6.2842,-6.5044,0.0,-6.9633,-7.1174,-7.2789,-7.2606,-7.2422,-7.276,-7.2386,-7.2679,-7.4074,-7.378,-7.3377,-7.3046,-7.301,-7.2863,-7.2532,-7.2496,-7.2312,-7.1835,-7.1505,-7.0697,-6.9412,-6.9082,-6.8495,-6.7687,-6.7687,-6.7026,-6.5778,-6.5448,-6.4604,-6.3246,-6.1594,-6.0713,-6.0309,-5.9024,-5.829,-5.7997,-5.7997,-5.7997,-5.7997,-5.7997,-5.7997,-5.7997,0.0,0.0,0.0,0.0,0.0,0.0,0.0,0.0,0.0,0.0,-3.6969,-3.843,-3.8892,-4.0008,-4.1431,0.0,0.0,0.0,0.0,-5.8781,0.0,0.0,0.0,0.0,0.0,0.0,0.0,0.0,0.0,0.0,0.0,0.0,0.0,0.0,0.0,-8.3708,-8.3901,-8.2785,-8.217,-8.1823,-8.0131,-7.8169,-7.5899,-7.2706,-6.8936,-6.532,-6.5089,-6.2974,0.0,0.0,-5.5818,-5.4752,-5.3741,-5.2702,-5.1557,-5.0445,-4.9446,-4.8653,-4.853,-4.8449,-4.8827,-5.0812,-5.1303,-5.1887,-5.4326,-5.5317,-5.6345,-5.8547,-5.9465,-6.0566,-6.2768,-6.387,-6.5338,-6.8128,-6.9229,-7.0257,-7.1651,-7.1358,-7.0991,-7.0991,-7.0073,-7.0293,-7.2496,-7.2165,-7.1945,-7.2165,-7.2165,-7.2275,-7.2496,-7.2496,-7.2129,-7.1329,-7.1101,-7.0293,-6.8898,-6.8678,-6.8274,-6.7687,-6.7467,-6.6623,-6.5301,-6.4824,-6.3833,-6.2401,-6.1006,-6.0272,-5.9979,-5.8584,-5.7997,-5.7997,-5.7997,-5.7997,-5.7997,-5.7997,-5.7997,-5.7997,0.0,0.0,0.0,0.0,0.0,0.0,0.0,0.0,0.0,0.0,0.0,0.0,0.0,0.0,0.0,0.0,0.0,0.0,0.0,-5.755,0.0,0.0,0.0,0.0,0.0,0.0,0.0,0.0,0.0,0.0,0.0,0.0,0.0,0.0,0.0,0.0,0.0,-8.3016,-8.1862,-8.0977,-7.9246,-7.6553,-7.3322,-7.0744,-6.6128,-6.0896,-6.0012,0.0,0.0,0.0,-5.101,-4.9779,-5.0558,-4.9625,0.0,-4.8973,-4.8682,-4.8415,-4.9683,-5.0417,-5.1531,-5.4663,-5.5412,-5.6051,-5.845,-5.9038,-5.9538,-6.1153,-6.152,-6.2034,-6.3759,-6.4714,-6.5815,-6.7467,-6.8421,-6.9229,-7.0073,-7.0146,-7.0146,-7.0146,-6.8715,-6.8385,0.0,-7.0183,-7.0513,-7.1256,-7.1329,-7.1688,-7.2459,-7.2496,-7.2129,-7.1329,-7.055,-6.9743,-6.8898,-6.8128,-6.7724,-6.7687,-6.6916,-6.6109,-6.5264,-6.3613,-6.2438,-6.1594,-6.075,-5.9979,-5.9148,-5.8327,-5.7997,-5.7997,-5.7997,-5.7997,-5.7997,-5.7997,-5.7997,-5.7997,0.0,0.0,0.0,0.0,0.0,0.0,0.0,0.0,0.0,0.0,0.0,0.0,0.0,0.0,0.0,0.0,0.0,0.0,0.0,0.0,0.0,0.0,0.0,0.0,0.0,0.0,0.0,0.0,0.0,0.0,0.0,0.0,0.0,0.0,0.0,0.0,0.0,0.0,-7.9323,-7.8323,-7.5476,-7.2629,-6.9667,-6.5397,-6.1127,-5.6857,0.0,0.0,0.0,0.0,0.0,-4.6086,-4.6355,-4.6855,-4.7492,-4.859,-4.8566,-4.8867,-5.173,-5.2951,-5.4301,-5.7895,-5.8767,-5.9281,-6.1166,-6.1569,-6.1594,-6.1594,-6.119,-6.097,-6.1557,-6.1887,-6.2768,-6.4934,-6.6439,-6.776,-6.9119,-6.9302,-6.9119,-6.8568,-6.754,0.0,0.0,0.0,0.0,-7.0403,-7.0991,-7.1403,-7.1688,-7.2202,-7.1908,-7.055,-7.022,-6.9449,-6.8128,-6.7834,-6.7687,-6.7677,-6.6329,-6.5301,-6.4457,-6.3319,-6.2365,-6.1557,-6.075,-5.9942,-5.9148,-5.8327,-5.7997,-5.7997,-5.7997,-5.7997,-5.7997,-5.7997,-5.7997,-5.7997,0.0,0.0,0.0,0.0,0.0,0.0,0.0,0.0,0.0,0.0,0.0,0.0,0.0,0.0,0.0,0.0,0.0,0.0,0.0,0.0,0.0,0.0,0.0,0.0,0.0,0.0,0.0,0.0,0.0,0.0,0.0,0.0,0.0,0.0,0.0,0.0,0.0,0.0,0.0,0.0,-7.1206,-6.8052,-6.4743,-6.0242,-5.6049,0.0,0.0,0.0,0.0,0.0,0.0,-4.256,-4.3175,-4.4929,-4.6998,-4.8275,-4.9273,-5.0703,-5.4036,-5.587,-5.7597,-6.0908,-6.1484,-6.163,-6.2952,-6.2585,-6.1704,-6.0896,-5.9869,-5.9024,-5.8731,-5.8914,-5.9832,-6.1998,-6.3686,-6.5411,-6.7357,-6.7871,-6.7944,-6.7724,-6.699,-6.6623,0.0,0.0,0.0,-6.9559,-7.044,-7.0991,-7.1256,-7.2055,-7.1762,-7.0146,-7.011,-6.9339,-6.7724,-6.7687,-6.7393,-6.6843,-6.5778,-6.4714,-6.3613,-6.3062,-6.2218,-6.1153,-6.0639,-5.9795,-5.8731,-5.8217,-5.7997,-5.7997,-5.7997,-5.7997,-5.7997,-5.7997,-5.7997,-5.7997,0.0,0.0,0.0,0.0,0.0,0.0,0.0,0.0,0.0,0.0,0.0,0.0,0.0,0.0,0.0,0.0,0.0,0.0,0.0,0.0,0.0,0.0,0.0,0.0,0.0,0.0,0.0,0.0,0.0,0.0,0.0,0.0,0.0,0.0,0.0,0.0,0.0,0.0,0.0,0.0,0.0,0.0,-5.8742,-5.5357,0.0,0.0,0.0,0.0,0.0,0.0,0.0,0.0,-4.1379,-4.4029,-4.6777,-4.8207,-5.0739,-5.3719,-5.6587,-5.9013,-6.1298,-6.3663,-6.3576,-6.3135,-6.387,-6.2144,-6.0126,-5.9148,-5.7643,-5.6235,0.0,0.0,-5.6969,-5.8561,-6.0309,-6.2291,-6.4787,-6.5888,-6.6733,0.0,0.0,0.0,0.0,0.0,0.0,-6.8715,0.0,-7.044,-7.1183,-7.2018,-7.1725,-7.0146,-7.0073,-6.9265,-6.7724,-6.7687,-6.688,-6.5301,-6.5301,-6.442,-6.278,-6.278,-6.1961,-6.0456,-6.0419,-5.9501,-5.807,-5.8033,-5.7997,-5.7997,-5.7997,-5.7997,-5.7997,-5.7997,-5.7997,-5.7997,0.0,0.0,0.0,0.0,0.0,0.0,0.0,0.0,0.0,0.0,0.0,0.0,0.0,0.0,0.0,0.0,0.0,0.0,0.0,0.0,0.0,0.0,0.0,0.0,0.0,0.0,0.0,0.0,0.0,0.0,0.0,0.0,0.0,0.0,0.0,0.0,0.0,0.0,0.0,0.0,0.0,0.0,-5.3385,0.0,0.0,0.0,0.0,0.0,0.0,0.0,0.0,0.0,-4.4373,-4.6569,-4.8579,-5.1269,-5.3682,-5.6143,-5.9143,-6.1154,-6.2953,-6.529,-6.5264,-6.4383,-6.3392,-6.1704,-5.9501,-5.6271,-5.3885,-5.1903,0.0,0.0,0.0,-5.3555,-5.6675,0.0,-6.2181,-6.431,0.0,-6.5888,0.0,-6.6586,-6.6769,-6.6623,0.0,0.0,-6.9302,-7.0183,-7.0403,-7.1174,-7.1138,-7.011,-6.9522,-6.8715,-6.7714,-6.7687,-6.688,-6.5301,-6.5301,-6.442,-6.278,-6.278,-6.2254,-6.1263,-6.0676,-5.9832,-5.8877,-5.8253,-5.7997,-5.7997,-5.7997,-5.7997,-5.7997,-5.7997,-5.7997,-5.7997,0.0,0.0,0.0,0.0,0.0,0.0,0.0,0.0,0.0,0.0,0.0,0.0,0.0,0.0,0.0,0.0,0.0,0.0,0.0,0.0,0.0,0.0,0.0,0.0,0.0,0.0,0.0,0.0,0.0,0.0,0.0,0.0,0.0,0.0,0.0,0.0,0.0,0.0,0.0,0.0,0.0,0.0,0.0,0.0,0.0,0.0,0.0,0.0,0.0,0.0,0.0,-4.299,-4.5832,-4.8459,-5.1005,-5.3726,0.0,-5.9424,-6.2147,-6.4205,-6.5893,-6.721,-6.6439,-6.4787,-6.2732,-5.9685,-5.6198,-5.2491,-4.9517,0.0,-4.592,-4.6654,0.0,0.0,0.0,0.0,-6.0162,-6.2989,-6.5044,0.0,-6.6549,0.0,-6.7026,-6.7026,-6.7357,0.0,-6.9376,-7.011,-7.011,-7.0881,-7.0954,-7.011,-6.9339,-6.8495,-6.7714,-6.7687,-6.688,-6.5301,-6.5301,-6.442,-6.278,-6.278,-6.2365,-6.1557,0.0,-5.9942,-5.9148,-5.8327,-5.7997,-5.7997,-5.7997,-5.7997,-5.7997,-5.7997,-5.7997,-5.7997,0.0,0.0,0.0,0.0,0.0,0.0,0.0,0.0,0.0,0.0,0.0,0.0,0.0,0.0,0.0,0.0,0.0,0.0,0.0,0.0,0.0,0.0,0.0,0.0,0.0,0.0,0.0,0.0,0.0,0.0,0.0,0.0,0.0,0.0,0.0,0.0,0.0,0.0,0.0,0.0,0.0,0.0,0.0,0.0,0.0,0.0,0.0,0.0,0.0,0.0,-4.2487,-4.4457,-4.6859,-5.0252,-5.3775,-5.6057,-5.942,-6.2854,-6.5113,-6.729,-6.8862,-6.8788,-6.6843,-6.4273,-6.1594,-5.6675,-5.172,-4.8233,0.0,-4.247,-4.1662,-4.2837,-4.4709,-4.7131,0.0,-5.4876,-5.8084,-6.1484,-6.4237,-6.5962,-6.7063,-6.7724,-6.7834,-6.7944,-6.8311,-6.9009,-6.9706,-7.011,-7.011,-7.077,-7.0734,-6.9816,-6.9082,-6.8421,-6.7714,-6.7687,-6.688,-6.5301,-6.5301,-6.442,-6.278,-6.278,-6.2438,-6.1704,-6.0896,-6.0126,-5.9294,-5.851,-5.8107,-5.7997,-5.7997,-5.7997,-5.7997,-5.7997,-5.7997,-5.7997,0.0,0.0,0.0,0.0,0.0,0.0,0.0,0.0,0.0,0.0,-3.443,0.0,0.0,0.0,0.0,0.0,0.0,0.0,0.0,0.0,0.0,0.0,0.0,0.0,0.0,0.0,0.0,0.0,0.0,0.0,0.0,0.0,0.0,0.0,0.0,0.0,0.0,0.0,0.0,0.0,0.0,0.0,0.0,0.0,0.0,0.0,0.0,0.0,0.0,0.0,-4.2699,-4.6291,-4.9867,-5.3172,-5.6308,-5.9202,-6.2308,-6.5175,-6.6953,-6.8172,-6.8752,-6.8054,-6.5558,-6.2254,-5.851,-5.3775,0.0,0.0,-4.0781,-3.83,-3.7477,-3.8652,-4.0524,-4.2947,-4.7315,-5.1557,-5.4766,-5.8584,-6.1924,0.0,-6.6402,-6.7944,-6.8641,-6.9302,0.0,0.0,-7.0,-7.011,-7.011,-7.022,-6.9633,-6.8164,-6.7981,-6.7834,-6.7687,-6.7687,-6.688,-6.5301,-6.5301,-6.442,-6.278,-6.278,-6.2707,-6.2548,-6.1741,0.0,-6.0126,-5.9294,-5.8621,-5.7997,-5.7997,-5.7997,-5.7997,-5.7997,-5.7997,-5.7997,0.0,0.0,0.0,0.0,0.0,0.0,0.0,0.0,0.0,0.0,-3.643,-3.6161,0.0,0.0,0.0,0.0,0.0,0.0,0.0,0.0,0.0,0.0,0.0,0.0,0.0,0.0,0.0,0.0,0.0,0.0,0.0,0.0,0.0,0.0,0.0,0.0,0.0,0.0,0.0,0.0,0.0,0.0,0.0,0.0,0.0,0.0,0.0,0.0,0.0,0.0,-4.2117,-4.5391,-4.9632,-5.3609,-5.7323,-6.0356,-6.3788,-6.6948,-6.8603,-6.9614,-6.9853,-6.8641,-6.5228,-6.1006,-5.6565,0.0,0.0,0.0,-3.7566,-3.5312,-3.4504,-3.5701,0.0,-4.0047,-4.4488,-4.882,-5.2087,-5.6712,0.0,-6.3135,-6.5595,-6.754,0.0,-6.9265,-6.9633,-7.0073,-7.011,-7.011,-7.011,-6.9706,-6.8935,-6.7751,-6.7687,-6.7687,-6.7687,-6.7687,-6.71,-6.5925,-6.5521,-6.4677,-6.3466,-6.3025,-6.278,-6.2768,-6.1961,-6.1153,-6.0346,-5.9515,-5.8731,-5.7997,-5.7997,-5.7997,-5.7997,-5.7997,-5.7997,-5.7997,0.0,0.0,0.0,0.0,0.0,0.0,0.0,-3.5199,-3.6423,-3.8277,-3.8546,-3.8277,-3.7584,-3.7038,-3.6462,0.0,0.0,0.0,0.0,0.0,0.0,0.0,0.0,0.0,0.0,0.0,0.0,0.0,0.0,0.0,0.0,0.0,0.0,0.0,0.0,0.0,0.0,0.0,0.0,0.0,0.0,0.0,0.0,0.0,0.0,0.0,0.0,0.0,0.0,0.0,-4.101,-4.3501,-4.7399,-5.2177,-5.694,-6.016,-6.387,-6.732,-6.9082,-7.0183,-7.0367,-6.8568,-6.4567,-5.9795,-5.4766,-4.86,0.0,0.0,-3.4871,-3.2852,-3.2179,0.0,-3.5298,0.0,-4.2103,-4.6287,-4.9554,-5.473,-5.9111,0.0,-6.453,0.0,-6.8495,-6.8972,0.0,-7.0036,-6.9926,-6.9853,-6.9853,-6.9082,-6.8348,-6.7724,-6.7687,-6.7687,-6.7687,-6.7687,-6.7283,-6.6476,-6.5705,-6.4897,-6.4053,-6.3209,-6.278,-6.2743,-6.2144,-6.13,0.0,-5.9722,-5.8877,-5.7997,-5.7997,-5.7997,-5.7997,-5.7997,-5.7997,-5.7997,0.0,0.0,0.0,0.0,0.0,0.0,0.0,-3.6077,-3.7469,-3.9938,-4.0285,-4.0246,-4.0169,-3.8084,-3.6654,0.0,0.0,0.0,0.0,0.0,0.0,0.0,0.0,0.0,0.0,0.0,0.0,0.0,0.0,0.0,0.0,0.0,0.0,0.0,0.0,0.0,0.0,0.0,0.0,0.0,0.0,0.0,0.0,0.0,0.0,0.0,0.0,0.0,0.0,0.0,0.0,-4.1566,-4.3005,-4.8249,-5.4564,-5.83,0.0,0.0,-6.7283,-6.8495,-6.8568,-6.6219,-6.2487,-5.7937,-5.2417,0.0,-4.0251,-3.6105,-3.2729,-3.0503,-3.043,0.0,0.0,0.0,0.0,-4.3754,0.0,0.0,0.0,-5.9148,0.0,0.0,-6.765,-6.9119,0.0,-7.0073,-6.9412,-6.9009,-6.9009,-6.8238,-6.776,-6.7687,-6.7687,-6.7687,-6.7687,-6.7687,-6.7283,-6.6476,-6.5705,-6.4897,-6.4053,-6.3209,-6.278,-6.278,-6.2707,-6.1814,0.0,-6.0309,-5.9391,-5.7997,-5.7997,-5.7997,-5.7997,-5.7997,-5.7997,-5.7997,0.0,0.0,0.0,0.0,0.0,0.0,0.0,-3.6615,-3.8392,-4.0969,-4.1277,-4.1277,-4.1277,-3.9892,-3.8354,0.0,0.0,0.0,0.0,0.0,0.0,0.0,0.0,0.0,0.0,0.0,0.0,-3.6231,0.0,0.0,0.0,0.0,0.0,0.0,0.0,0.0,0.0,0.0,0.0,0.0,0.0,0.0,0.0,0.0,0.0,0.0,0.0,0.0,0.0,0.0,0.0,0.0,-3.9563,-4.3221,0.0,0.0,-5.8584,-6.2401,-6.4861,-6.5778,-6.5632,-6.4163,-6.0015,-5.495,-4.9754,0.0,-3.849,-3.4417,-3.1775,-3.0063,-2.9574,0.0,0.0,0.0,0.0,0.0,0.0,0.0,0.0,0.0,-6.0896,0.0,0.0,0.0,-6.8862,-6.9339,-6.8641,-6.8164,-6.8164,-6.7871,-6.7687,-6.7687,-6.7687,-6.7687,-6.7687,-6.7687,-6.754,-6.721,-6.5925,-6.5154,-6.4787,-6.3429,-6.278,-6.2743,-6.2291,-6.1447,0.0,-5.9905,-5.9024,-5.7997,-5.7997,-5.7997,-5.7997,-5.7997,-5.7997,-5.7997,0.0,0.0,0.0,0.0,0.0,0.0,-3.5231,-3.693,-3.8815,-4.1123,-4.1662,-4.1808,-4.1808,-4.1239,-3.9854,-3.7315,0.0,0.0,0.0,0.0,0.0,0.0,0.0,0.0,0.0,0.0,-3.6115,-3.6692,-3.6962,-3.7392,0.0,0.0,0.0,0.0,0.0,0.0,0.0,0.0,0.0,0.0,0.0,0.0,0.0,0.0,0.0,0.0,0.0,0.0,0.0,0.0,0.0,0.0,0.0,0.0,0.0,0.0,-5.4553,-5.8534,-6.1238,-6.2316,-6.2401,-6.13,-5.7336,-5.2417,0.0,0.0,-3.6964,-3.3353,-3.1115,-2.9647,-2.9097,0.0,0.0,0.0,0.0,0.0,0.0,0.0,0.0,0.0,0.0,-6.2181,0.0,-6.6953,-6.7907,-6.8495,-6.8017,-6.7687,-6.7687,-6.7687,-6.7687,-6.7687,-6.7687,-6.7577,-6.7357,-6.7357,-6.721,-6.6953,-6.5595,-6.4971,-6.4897,-6.3466,-6.267,-6.2401,-6.1851,-6.1006,0.0,-5.9404,-5.8731,-5.7997,-5.7997,-5.7997,-5.7997,-5.7997,-5.7997,-5.7997,0.0,0.0,0.0,0.0,0.0,0.0,0.0,-3.693,-3.8584,-4.0285,-4.1277,-4.1808,-4.1808,-4.1769,-4.0777,-3.82,0.0,0.0,0.0,0.0,0.0,0.0,0.0,0.0,0.0,0.0,-3.6692,-3.6692,-3.7546,-3.8007,-3.8007,-3.8007,-3.8007,0.0,0.0,0.0,0.0,0.0,0.0,0.0,0.0,0.0,0.0,0.0,0.0,0.0,0.0,0.0,0.0,0.0,0.0,0.0,0.0,0.0,0.0,0.0,-4.9692,-5.2909,-5.611,-5.8102,-5.8854,-5.7262,-5.4436,-5.0729,0.0,0.0,-3.5605,-3.3096,-3.0675,-2.9023,-2.8987,0.0,0.0,0.0,0.0,0.0,0.0,0.0,0.0,0.0,0.0,-6.0529,-6.3796,-6.6292,-6.7687,-6.7714,-6.7687,0.0,-6.7687,-6.7687,-6.7687,-6.7687,-6.7687,-6.732,-6.6512,-6.6512,-6.6109,-6.5338,-6.4494,-6.409,-6.409,-6.3209,-6.2365,-6.1594,-6.1594,-6.0676,0.0,-5.9184,-5.8731,-5.7997,-5.7997,-5.7997,-5.7997,-5.7997,-5.7997,-5.7997,0.0,0.0,0.0,0.0,0.0,0.0,0.0,-3.5584,-3.7315,-4.0131,-4.0746,-4.1123,-4.1731,-4.1277,-4.0123,-3.8161,0.0,0.0,0.0,0.0,0.0,0.0,0.0,0.0,0.0,0.0,-3.7546,-3.9315,-3.9592,-4.0315,-4.147,-4.0893,-4.0277,-3.9669,-3.8238,0.0,0.0,0.0,0.0,0.0,0.0,0.0,0.0,0.0,0.0,0.0,0.0,0.0,0.0,0.0,0.0,0.0,0.0,0.0,0.0,-3.8497,-4.3474,-4.8587,-5.1273,-5.27,-5.3188,-5.2123,-4.9444,-4.603,-4.2286,0.0,0.0,-3.2155,-3.0308,-2.8987,-2.8987,0.0,0.0,0.0,0.0,0.0,0.0,0.0,0.0,0.0,0.0,0.0,0.0,0.0,-6.7687,-6.7687,-6.7687,-6.7687,-6.7687,-6.7687,-6.743,-6.688,-6.688,-6.6476,-6.5705,-6.5705,-6.5558,-6.5301,-6.4494,-6.409,-6.4053,-6.3209,-6.2365,-6.1557,-6.1006,-6.0199,0.0,-5.8621,-5.8217,-5.7997,-5.7997,-5.7997,-5.7997,-5.7997,-5.7997,-5.7997,0.0,0.0,0.0,0.0,0.0,0.0,0.0,-3.4737,-3.6346,-3.8738,-3.9354,-3.9738,-4.0315,-3.9892,-3.9008,-3.7623,0.0,0.0,0.0,0.0,0.0,0.0,0.0,0.0,0.0,-3.7661,-3.8892,-4.0516,-4.117,-4.2047,-4.3085,-4.2547,-4.1816,-4.0931,-3.9546,-3.8277,0.0,0.0,0.0,0.0,0.0,0.0,-3.55,0.0,0.0,0.0,0.0,0.0,0.0,0.0,0.0,0.0,0.0,0.0,0.0,0.0,-3.8061,-4.2374,0.0,-4.7095,-4.7462,-4.6948,-4.4856,-4.2139,0.0,0.0,0.0,0.0,0.0,0.0,0.0,0.0,0.0,0.0,0.0,0.0,0.0,0.0,0.0,0.0,0.0,0.0,0.0,-6.6769,-6.7687,-6.7687,-6.7687,-6.7687,-6.7687,-6.7393,-6.688,-6.6072,-6.6329,-6.5962,-6.4861,-6.4861,-6.4677,-6.4347,-6.387,-6.3613,-6.3576,-6.2732,-6.1924,-6.108,-6.0309,0.0,0.0,-5.8217,-5.7997,-5.7997,-5.7997,-5.7997,-5.7997,-5.7997,-5.7997,-5.7997,0.0,0.0,0.0,0.0,0.0,0.0,0.0,0.0,0.0,0.0,-3.7353,-3.793,-3.8007,-3.793,-3.7584,0.0,0.0,0.0,0.0,0.0,0.0,0.0,0.0,0.0,-3.6769,-3.9238,-4.0593,-4.0785,-4.2431,-4.3355,-4.3431,-4.3316,-4.2854,-4.2,-4.0969,-3.9515,-3.7815,-3.6192,-3.55,-3.55,-3.55,-3.55,0.0,0.0,0.0,0.0,0.0,0.0,0.0,0.0,0.0,0.0,0.0,0.0,0.0,0.0,0.0,0.0,0.0,-4.1288,-4.1846,-4.1809,-4.0598,-3.8872,-3.656,0.0,0.0,0.0,0.0,0.0,0.0,0.0,0.0,0.0,0.0,0.0,0.0,-4.4121,0.0,0.0,-6.0346,0.0,-6.5154,-6.6769,-6.7687,-6.7687,-6.7687,-6.7677,-6.7614,-6.6916,-6.6109,-6.5264,-6.5925,-6.5595,-6.4016,-6.4016,-6.3613,-6.278,-6.278,-6.2743,-6.2695,-6.1924,-6.1117,0.0,-5.9515,0.0,0.0,-5.7997,-5.7997,-5.7997,-5.7997,-5.7997,-5.7997,-5.7997,-5.7997,-5.7997,0.0,0.0,0.0,0.0,0.0,0.0,0.0,0.0,0.0,0.0,0.0,-3.7276,-3.793,-3.7392,0.0,0.0,0.0,0.0,0.0,0.0,0.0,0.0,0.0,0.0,-3.77,-3.9554,-4.1439,-4.3393,-4.4479,-4.5663,-4.6894,-4.5624,-4.4902,-4.4586,-4.1747,-3.92,-3.6923,-3.5923,-3.55,-3.55,-3.55,-3.55,0.0,0.0,0.0,0.0,-3.3199,-3.2346,0.0,0.0,0.0,0.0,0.0,0.0,0.0,0.0,-3.1607,-3.1901,-3.3621,0.0,-3.7551,-3.6876,-3.5973,-3.4908,0.0,0.0,0.0,0.0,0.0,0.0,0.0,0.0,0.0,0.0,0.0,0.0,-4.0728,0.0,0.0,-5.6308,-6.0346,-6.3441,-6.5154,-6.6769,-6.7687,-6.7687,-6.7687,-6.743,-6.6806,-6.6586,-6.5852,-6.442,-6.4567,-6.4163,-6.3135,-6.3099,-6.3025,-6.278,-6.278,-6.2475,-6.1887,-6.1704,-6.0823,-5.9478,0.0,0.0,-5.7997,-5.7997,-5.7997,-5.7997,-5.7997,-5.7997,-5.7997,-5.7997,-5.7997,-5.7997,0.0,0.0,0.0,0.0,0.0,0.0,0.0,0.0,0.0,0.0,0.0,0.0,0.0,0.0,0.0,0.0,0.0,0.0,0.0,0.0,0.0,0.0,0.0,-3.7892,-3.9123,-4.0816,-4.2739,-4.4893,-4.6124,-4.7432,-4.8663,-4.7778,-4.6932,-4.6009,-4.1824,-3.8969,-3.7238,-3.6,-3.55,-3.55,-3.55,0.0,0.0,0.0,0.0,0.0,-3.3064,-3.2058,0.0,-3.0271,-3.0068,-3.0007,0.0,0.0,0.0,0.0,-3.0377,-3.0217,-3.057,-3.2317,-3.3954,-3.3476,-3.3036,-3.2485,-3.1678,0.0,0.0,0.0,0.0,0.0,0.0,0.0,0.0,0.0,-3.7551,0.0,0.0,0.0,0.0,-5.7556,-6.0799,-6.3441,0.0,0.0,-6.7283,-6.765,-6.7357,-6.6953,-6.6512,-6.5815,-6.5007,-6.4127,-6.3723,-6.3282,-6.278,-6.278,-6.278,-6.278,-6.2438,-6.2034,-6.1557,-6.086,-6.0015,-5.9184,0.0,0.0,-5.7997,-5.7997,-5.7997,-5.7997,-5.7997,-5.7997,-5.7997,-5.7997,-5.7997,-5.7997,0.0,0.0,0.0,0.0,0.0,0.0,0.0,0.0,0.0,0.0,0.0,0.0,0.0,0.0,0.0,0.0,0.0,0.0,0.0,0.0,0.0,0.0,0.0,-3.8931,-4.0477,-4.247,-4.4316,-4.5979,-4.7663,-4.9009,-4.9971,-4.9702,-4.8471,-4.6317,-4.17,-3.9046,-3.7892,-3.6346,-3.5615,-3.55,-3.55,0.0,0.0,0.0,0.0,0.0,0.0,0.0,0.0,-3.0118,-3.0091,-3.0046,-3.0106,0.0,0.0,0.0,0.0,0.0,-2.9353,-3.015,-3.1054,-3.1029,-3.1017,-3.087,-3.0173,0.0,0.0,0.0,0.0,0.0,0.0,-3.3073,0.0,0.0,0.0,0.0,-5.0325,-5.3812,-5.6675,-5.9074,-6.1386,0.0,-6.4971,-6.5852,-6.6586,0.0,0.0,-6.6256,-6.6145,-6.4824,-6.4016,-6.3906,-6.3209,-6.2743,-6.2622,-6.2768,-6.2768,-6.2622,-6.1924,-6.1484,-6.119,-5.9808,-5.9111,-5.8964,0.0,0.0,-5.7997,-5.7997,-5.7997,-5.7997,-5.7997,-5.7997,-5.7997,-5.7997,-5.7997,-5.7997,0.0,0.0,0.0,0.0,0.0,0.0,0.0,0.0,0.0,0.0,0.0,0.0,0.0,0.0,0.0,0.0,0.0,0.0,0.0,0.0,0.0,0.0,-3.8623,-3.9554,-4.0477,-4.3594,-4.6047,-4.774,-4.9433,-5.1087,-5.2587,-5.1164,-4.8432,-4.4586,-4.2393,-4.0123,-3.793,-3.6923,-3.6115,-3.55,-3.55,0.0,0.0,0.0,0.0,0.0,0.0,0.0,0.0,-3.0192,-3.0171,-3.0157,-3.009,0.0,0.0,0.0,0.0,0.0,-2.9353,-2.9413,-2.9503,-2.9389,-2.9354,-2.9354,0.0,0.0,0.0,0.0,0.0,0.0,0.0,-3.4798,-3.6707,0.0,0.0,-4.8526,0.0,0.0,-5.7519,-5.9942,0.0,0.0,0.0,0.0,0.0,0.0,0.0,-6.5191,-6.4494,-6.4237,-6.3759,-6.3025,-6.2879,-6.2475,-6.1777,-6.2475,-6.2475,-6.1777,-6.1667,-6.0896,-5.9551,-5.9294,-5.8817,-5.818,0.0,-5.7997,-5.7997,-5.7997,-5.7997,-5.7997,-5.7997,-5.7997,-5.7997,-5.7997,-5.7997,-5.7997,0.0,0.0,0.0,0.0,0.0,0.0,0.0,0.0,0.0,0.0,0.0,0.0,0.0,0.0,0.0,0.0,0.0,0.0,0.0,0.0,0.0,-3.8623,-4.0392,-4.1739,-4.2555,-4.5009,-4.7586,-5.0154,-5.1895,-5.3587,-5.5203,-5.2587,-4.9317,-4.5586,-4.2962,-4.0392,-3.793,-3.7084,-3.6231,-3.55,0.0,0.0,0.0,0.0,0.0,0.0,0.0,0.0,0.0,0.0,-3.0199,-3.0206,-3.0147,0.0,0.0,0.0,0.0,0.0,-2.9444,-2.9339,-2.9322,-2.9664,-2.9729,-2.9694,0.0,0.0,0.0,0.0,0.0,0.0,0.0,0.0,-3.8946,-4.313,0.0,-5.194,-5.4766,-5.7593,-5.9979,0.0,0.0,0.0,0.0,0.0,0.0,0.0,0.0,0.0,-6.4127,-6.3649,-6.3209,-6.278,-6.2401,-6.1961,-6.1594,-6.1557,-6.1337,-6.0933,-6.0529,-5.9942,-5.9184,-5.8767,-5.8364,-5.7997,0.0,-5.7997,-5.7997,-5.7997,-5.7997,-5.7997,-5.7997,-5.7997,-5.7997,-5.7997,-5.7997,-5.7997,0.0,0.0,0.0,0.0,0.0,0.0,0.0,0.0,0.0,0.0,0.0,0.0,0.0,0.0,0.0,0.0,0.0,0.0,0.0,0.0,-3.7777,-3.9515,-4.2008,-4.3855,-4.4893,-4.7009,-4.9538,-5.25,-5.4241,-5.5626,-5.6637,-5.3395,-5.0192,-4.7038,-4.3615,-4.07,-3.8238,-3.7353,-3.6423,-3.55,0.0,0.0,0.0,0.0,0.0,0.0,0.0,0.0,0.0,0.0,0.0,0.0,0.0,0.0,0.0,-3.0022,-2.9813,-2.9636,-2.956,-2.958,-2.9752,-3.0283,0.0,0.0,0.0,0.0,0.0,0.0,0.0,0.0,0.0,-3.8453,0.0,-4.7369,-5.1353,-5.473,-5.7519,-6.0199,-6.2181,-6.3025,-6.3686,0.0,0.0,0.0,0.0,0.0,0.0,0.0,-6.3503,-6.2879,-6.2438,-6.2254,-6.163,-6.1227,-6.1043,-6.0419,-6.0126,-6.0126,-5.9478,-5.9074,-5.8914,-5.829,-5.7997,-5.7997,-5.7997,-5.7997,-5.7997,-5.7997,-5.7997,-5.7997,-5.7997,-5.7997,-5.7997,-5.7997,-5.7997,-5.7997,0.0,0.0,0.0,0.0,0.0,0.0,0.0,0.0,0.0,0.0,0.0,0.0,0.0,0.0,0.0,0.0,0.0,0.0,0.0,0.0,-3.8661,-4.0323,-4.2854,-4.5009,-4.6701,-4.9885,-5.2462,-5.4318,-5.6022,-5.6483,-5.5742,-5.3126,-5.05,-4.7855,-4.4509,-4.1585,-3.9169,-3.8277,-3.6969,-3.55,-3.55,0.0,0.0,0.0,0.0,0.0,0.0,0.0,0.0,0.0,0.0,0.0,0.0,0.0,-3.0157,-2.9953,-2.983,-2.9764,-2.9617,-3.0091,-3.057,-3.052,-3.0397,0.0,-3.2094,-3.3647,0.0,-3.5862,0.0,0.0,0.0,-4.2727,-4.6764,-5.0949,-5.3775,-5.6785,-6.0713,0.0,-6.3062,-6.3906,-6.4053,0.0,0.0,0.0,0.0,0.0,0.0,0.0,-6.1814,-6.1704,-6.1337,-6.0603,-6.0529,-6.0126,-5.9368,-5.9294,-5.9294,-5.9294,-5.9221,-5.8804,-5.807,-5.8033,-5.7997,-5.7997,-5.7997,-5.7997,-5.7997,-5.7997,-5.7997,-5.7997,-5.7997,-5.7997,-5.7997,-5.7997,-5.7997,-5.7997,0.0,0.0,0.0,0.0,0.0,0.0,0.0,0.0,0.0,0.0,0.0,0.0,0.0,0.0,0.0,0.0,0.0,0.0,0.0,0.0,-3.9008,-4.12,-4.3739,-4.6394,-4.9202,-5.1548,-5.3818,-5.6049,-5.7742,-5.7857,-5.6445,-5.3895,-5.1048,-4.7971,-4.5124,-4.2431,-3.9977,-3.8584,-3.7315,-3.6192,-3.5692,-3.4654,0.0,0.0,0.0,0.0,0.0,0.0,0.0,0.0,-3.0292,0.0,0.0,0.0,0.0,0.0,-2.9937,-2.9822,-2.9755,-3.0236,-3.0957,-3.1853,-3.2723,0.0,0.0,-3.5775,-3.7683,-3.9019,-4.0157,0.0,0.0,0.0,-4.9297,-5.2894,-5.5941,-5.8877,-6.1924,-6.3062,-6.3906,-6.4751,-6.4383,0.0,0.0,0.0,0.0,0.0,0.0,0.0,-6.163,-6.1117,-6.0713,-6.0419,-5.9905,-5.9515,-5.9184,-5.8694,-5.8437,-5.8437,-5.8437,-5.829,-5.7997,-5.7997,-5.7997,-5.7997,-5.7997,-5.7997,-5.7997,-5.7997,-5.7997,-5.7997,-5.7997,-5.7997,-5.7997,-5.7997,-5.7997,-5.7997,0.0,0.0,0.0,0.0,0.0,0.0,0.0,0.0,0.0,0.0,0.0,0.0,0.0,0.0,0.0,0.0,0.0,0.0,0.0,-3.7661,-3.9277,-4.2085,-4.4124,-4.6787,-5.0212,-5.1933,-5.4308,-5.7423,-5.8819,-5.8511,-5.656,-5.4241,-5.151,-4.8394,-4.5547,-4.3047,-4.0777,-3.8815,-3.7507,-3.6615,-3.5808,-3.4462,0.0,0.0,0.0,0.0,0.0,0.0,0.0,0.0,0.0,0.0,0.0,0.0,0.0,0.0,0.0,-2.9972,-3.0127,-3.065,-3.1507,-3.2966,0.0,0.0,-3.7162,-3.882,-4.0671,-4.2286,-4.3461,0.0,-4.7058,0.0,0.0,0.0,-5.7593,-6.0138,0.0,0.0,0.0,0.0,0.0,0.0,0.0,0.0,0.0,0.0,0.0,0.0,0.0,-6.0309,-5.9905,-5.9648,-5.9134,-5.8841,-5.8841,-5.829,-5.7997,-5.7997,-5.7997,-5.7997,-5.7997,-5.7997,-5.7997,-5.7997,-5.7997,-5.7997,-5.7997,-5.7997,-5.7997,-5.7997,-5.7997,-5.7997,-5.7997,-5.7997,-5.7997,-5.7997,0.0,0.0,0.0,0.0,0.0,0.0,0.0,0.0,0.0,0.0,0.0,0.0,0.0,0.0,0.0,0.0,0.0,0.0,-3.7892,-3.8007,-3.9508,-4.2931,-4.3855,-4.5893,-4.9317,-5.1048,-5.4,-5.828,-5.9088,-5.8165,-5.5626,-5.3972,-5.1818,-4.924,-4.5855,-4.3393,-4.1654,-3.9084,-3.7507,-3.6654,-3.5846,-3.4462,-3.2891,0.0,0.0,0.0,0.0,0.0,0.0,0.0,-3.031,0.0,0.0,0.0,0.0,0.0,-3.0106,-3.0165,-3.0844,-3.1474,-3.2262,0.0,0.0,0.0,-4.1789,-4.2947,-4.4029,-4.5626,0.0,-4.8857,-5.0545,-5.1499,0.0,-5.7373,-5.8694,-6.0382,0.0,0.0,0.0,0.0,0.0,0.0,0.0,0.0,0.0,0.0,0.0,0.0,0.0,-5.9184,-5.8841,-5.8033,-5.7997,-5.7997,-5.7997,-5.7997,-5.7997,-5.7997,-5.7997,-5.7997,-5.7997,-5.7997,-5.7997,-5.7997,-5.7997,-5.7997,-5.7997,-5.7997,-5.7997,-5.7997,-5.7997,-5.7997,-5.7997,-5.7997,-5.7997,-5.7997,0.0,0.0,0.0,0.0,0.0,0.0,0.0,0.0,0.0,0.0,0.0,0.0,0.0,0.0,0.0,0.0,0.0,0.0,-3.7892,-3.8007,-3.9238,-4.2047,-4.3547,-4.5355,-4.7586,-5.1048,-5.401,-5.6472,-5.6703,-5.5857,-5.3933,-5.2818,-5.0923,-4.8432,-4.6817,-4.4855,-4.2547,-4.0008,-3.8392,-3.7507,-3.6077,-3.4462,-3.2891,0.0,0.0,0.0,0.0,0.0,0.0,0.0,0.0,0.0,0.0,0.0,0.0,0.0,-3.1394,-3.1707,-3.1817,-3.2687,0.0,-3.5349,0.0,0.0,0.0,-4.5883,0.0,0.0,-5.1426,-5.2087,-5.3151,0.0,0.0,-5.8364,-5.9538,-6.1006,0.0,0.0,0.0,0.0,0.0,0.0,0.0,0.0,0.0,0.0,0.0,0.0,0.0,-5.8657,-5.8253,-5.7997,-5.7997,-5.7997,-5.7997,-5.7997,-5.7997,-5.7997,-5.7997,-5.7997,-5.7997,-5.7997,-5.7997,-5.7997,-5.7997,-5.7997,-5.7997,-5.7997,-5.7997,-5.7997,-5.7997,-5.7997,-5.7997,-5.7997,-5.7997,-5.7997,0.0,0.0,0.0,0.0,0.0,0.0,0.0,0.0,0.0,0.0,-3.55,-3.55,0.0,0.0,0.0,0.0,0.0,0.0,0.0,0.0,-3.9123,-4.1692,-4.2777,-4.4278,-4.6355,-4.9856,-5.201,-5.2664,-5.4049,-5.3857,-5.2202,-5.1664,-5.024,-4.8048,-4.7269,-4.547,-4.2931,-4.0392,-3.8815,-3.7853,-3.6154,-3.4462,-3.2891,0.0,0.0,0.0,0.0,0.0,0.0,0.0,0.0,0.0,0.0,0.0,0.0,-3.1482,-3.1903,-3.2504,-3.2934,0.0,0.0,0.0,-4.0231,-4.3769,-4.8252,0.0,0.0,0.0,0.0,-5.5354,-5.6161,-5.6712,0.0,-5.9832,-6.0566,-6.152,-6.3319,0.0,0.0,0.0,0.0,0.0,0.0,0.0,0.0,0.0,0.0,0.0,0.0,-5.8253,-5.785,-5.7519,-5.7519,-5.7373,-5.7042,-5.7042,-5.7042,-5.7042,-5.7042,-5.7042,-5.7079,-5.7703,-5.7997,-5.7997,-5.7997,-5.7997,-5.7997,-5.7997,-5.7997,-5.7997,-5.7997,-5.7997,-5.7997,-5.7997,-5.7997,-5.7997,0.0,0.0,-3.0692,-3.166,0.0,0.0,0.0,0.0,0.0,0.0,-3.55,-3.55,0.0,0.0,0.0,0.0,0.0,0.0,0.0,0.0,-3.9084,-4.1585,-4.1769,-4.2931,-4.5325,-4.7702,-4.8509,-4.7625,-5.1125,-5.2049,-5.0481,-5.0481,-4.9586,-4.7971,-4.724,-4.547,-4.2931,-4.0469,-3.8854,-3.7853,-3.6154,-3.4462,-3.2891,-3.2891,0.0,0.0,0.0,0.0,0.0,0.0,0.0,0.0,0.0,0.0,0.0,-3.1568,-3.2099,-3.3006,-3.4169,0.0,0.0,0.0,0.0,0.0,-5.3004,0.0,-5.517,-5.6712,0.0,-5.8437,-5.9148,-5.9294,-5.9832,-6.1337,-6.1594,-6.1851,-6.2585,0.0,0.0,0.0,0.0,0.0,0.0,0.0,0.0,0.0,0.0,0.0,0.0,-5.7813,-5.7446,-5.6712,-5.6712,-5.6345,-5.5633,-5.5596,-5.5596,-5.5596,-5.5596,-5.5596,-5.5669,-5.7116,-5.7813,-5.7886,-5.7886,-5.7923,-5.7997,-5.7997,-5.7997,-5.7997,-5.7997,-5.7997,-5.7997,-5.7997,-5.7997,-5.7997,0.0,0.0,-3.0885,-3.2391,0.0,0.0,0.0,0.0,0.0,0.0,0.0,0.0,0.0,-3.55,0.0,0.0,0.0,0.0,0.0,0.0,-3.8815,-4.0708,-4.1431,-4.2393,-4.3624,-4.4778,-4.5009,-4.4162,-4.824,-4.9663,-4.8663,-4.8663,-4.8125,-4.7154,-4.6962,-4.547,-4.297,-4.1054,-3.9361,-3.7853,-3.6154,-3.4462,-3.2891,-3.2891,-3.1852,0.0,0.0,0.0,0.0,0.0,0.0,0.0,-3.0385,-3.138,-3.2541,-3.2371,-3.3702,-3.5237,0.0,-3.6652,0.0,0.0,0.0,0.0,0.0,0.0,-5.7483,-5.8487,-5.9318,-5.9942,-6.0126,-6.0162,-6.0456,-6.1447,-6.1594,-6.1667,0.0,0.0,0.0,0.0,0.0,0.0,0.0,0.0,0.0,0.0,0.0,0.0,-5.7079,-5.6455,-5.6014,-5.5868,-5.5868,-5.5757,-5.5596,-5.5596,-5.5596,0.0,-5.5596,-5.5596,-5.5633,-5.5963,-5.6455,-5.7079,-5.7079,-5.7409,-5.7997,-5.7997,-5.7997,-5.7997,-5.7997,-5.7997,-5.7997,-5.7997,-5.7997,-5.7997,0.0,0.0,0.0,0.0,0.0,0.0,0.0,0.0,0.0,0.0,0.0,0.0,0.0,-3.55,0.0,0.0,-3.55,0.0,0.0,0.0,-3.8738,-4.0439,-4.1316,-4.2,-4.247,-4.3316,-4.3508,-4.3085,-4.5701,-4.6932,-4.6894,-4.7317,-4.7308,-4.6885,-4.6471,-4.5086,-4.297,-4.0823,-3.9169,-3.7815,-3.5738,-3.4083,-3.2852,-3.2468,-3.15,-3.0385,-3.0385,0.0,0.0,0.0,0.0,0.0,0.0,0.0,-3.2757,-3.263,-3.3912,-3.5469,0.0,0.0,0.0,0.0,0.0,0.0,0.0,0.0,0.0,0.0,0.0,-6.0419,-6.0419,-6.0419,0.0,0.0,0.0,0.0,0.0,0.0,0.0,0.0,0.0,0.0,0.0,0.0,0.0,0.0,0.0,-5.6638,-5.6235,-5.5831,-5.5427,-5.5023,-5.5023,-5.484,-5.4436,-5.4436,-5.4436,-5.4436,-5.4436,-5.4436,-5.4473,-5.5244,-5.5831,-5.6235,-5.6638,-5.7042,-5.7446,-5.785,-5.7997,-5.7997,-5.7997,-5.7997,-5.7997,-5.7997,-5.7997,-5.7997,0.0,0.0,0.0,0.0,0.0,0.0,0.0,0.0,0.0,0.0,0.0,0.0,0.0,0.0,-3.55,0.0,0.0,0.0,0.0,-3.7661,-3.8854,-4.0246,-4.0969,-4.1431,-4.1585,-4.2162,-4.2508,-4.2662,-4.3624,-4.447,-4.521,-4.6201,-4.6701,-4.6624,-4.574,-4.4432,-4.2739,-4.0315,-3.87,-3.7584,-3.5167,-3.366,-3.2814,-3.2006,-3.1154,-3.0385,-3.0385,-3.0385,-3.0385,-3.0385,0.0,0.0,0.0,0.0,-3.2572,-3.2592,-3.3617,-3.5001,0.0,0.0,0.0,0.0,0.0,0.0,0.0,0.0,0.0,0.0,0.0,0.0,0.0,0.0,0.0,0.0,0.0,0.0,0.0,0.0,0.0,0.0,0.0,0.0,0.0,0.0,0.0,0.0,0.0,-5.6088,-5.5427,-5.5244,-5.4876,-5.4216,-5.4179,-5.3885,-5.3203,-5.3203,-5.3203,-5.3203,-5.3203,-5.3203,-5.324,-5.4583,-5.5244,-5.5427,-5.6088,-5.6455,-5.6675,-5.7446,-5.7776,-5.7813,-5.796,-5.7997,-5.7997,-5.7997,-5.7997,-5.7997,0.0,0.0,0.0,0.0,0.0,0.0,0.0,0.0,0.0,0.0,-3.55,-3.55,0.0,0.0,0.0,-3.55,-3.55,0.0,-3.6654,0.0,0.0,-3.9438,-3.9592,-3.9977,-4.0669,-4.0092,-4.0169,-4.0862,-4.247,-4.3316,-4.347,-4.5047,-4.5787,-4.5748,-4.4855,-4.3547,-4.1854,-4.0046,-3.8354,-3.6731,-3.493,-3.366,-3.2814,-3.2006,-3.1154,-3.0385,-3.0385,-3.0385,-3.0385,-3.0385,-3.0385,0.0,0.0,0.0,-3.1871,-3.2447,-3.3653,-3.5063,0.0,0.0,0.0,0.0,0.0,0.0,0.0,0.0,0.0,0.0,0.0,0.0,0.0,0.0,0.0,0.0,0.0,0.0,0.0,0.0,0.0,0.0,0.0,0.0,0.0,0.0,0.0,0.0,-5.5097,-5.4656,-5.4583,-5.3922,-5.3482,-5.3371,-5.3371,-5.3314,-5.3203,-5.3203,-5.3203,-5.3203,-5.3203,-5.3203,-5.3203,-5.3445,-5.3922,-5.4583,-5.4656,-5.5133,-5.5794,-5.6638,-5.6969,-5.7042,-5.774,-5.7997,-5.7997,-5.7997,-5.7997,-5.7997,0.0,0.0,0.0,0.0,0.0,0.0,0.0,0.0,0.0,0.0,0.0,-3.55,0.0,0.0,0.0,0.0,0.0,0.0,-3.6654,-3.743,0.0,0.0,-3.8584,-3.8738,-3.9084,-3.9246,-3.9477,-3.9823,-4.2047,-4.3085,-4.3124,-4.4825,-4.5594,-4.5556,-4.4201,-4.297,-4.1654,-3.9508,-3.7853,-3.65,-3.4353,-3.3545,-3.3468,-3.2199,-3.1737,-3.1814,-3.1814,-3.15,-3.1115,-3.1115,-3.0808,-3.0385,-3.0385,0.0,0.0,0.0,-3.2931,0.0,0.0,0.0,0.0,0.0,0.0,0.0,0.0,0.0,0.0,0.0,0.0,0.0,0.0,0.0,0.0,0.0,0.0,0.0,0.0,0.0,0.0,0.0,0.0,0.0,0.0,0.0,0.0,0.0,-5.4583,-5.4216,-5.3739,-5.3408,-5.3004,-5.2527,-5.2527,-5.2307,-5.1867,-5.1867,-5.1867,-5.1867,-5.1867,-5.2087,-5.2527,-5.2527,-5.2968,-5.3739,-5.4216,-5.4583,-5.4987,-5.5794,-5.6381,-5.6859,-5.7189,-5.7593,-5.7997,-5.7997,-5.7997,-5.7997,0.0,0.0,0.0,0.0,0.0,0.0,0.0,0.0,0.0,0.0,0.0,0.0,0.0,0.0,0.0,0.0,0.0,0.0,-3.6346,0.0,0.0,0.0,0.0,-3.7777,-3.8007,-3.843,-3.8854,-3.9284,0.0,0.0,-4.3124,-4.4586,-4.5287,-4.521,-4.3739,-4.2508,-4.1316,-3.9008,-3.7392,-3.6192,-3.4083,-3.3622,-3.4052,-3.2583,-3.2506,-3.3199,-3.2968,-3.266,-3.2314,-3.2083,-3.1423,-3.0731,-3.0731,-3.0996,0.0,0.0,0.0,0.0,0.0,0.0,0.0,0.0,0.0,0.0,0.0,0.0,0.0,0.0,0.0,0.0,0.0,0.0,0.0,0.0,0.0,0.0,0.0,0.0,0.0,0.0,0.0,0.0,0.0,0.0,0.0,0.0,-5.4106,-5.3739,-5.2931,-5.2894,-5.2527,-5.172,-5.1683,-5.1389,-5.0802,-5.0802,-5.0802,-5.0802,-5.0802,-5.1096,-5.1683,-5.1903,-5.2344,-5.2931,-5.3739,-5.4106,-5.4179,-5.495,-5.5647,-5.6235,-5.6418,-5.7005,-5.7703,-5.7703,-5.7813,-5.7997,0.0,0.0,0.0,0.0,0.0,0.0,0.0,0.0,0.0,0.0,0.0,0.0,0.0,-3.55,-3.55,-3.55,0.0,0.0,0.0,0.0,0.0,0.0,0.0,0.0,0.0,-3.7238,0.0,0.0,0.0,0.0,-4.3124,-4.397,-4.4355,-4.4316,-4.347,-4.2162,-4.0439,-3.8738,-3.7046,-3.5462,-3.4507,-3.4167,-3.409,-3.3199,-3.3391,-3.4013,-3.3199,-3.3391,-3.3936,-3.3122,-3.2314,-3.1621,-3.1621,-3.1059,-3.0516,0.0,0.0,0.0,0.0,0.0,0.0,0.0,0.0,0.0,0.0,0.0,0.0,0.0,0.0,0.0,0.0,0.0,0.0,0.0,0.0,0.0,0.0,0.0,0.0,0.0,0.0,0.0,0.0,0.0,0.0,0.0,-5.324,-5.2931,-5.2087,-5.205,-5.1683,-5.0875,-5.0875,-5.0839,-5.0802,-5.0802,-5.0802,-5.0802,-5.0802,-5.0839,-5.0875,-5.1646,-5.2013,-5.2087,-5.2931,-5.324,-5.3314,-5.4142,-5.4473,-5.4583,-5.5354,-5.6161,-5.6859,-5.6859,-5.7336,-5.7997,0.0,0.0,0.0,0.0,0.0,0.0,0.0,0.0,0.0,0.0,0.0,0.0,0.0,-3.55,-3.55,-3.55,-3.55,0.0,0.0,0.0,0.0,0.0,0.0,0.0,0.0,0.0,0.0,0.0,0.0,-4.0823,-4.1477,-4.2854,-4.3547,-4.3508,-4.3239,-4.1854,-3.9669,-3.8507,-3.7046,-3.5423,-3.4545,-3.4545,-3.5007,-3.4692,-3.5084,-3.5853,-3.6084,-3.6007,-3.5699,-3.4846,-3.3622,-3.2391,-3.1852,-3.1046,-3.0426,-3.1028,-3.2089,0.0,0.0,0.0,0.0,0.0,0.0,0.0,0.0,0.0,0.0,0.0,0.0,0.0,0.0,0.0,0.0,0.0,0.0,0.0,0.0,0.0,0.0,0.0,0.0,0.0,0.0,0.0,0.0,0.0,0.0,-5.2087,-5.1279,-5.1242,-5.0839,-5.0068,-5.0031,-4.9774,-4.9187,-4.9187,-4.9187,-4.9187,-4.9187,-4.9481,-5.0068,-5.0839,-5.1499,-5.205,-5.2858,-5.3203,-5.3203,-5.3518,-5.3922,-5.4436,-5.473,-5.5317,-5.6088,-5.6602,-5.6969,-5.7299,0.0,0.0,0.0,0.0,0.0,0.0,0.0,0.0,0.0,0.0,0.0,0.0,0.0,0.0,-3.6346,-3.6346,-3.6077,-3.5885,-3.5885,-3.5654,0.0,0.0,0.0,0.0,0.0,0.0,0.0,0.0,0.0,0.0,0.0,-4.1277,-4.1816,-4.1816,-4.1816,-4.0893,0.0,-3.8354,-3.7046,-3.5462,-3.5161,-3.5391,-3.5962,-3.6538,-3.7276,-3.8046,-3.8623,-3.8661,-3.8231,-3.7161,-3.5622,-3.3968,-3.2891,-3.1501,-3.0368,-3.0654,-3.1311,0.0,-3.3033,0.0,0.0,0.0,0.0,0.0,0.0,0.0,0.0,0.0,0.0,0.0,0.0,0.0,0.0,0.0,0.0,0.0,0.0,0.0,0.0,0.0,0.0,0.0,0.0,0.0,0.0,0.0,0.0,0.0,-5.0435,-5.0398,-5.0031,-4.9187,-4.8893,-4.86,-4.8306,-4.8049,-4.8049,-4.8306,-4.8306,-4.86,-4.9187,-4.9994,-5.0802,-5.1646,-5.2454,-5.2968,-5.3203,-5.3203,-5.3518,-5.3995,-5.3995,-5.4473,-5.5244,-5.5794,-5.6345,-5.6895,0.0,0.0,0.0,0.0,0.0,0.0,0.0,0.0,0.0,0.0,0.0,0.0,0.0,0.0,0.0,-3.8007,-3.7238,-3.6731,-3.6692,-3.5962,0.0,0.0,0.0,0.0,0.0,0.0,0.0,0.0,0.0,0.0,0.0,0.0,-3.9246,-3.9246,-3.9246,-3.9246,-3.9169,-3.8315,-3.7007,-3.5615,-3.6385,-3.6731,-3.6962,-3.8661,-3.9861,-4.0593,-4.0593,-4.1162,-4.1623,-3.9969,-3.8238,-3.6462,-3.4699,-3.2385,-3.0311,-3.0157,-3.0594,0.0,0.0,0.0,0.0,0.0,0.0,0.0,-3.8324,0.0,0.0,0.0,0.0,0.0,0.0,0.0,0.0,0.0,0.0,0.0,0.0,0.0,0.0,0.0,0.0,0.0,0.0,0.0,0.0,0.0,-5.0765,-5.0398,-4.961,-4.9537,-4.9133,-4.8269,-4.748,-4.7443,-4.8233,-4.7443,-4.748,-4.8269,-4.8269,-4.8269,-4.8343,-4.915,-4.9994,-5.0839,-5.1646,-5.2454,-5.3203,-5.3203,-5.3203,-5.3203,-5.3203,-5.3702,-5.4363,-5.4399,-5.539,-5.6785,0.0,0.0,0.0,0.0,0.0,0.0,0.0,0.0,0.0,0.0,0.0,0.0,-3.7623,-3.7853,-3.8007,-3.8007,-3.7777,-3.7353,-3.6731,-3.65,-3.6115,-3.5538,0.0,0.0,0.0,0.0,0.0,0.0,0.0,0.0,0.0,0.0,0.0,0.0,-3.8354,-3.8007,-3.7392,-3.7161,-3.6769,-3.6385,-3.6615,-3.7469,-3.87,-3.9746,-4.1093,-4.247,-4.3047,-4.3393,-4.3431,-4.2393,-4.0508,-3.7969,-3.4364,-3.2346,-3.1085,-3.0379,-3.0338,-3.0607,-3.1096,0.0,0.0,0.0,0.0,0.0,-3.5338,-3.7477,-3.9706,0.0,0.0,0.0,0.0,0.0,0.0,0.0,0.0,0.0,0.0,0.0,0.0,0.0,0.0,0.0,0.0,0.0,0.0,0.0,-4.9941,-4.9554,-4.871,-4.8122,-4.7425,-4.6581,-4.6361,-4.6324,-4.6544,-4.6361,-4.6654,-4.7443,-4.7443,-4.7736,-4.8343,-4.9187,-4.9994,-5.0839,-5.1646,-5.2454,-5.3203,-5.3203,-5.3203,-5.3203,-5.3203,-5.3314,-5.3592,-5.4179,-5.506,-5.6014,0.0,0.0,0.0,0.0,0.0,0.0,0.0,0.0,0.0,0.0,0.0,0.0,-4.0046,-4.0123,-3.9969,-3.9623,-3.9238,-3.8661,-3.7853,-3.743,-3.6885,-3.6038,0.0,0.0,0.0,0.0,0.0,0.0,0.0,0.0,0.0,0.0,0.0,0.0,-3.6969,-3.6654,-3.6231,-3.6577,0.0,0.0,-3.7853,-3.8892,-4.0015,-4.1901,-4.3247,-4.4355,-4.5893,-4.6201,-4.5817,-4.5355,-4.2777,-3.9161,-3.5602,-3.3403,-3.1975,-3.1066,-3.0509,-3.0343,-3.0779,-3.0875,-3.0982,-3.1587,0.0,0.0,-3.4006,-3.5762,-3.7662,0.0,0.0,0.0,0.0,0.0,0.0,0.0,0.0,0.0,0.0,0.0,0.0,0.0,0.0,0.0,0.0,-5.0251,-4.9774,-4.8636,-4.8563,-4.8196,-4.7352,-4.6874,-4.6397,-4.592,-4.5553,-4.5553,-4.5883,-4.5553,-4.5993,-4.7113,-4.7113,-4.7516,-4.8343,-4.882,-4.9517,-5.0325,-5.1132,-5.1977,-5.2747,-5.3078,-5.3203,-5.3203,-5.3203,-5.3203,-5.324,-5.3739,-5.462,-5.5647,0.0,0.0,-3.2122,-3.3045,0.0,0.0,0.0,0.0,0.0,0.0,0.0,0.0,-4.3047,-4.3239,-4.2931,-4.2162,-4.1277,-4.04,-3.9477,-3.87,0.0,0.0,0.0,0.0,0.0,0.0,0.0,0.0,0.0,0.0,0.0,0.0,0.0,0.0,-3.55,-3.55,-3.5577,-3.6462,0.0,-3.7199,-3.9554,-4.0669,0.0,-4.4402,-4.5825,-4.6479,-4.874,-4.9086,-4.8471,-4.8086,-4.4778,-4.0323,-3.77,-3.5161,-3.3,-3.2013,-3.12,-3.0573,-3.058,-3.0521,-3.0615,-3.1122,-3.1761,0.0,-3.3697,-3.4594,-3.5726,-3.786,0.0,0.0,0.0,0.0,0.0,0.0,0.0,0.0,0.0,0.0,0.0,0.0,0.0,0.0,-4.928,-4.9114,-4.8526,-4.7076,-4.6966,-4.6599,-4.581,-4.5773,-4.5736,-4.5626,-4.4929,-4.4929,-4.5626,-4.4929,-4.5351,-4.6966,-4.6966,-4.7406,-4.8306,-4.8306,-4.8783,-4.9647,-5.0435,-5.1242,-5.205,-5.2858,-5.3203,-5.3203,-5.3203,-5.3203,-5.3203,-5.3203,-5.4216,-5.5596,-3.1308,-3.2083,-3.316,-3.4731,0.0,0.0,0.0,0.0,0.0,0.0,0.0,0.0,-4.4047,-4.4085,-4.4008,-4.3816,-4.3047,-4.1931,-4.0362,-4.0092,0.0,0.0,0.0,0.0,0.0,0.0,0.0,0.0,0.0,0.0,0.0,0.0,0.0,0.0,-3.55,-3.55,-3.5615,0.0,0.0,-3.8892,-4.0054,-4.1747,-4.3701,-4.5094,-4.7326,-4.9788,-5.0289,-5.0741,-5.0731,-4.8038,-4.5124,-4.2047,-3.8777,-3.6469,-3.4692,-3.3115,-3.2538,-3.2378,-3.2372,-3.2358,-3.2314,-3.2294,-3.2776,0.0,-3.328,-3.429,-3.5339,0.0,0.0,0.0,0.0,0.0,0.0,0.0,0.0,0.0,0.0,0.0,0.0,0.0,0.0,0.0,-4.6617,-4.6617,-4.6471,-4.6177,-4.614,-4.5773,-4.5002,-4.4929,-4.4635,-4.3992,-4.3845,-4.3791,-4.3975,-4.3791,-4.4525,-4.614,-4.614,-4.6911,-4.8306,-4.8306,-4.8783,-4.9647,-5.0435,-5.1242,-5.205,-5.2858,-5.3203,-5.3203,-5.3203,-5.3203,-5.3203,-5.3203,-5.4216,-5.5596,-3.1545,-3.2352,-3.3468,-3.5192,0.0,0.0,0.0,0.0,0.0,0.0,0.0,0.0,0.0,-4.724,-4.7124,-4.6278,0.0,0.0,0.0,0.0,0.0,0.0,0.0,0.0,0.0,0.0,0.0,0.0,0.0,0.0,0.0,0.0,0.0,0.0,0.0,0.0,0.0,0.0,-3.8507,-3.9438,-4.1123,0.0,-4.5094,-4.6355,-4.8432,-5.0827,-5.1664,-5.2202,-5.2154,-4.9625,-4.7086,0.0,-4.147,-3.9084,-3.6969,-3.4814,-3.3891,-3.3468,-3.3026,-3.2864,-3.2742,-3.2591,-3.3042,0.0,0.0,-3.3277,-3.4002,-3.382,0.0,0.0,0.0,0.0,0.0,0.0,0.0,0.0,0.0,0.0,0.0,0.0,0.0,0.0,-4.5883,-4.5553,-4.4966,-4.4158,-4.4085,-4.3938,-4.3534,-4.3864,-4.3901,-4.3497,-4.3515,-4.3515,-4.3515,-4.3515,-4.4322,-4.5883,-4.5883,-4.6728,-4.8306,-4.8306,-4.8526,-4.9003,-4.9848,-5.0655,-5.1463,-5.227,-5.2858,-5.3203,-5.3203,-5.3203,-5.3203,-5.3203,-5.4216,-5.5596,-3.1737,-3.2468,-3.3545,-3.5615,0.0,0.0,0.0,0.0,0.0,0.0,0.0,0.0,0.0,-5.0894,-5.0856,-4.9471,-4.9048,0.0,-4.5432,-4.4355,0.0,0.0,0.0,-3.8854,0.0,0.0,0.0,0.0,0.0,0.0,0.0,0.0,0.0,0.0,0.0,0.0,0.0,0.0,0.0,-3.9969,0.0,-4.4201,-4.6009,-4.7548,-4.9394,-5.1395,-5.3087,-5.3587,-5.3203,-5.151,-4.9356,-4.6932,-4.4201,-4.1816,0.0,0.0,0.0,0.0,0.0,0.0,0.0,0.0,-3.3487,-3.3521,0.0,0.0,0.0,0.0,0.0,0.0,0.0,0.0,0.0,0.0,0.0,0.0,0.0,0.0,0.0,0.0,0.0,0.0,0.0,-4.4415,-4.3443,-4.2176,-4.2066,-4.2139,-4.2286,-4.291,-4.3314,-4.3515,-4.3515,-4.3515,-4.3515,-4.3662,-4.4452,-4.5883,-4.6067,-4.6911,-4.8306,-4.8306,-4.8306,-4.8343,-4.9243,-5.0068,-5.0875,-5.1683,-5.2454,-5.3203,-5.3203,-5.3203,-5.3203,-5.3203,-5.4216,-5.5596,-3.2468,-3.2852,-3.393,-3.7161,0.0,0.0,0.0,0.0,0.0,0.0,0.0,0.0,-5.2664,-5.3549,-5.3972,-5.378,-5.2356,-5.0692,-4.8933,-4.7355,0.0,0.0,0.0,0.0,-4.0054,0.0,0.0,0.0,0.0,0.0,0.0,0.0,-3.55,-3.55,-3.55,0.0,0.0,0.0,-3.9354,0.0,-4.2662,-4.4586,0.0,-4.7778,-5.0087,-5.3126,-5.4818,-5.4972,-5.4087,0.0,-5.0587,-4.8548,0.0,-4.347,-4.2162,-3.9623,0.0,0.0,0.0,0.0,0.0,0.0,-3.5306,-3.4572,0.0,0.0,-3.2847,-3.271,0.0,0.0,0.0,0.0,0.0,0.0,0.0,0.0,0.0,0.0,0.0,0.0,0.0,0.0,0.0,-4.1572,-4.1425,-4.1242,-4.1242,-4.1535,-4.2249,-4.2396,-4.2763,-4.3478,-4.3515,-4.3515,-4.3515,-4.4195,-4.5002,-4.592,-4.6599,-4.7406,-4.8306,-4.8306,-4.8306,-4.8343,-4.9243,-5.0068,-5.0875,-5.1683,-5.2454,-5.3203,-5.3203,-5.3203,-5.3203,-5.3203,-5.4216,-5.5596,-3.2776,-3.2891,-3.3968,-3.7392,0.0,0.0,0.0,0.0,0.0,0.0,0.0,0.0,-5.6703,-5.8088,-5.8704,-5.8204,-5.7011,-5.5203,-5.251,-5.0317,0.0,0.0,0.0,-4.2016,0.0,0.0,0.0,0.0,-3.6346,0.0,0.0,0.0,-3.55,-3.5538,-3.6,0.0,-3.6808,0.0,-4.0354,0.0,0.0,0.0,0.0,-4.7971,-5.024,-5.3433,-5.5088,-5.5164,-5.4318,0.0,-5.1548,0.0,0.0,0.0,0.0,-4.2085,0.0,0.0,0.0,0.0,0.0,0.0,0.0,0.0,-3.4603,0.0,-3.2711,0.0,0.0,0.0,0.0,0.0,0.0,0.0,-3.2706,0.0,0.0,0.0,0.0,0.0,0.0,0.0,0.0,0.0,0.0,0.0,-3.9203,-3.9848,-4.0194,-4.1552,-4.2433,-4.28,-4.324,-4.3718,-4.4195,-4.4525,-4.5333,-4.6599,-4.6929,-4.7516,-4.8306,-4.8306,-4.8306,-4.8343,-4.8673,-4.9591,-5.0839,-5.1169,-5.205,-5.3203,-5.3203,-5.3203,-5.3203,-5.3203,-5.4216,-5.5596,-3.3199,-3.3276,-3.416,0.0,0.0,0.0,0.0,0.0,0.0,0.0,0.0,-5.8781,-6.0704,-6.2435,-6.332,-6.2935,-6.1897,-6.0012,-5.7088,-5.4318,-5.1548,-4.874,-4.674,-4.4509,-4.1939,0.0,0.0,0.0,0.0,0.0,0.0,0.0,0.0,-3.5538,0.0,-3.6846,-3.7199,0.0,-4.1123,-4.2354,-4.4662,-4.674,-4.8548,-4.924,-5.1048,-5.3433,-5.5088,-5.5318,-5.4703,-5.3857,-5.2741,0.0,-4.9433,0.0,-4.6633,0.0,0.0,0.0,-4.0995,0.0,0.0,0.0,0.0,0.0,0.0,0.0,0.0,0.0,0.0,0.0,0.0,0.0,0.0,0.0,0.0,-3.1347,0.0,0.0,0.0,0.0,0.0,0.0,0.0,0.0,0.0,-3.5973,-3.7037,-3.7976,-3.8652,-4.0561,-4.1846,-4.2286,-4.3057,-4.3901,-4.4691,-4.4929,-4.5718,-4.7113,-4.7333,-4.7736,-4.8306,-4.8306,-4.8306,-4.8306,-4.8563,-4.9481,-5.0839,-5.1059,-5.194,-5.3203,-5.3203,-5.3203,-5.3203,-5.3203,-5.4216,-5.5596,-3.3975,-3.4167,0.0,0.0,0.0,0.0,0.0,0.0,0.0,-5.5164,-5.855,-6.1627,-6.4166,-6.5936,-6.7282,-6.809,-6.6667,-6.4936,-6.3115,-5.9896,-5.6549,-5.3164,-5.0587,-4.8048,-4.5479,-4.3008,0.0,0.0,0.0,0.0,0.0,0.0,0.0,0.0,0.0,-3.7161,-3.8084,-3.9785,-4.1477,-4.3201,-4.4902,-4.7095,-4.9625,0.0,-5.3087,-5.3433,-5.5088,0.0,0.0,-5.4741,-5.4434,0.0,0.0,0.0,0.0,0.0,0.0,0.0,0.0,0.0,0.0,-4.0653,0.0,0.0,0.0,0.0,-3.4409,0.0,0.0,0.0,0.0,0.0,0.0,0.0,0.0,0.0,0.0,0.0,0.0,0.0,0.0,0.0,0.0,0.0,0.0,-3.5004,-3.5078,-3.6178,-3.8579,-3.9496,-4.0671,-4.2249,-4.3057,-4.3901,-4.4691,-4.548,-4.6287,-4.7113,-4.7902,-4.8269,-4.8306,-4.8306,-4.8306,-4.8343,-4.9206,-5.0031,-5.0875,-5.1646,-5.2454,-5.3203,-5.3203,-5.3203,-5.3203,-5.3203,-5.4216,-5.5596,-3.4359,-3.4661,-3.5584,-3.7276,-3.7815,-3.9892,0.0,-4.9317,-5.3126,-5.7627,-6.1204,-6.4705,-6.8359,-7.0321,-7.1668,-7.2514,-7.1052,-6.909,-6.6808,-6.3512,-6.0089,-5.6742,-5.4126,-5.1318,-4.8163,-4.6201,-4.3932,0.0,0.0,0.0,0.0,0.0,0.0,0.0,0.0,-3.7738,0.0,0.0,0.0,0.0,0.0,-4.8471,-5.0471,0.0,-5.3203,-5.3433,-5.5088,-5.5703,0.0,-5.478,-5.4511,-5.4241,-5.2818,-5.1972,-5.1318,-5.0462,-4.9433,0.0,0.0,0.0,-4.5054,-4.3273,0.0,0.0,0.0,0.0,0.0,0.0,0.0,0.0,0.0,0.0,0.0,0.0,0.0,0.0,0.0,0.0,0.0,0.0,0.0,0.0,0.0,0.0,0.0,-3.2596,-3.3587,-3.4578,-3.5422,-3.7771,-3.9606,-4.0671,-4.1992,-4.3351,-4.4709,-4.5516,-4.6324,-4.7113,-4.7939,-4.8306,-4.8306,-4.8306,-4.8306,-4.8343,-4.9243,-5.0068,-5.0875,-5.1683,-5.2454,-5.3203,-5.3203,-5.3203,-5.3203,-5.3203,-5.4216,-5.5757,-3.5776,-3.6007,-3.6615,-3.7392,-3.8815,-4.1508,-4.6547,-5.0702,-5.4972,-5.9781,-6.3935,-6.8013,-7.2245,-7.4245,-7.563,-7.6438,-7.4976,-7.3053,-7.0783,-6.7475,-6.4089,-6.0704,-5.8088,-5.5011,-5.1279,-4.9279,-4.674,-4.3615,0.0,-3.9815,0.0,0.0,0.0,0.0,0.0,-3.77,-3.82,-4.1316,-4.2816,0.0,0.0,-4.9125,0.0,0.0,-5.3203,-5.3433,0.0,-5.5703,-5.5626,-5.5088,-5.4934,-5.478,-5.3933,-5.328,-5.2769,-5.2462,-5.1587,-5.0538,-4.9711,-4.8808,0.0,-4.5947,-4.4786,0.0,-4.2952,0.0,-3.986,0.0,0.0,0.0,0.0,0.0,0.0,0.0,0.0,0.0,0.0,-2.8987,0.0,0.0,0.0,0.0,0.0,0.0,-3.0687,-3.0944,-3.2192,-3.3183,0.0,0.0,-3.8652,-3.946,-4.1295,-4.2947,-4.4268,-4.5076,-4.603,-4.7113,-4.7626,-4.7993,-4.8306,-4.8306,-4.8489,-4.882,-4.9664,-5.0472,-5.1279,-5.2087,-5.2747,-5.3203,-5.3203,-5.3203,-5.3203,-5.3518,-5.4656,-5.6198,-3.8007,-3.8084,-3.7892,-3.7154,-4.0469,-4.4355,-4.774,-5.2549,-5.7357,-6.1716,-6.6705,-7.1437,-7.5668,-7.763,-7.8977,-7.9862,-7.8438,-7.6746,-7.4938,-7.1745,-6.8436,-6.5013,-6.2397,-5.9088,-5.4895,-5.2241,-4.9625,-4.7,0.0,0.0,0.0,0.0,0.0,0.0,-3.6385,0.0,-3.8161,-4.0739,-4.2393,-4.3585,-4.6817,-4.9125,-5.0866,-5.2549,-5.3203,-5.3433,-5.5088,-5.5703,-5.5703,-5.5703,-5.5703,-5.5549,-5.478,-5.4549,-5.4395,-5.3587,-5.3318,-5.3087,-5.2231,-5.1403,-5.0335,-4.8683,0.0,0.0,0.0,0.0,-4.2813,0.0,0.0,0.0,0.0,0.0,0.0,0.0,0.0,0.0,0.0,0.0,0.0,0.0,0.0,0.0,0.0,-2.8987,-2.9317,-3.0099,-3.087,0.0,0.0,0.0,-3.7713,-3.8615,-4.0891,-4.2543,-4.3441,-4.4232,-4.5425,-4.6966,-4.7076,-4.748,-4.8233,-4.8269,-4.8783,-4.9647,-5.0435,-5.1242,-5.205,-5.2858,-5.3203,-5.3203,-5.3203,-5.324,-5.3408,-5.4179,-5.5464,-5.6932,-3.8238,-3.9008,-4.0208,-4.1277,-4.3393,-4.6095,-4.951,-5.4357,-5.9396,-6.4282,-6.8783,-7.3168,-7.74,-7.94,-8.0746,-8.1593,-8.0708,-7.9131,-7.6784,-7.463,-7.1898,-6.8552,-6.5936,-6.2897,-5.9242,-5.5472,-5.1972,-4.8779,-4.5316,0.0,-4.0169,0.0,0.0,0.0,0.0,0.0,-3.8161,-4.0739,-4.3385,-4.6047,-4.7509,-4.9125,-5.0866,0.0,-5.3203,-5.3433,-5.5088,-5.5703,-5.5703,-5.5703,-5.5703,-5.5665,-5.5472,-5.5395,-5.5357,-5.5126,-5.4626,-5.4126,-5.3895,-5.3192,-5.2259,-5.1182,-5.0709,-5.0169,0.0,0.0,0.0,0.0,0.0,0.0,0.0,0.0,0.0,0.0,0.0,0.0,0.0,0.0,0.0,-2.9953,0.0,-2.9647,-2.906,-2.8987,-2.9097,-2.928,-3.0063,0.0,0.0,0.0,0.0,-3.7749,-3.8982,-4.0598,-4.258,-4.3424,-4.4305,-4.5315,-4.6526,-4.7223,-4.7443,-4.8049,-4.8783,-4.9647,-5.0435,-5.1242,-5.205,-5.2858,-5.3203,-5.3203,-5.3203,-5.3922,-5.4987,-5.5207,-5.5941,-5.6932,-4.0392,-4.1277,-4.2701,-4.447,-4.674,-4.924,-5.1933,-5.6357,-6.1358,-6.6821,-7.0898,-7.4899,-7.9169,-8.0823,-8.1823,-8.2247,-8.1554,-8.0323,-7.8515,-7.6438,-7.4091,-7.1475,-6.8552,-6.5397,-6.1973,-5.8127,-5.4472,-5.1048,-4.7625,0.0,-4.1585,0.0,0.0,0.0,0.0,-3.82,0.0,-4.1277,-4.4316,-4.7471,-4.7932,-4.9356,0.0,-5.2702,-5.3433,-5.3933,-5.5241,-5.5703,-5.5703,-5.5703,-5.5703,-5.5703,-5.5703,-5.5703,-5.5703,-5.5703,-5.5395,-5.5011,-5.5011,-5.4395,-5.3664,-5.3164,-5.2759,-5.22,-5.1239,-5.0274,-4.9324,0.0,-4.6541,-4.4561,0.0,0.0,0.0,0.0,0.0,0.0,0.0,0.0,0.0,0.0,-3.0723,-3.054,-3.0099,-2.9427,-2.8987,-2.8987,-2.9757,0.0,0.0,0.0,0.0,-3.6905,-3.8102,-3.968,-4.1772,-4.258,-4.3571,-4.4728,-4.5993,-4.6746,-4.7149,-4.8343,-4.9334,-5.0178,-5.0986,-5.1793,-5.2564,-5.3004,-5.3203,-5.3203,-5.3592,-5.473,-5.6124,-5.6124,-5.6638,-5.7409,-4.3431,-4.4162,-4.5355,-4.7086,-5.0154,-5.3115,-5.5318,-5.8973,-6.3512,-6.9283,-7.2937,-7.6592,-8.0669,-8.1823,-8.2285,-8.2285,-8.167,-8.0823,-7.9862,-7.763,-7.5592,-7.3899,-7.0667,-6.7359,-6.4038,-6.0589,-5.7088,-5.3549,0.0,0.0,0.0,0.0,0.0,0.0,0.0,0.0,0.0,-4.2354,-4.5163,-4.7971,-4.8317,-4.9817,-5.2,-5.301,-5.3857,-5.4626,-5.5395,-5.5703,-5.5703,-5.5703,-5.5703,-5.5703,-5.5703,-5.5703,-5.5703,-5.5703,-5.5703,-5.5703,-5.5703,-5.5203,-5.4664,-5.4664,-5.4087,-5.351,-5.3395,-5.2777,-5.1945,-5.0944,-4.9134,-4.7175,0.0,0.0,0.0,0.0,0.0,0.0,0.0,0.0,0.0,0.0,0.0,0.0,-3.1433,-3.0063,-2.917,-2.917,0.0,0.0,0.0,0.0,0.0,-3.6229,-3.7661,-3.9276,-4.1058,0.0,-4.302,-4.4709,-4.5516,-4.6324,-4.7149,-4.882,-5.0051,-5.0839,-5.1646,-5.2454,-5.3203,-5.3203,-5.324,-5.3445,-5.4363,-5.5574,-5.6822,-5.6932,-5.7409,-5.7997,-4.5278,-4.6394,-4.7971,-4.974,-5.2818,-5.6549,-6.1089,-6.3628,-6.6628,-7.1168,-7.4745,-7.7938,-8.0785,-8.1823,-8.2285,-8.2285,-8.217,-8.1439,-7.99,-7.8707,-7.7323,-7.563,-7.2976,-7.0283,-6.759,-6.3512,-5.9396,-5.5241,0.0,0.0,0.0,0.0,0.0,0.0,0.0,0.0,-4.1546,-4.4085,0.0,-4.7278,-4.9394,-5.0894,-5.2077,-5.3664,-5.4357,-5.4626,-5.5395,-5.5703,-5.5703,-5.5703,-5.5703,-5.5703,-5.5703,-5.5703,-5.5703,-5.5703,-5.5703,-5.5703,-5.5703,-5.5588,-5.5472,-5.5472,-5.5395,-5.5088,-5.4434,-5.4133,-5.3673,-5.2667,-5.0924,-4.9136,-4.7867,0.0,0.0,0.0,0.0,0.0,0.0,0.0,0.0,0.0,0.0,-3.2852,-3.1544,-3.054,-2.9989,0.0,0.0,0.0,0.0,0.0,0.0,0.0,-3.656,0.0,0.0,0.0,-4.2453,-4.4709,-4.5516,-4.6324,-4.7149,-4.882,-5.0051,-5.0839,-5.1646,-5.2454,-5.3203,-5.3203,-5.3592,-5.4326,-5.5831,-5.6565,-5.6895,-5.7556,-5.7886,-5.7997,-4.8856,-4.9894,-5.1433,-5.3598,-5.6406,-5.9896,0.0,-6.7475,-7.036,-7.3745,-7.6015,-7.8284,-8.0823,-8.1439,-8.167,-8.167,-8.167,-8.1323,-8.0516,-7.9246,-7.7938,-7.6746,-7.3783,-7.1014,-6.8462,-6.4666,-6.0858,-5.7049,0.0,0.0,0.0,0.0,0.0,0.0,0.0,-4.22,0.0,0.0,0.0,-4.8971,-5.0212,-5.1702,-5.3356,-5.4164,-5.4741,-5.5164,-5.5549,-5.5703,-5.5703,-5.5703,-5.5703,-5.5703,-5.5703,-5.5703,-5.5703,-5.5703,-5.5703,-5.5703,-5.5703,-5.5703,-5.5703,-5.5703,-5.5703,-5.5588,-5.5203,-5.5115,-5.4803,-5.387,-5.2853,-5.1471,-4.9286,-4.5619,0.0,0.0,0.0,0.0,0.0,0.0,-3.6464,0.0,0.0,0.0,0.0,0.0,0.0,0.0,0.0,0.0,0.0,0.0,0.0,0.0,0.0,0.0,0.0,0.0,0.0,-4.4691,-4.5938,-4.6929,-4.7773,-4.9444,-5.0655,-5.1463,-5.227,-5.2858,-5.3203,-5.3665,-5.4546,-5.5721,-5.6492,-5.7079,-5.7483,-5.785,-5.7997,-5.7997,-5.3154,-5.4087,-5.5549,-5.7934,-6.0435,-6.3551,-6.7821,-7.0898,-7.3591,-7.5976,-7.7169,-7.8669,-8.0862,-8.1093,-8.1093,-8.1093,-8.1093,-8.1016,-8.0823,-7.9361,-7.813,-7.7323,-7.4207,-7.136,-6.8975,-6.559,-6.2127,-5.855,0.0,0.0,0.0,0.0,0.0,0.0,0.0,0.0,0.0,0.0,-4.8326,-5.0971,-5.1366,-5.2702,-5.4511,-5.4703,-5.5164,-5.5703,-5.5703,-5.5703,-5.5703,-5.5703,-5.5703,-5.5703,-5.5703,-5.5703,-5.5703,-5.5703,-5.5703,-5.5703,-5.5703,-5.5703,-5.5703,-5.5703,-5.5703,-5.5703,-5.5703,-5.5703,-5.55,-5.4792,-5.4364,-5.3123,-5.0084,-4.7237,0.0,0.0,0.0,0.0,0.0,0.0,-3.7713,0.0,0.0,0.0,-3.5041,0.0,0.0,0.0,0.0,0.0,0.0,0.0,0.0,0.0,0.0,-3.7845,-4.1058,0.0,-4.3204,-4.4966,-4.6599,-4.7773,-4.8636,-5.0288,-5.1389,-5.205,-5.2858,-5.3298,-5.3555,-5.4509,-5.5647,-5.6822,-5.7005,-5.7446,-5.7997,-5.7997,-5.7997,-5.7997,-5.7703,-5.8973,0.0,0.0,0.0,-6.7936,-7.2245,-7.3783,-7.513,-7.6938,-7.8554,-7.9977,-8.0977,-8.1093,-8.1093,-8.1093,-8.1093,-8.0746,-7.9977,-7.9015,-7.813,-7.7323,-7.4784,-7.2552,-7.0706,-6.7359,-6.3589,0.0,0.0,-5.2626,0.0,0.0,0.0,0.0,0.0,0.0,0.0,-4.9548,-5.0818,-5.1923,-5.351,-5.428,-5.4587,-5.5318,-5.5626,-5.5703,-5.5703,-5.5703,-5.5703,-5.5703,-5.5703,-5.5703,-5.5703,-5.5703,-5.5703,-5.5703,-5.5703,-5.5703,-5.5703,-5.5703,-5.5703,-5.5703,-5.5703,-5.5703,-5.5703,-5.5703,-5.5654,-5.5511,-5.47,-5.3161,-5.0375,-4.9338,-4.8062,0.0,0.0,0.0,0.0,0.0,-3.9386,-3.8579,0.0,0.0,-3.5078,-3.3463,0.0,0.0,-2.9879,0.0,0.0,0.0,0.0,-3.6193,0.0,-3.7845,-4.1058,-4.1919,-4.3461,-4.581,-4.7425,-4.8636,-4.9537,-5.1132,-5.194,-5.205,-5.2858,-5.3628,-5.4399,-5.5941,-5.6675,-5.6859,-5.7593,-5.7923,-5.7997,-5.7997,-5.7997,-5.7997,0.0,0.0,0.0,0.0,0.0,0.0,0.0,-7.5784,-7.74,-7.8631,-7.94,-8.0131,-8.1016,-8.1093,-8.1093,-8.1093,-8.1093,-8.0746,-7.9862,-7.8977,-7.813,-7.7323,-7.4861,-7.2668,-7.0937,-6.809,-6.4782,0.0,0.0,0.0,0.0,0.0,0.0,0.0,0.0,-4.9125,-5.0423,-5.1125,-5.2202,-5.351,-5.4203,-5.478,-5.5241,-5.5588,-5.5703,-5.5703,-5.5703,-5.5703,-5.5703,-5.5703,-5.5703,-5.5703,-5.5703,-5.5703,-5.5703,-5.5703,-5.5703,-5.5703,-5.5703,-5.5703,-5.5703,-5.5703,-5.5703,-5.5703,-5.5703,-5.5703,-5.5703,-5.5682,-5.4856,-5.3772,-5.242,-5.0752,-4.9123,0.0,0.0,0.0,0.0,0.0,0.0,-3.957,0.0,-3.6156,0.0,0.0,0.0,0.0,0.0,0.0,0.0,0.0,0.0,-3.6193,0.0,-3.8322,-4.1058,-4.2856,-4.4709,-4.6636,-4.8306,-4.9774,-5.1079,-5.1683,-5.2527,-5.3482,-5.4289,-5.5097,-5.5904,-5.6528,-5.7079,-5.7556,-5.7886,-5.7997,-5.7997,-5.7997,-5.7997,-5.7997,-6.7128,0.0,-6.8783,0.0,-7.2552,-7.4245,-7.5938,-7.7746,-7.9208,-8.0092,-8.0169,-8.0439,-8.1016,-8.1093,-8.1093,-8.1093,-8.1093,-8.0631,-7.9477,-7.8823,-7.8015,-7.6938,-7.4707,0.0,-7.1321,-6.8513,-6.5551,-6.2435,-5.9896,0.0,0.0,0.0,0.0,0.0,-5.051,-5.1318,-5.2654,-5.2654,-5.351,-5.4857,-5.4857,-5.5203,-5.5703,-5.5703,-5.5703,-5.5703,-5.5703,-5.5703,-5.5703,-5.5703,-5.5703,-5.5703,-5.5703,-5.5703,-5.5703,-5.5703,-5.5703,-5.5703,-5.5703,-5.5703,-5.5703,-5.5703,-5.5703,-5.5703,-5.5703,-5.5703,-5.5703,-5.5703,-5.5143,-5.447,-5.3884,-5.1883,-5.0115,-4.9399,0.0,0.0,0.0,-4.3314,0.0,-4.0451,-3.8322,-3.6927,-3.667,-3.4835,0.0,0.0,0.0,0.0,0.0,0.0,0.0,0.0,0.0,0.0,0.0,-4.359,-4.5608,-4.748,-4.915,-5.0802,-5.238,-5.2821,-5.3665,-5.4803,-5.5611,-5.6271,-5.6822,-5.7079,-5.7483,-5.7997,-5.7997,-5.7997,-5.7997,-5.7997,-5.7997,-5.7997,-7.0821,-7.2245,-7.3668,-7.4514,-7.6092,-7.7784,-7.9477,-7.9746,-8.0092,-8.0977,-8.1093,-8.1093,-8.1093,-8.1093,-8.1093,-8.1093,-8.1093,-8.0362,-7.8631,-7.8515,-7.7746,0.0,0.0,-7.3091,-7.2206,-6.8821,-6.5859,-6.3269,0.0,0.0,-5.5665,0.0,-5.3164,-5.3164,-5.3164,-5.3626,-5.4472,-5.4472,-5.4934,-5.5703,-5.5703,-5.5703,-5.5703,-5.5703,-5.5703,-5.5703,-5.5703,-5.5703,-5.5703,-5.5703,-5.5703,-5.5703,-5.5703,-5.5703,-5.5703,-5.5703,-5.5703,-5.5703,-5.5703,-5.5703,-5.5703,-5.5703,-5.5703,-5.5703,-5.5703,-5.5703,-5.5703,-5.5703,-5.552,-5.5084,-5.4078,-5.2778,-5.1506,-5.0382,0.0,0.0,0.0,-4.4488,0.0,-4.1279,-3.9664,-3.8358,-3.7566,-3.6743,0.0,0.0,0.0,0.0,0.0,0.0,0.0,-3.6229,-3.7845,0.0,-4.2249,-4.3901,-4.5902,-4.8306,-4.9994,-5.1646,-5.3261,-5.484,-5.5596,-5.5633,-5.6455,-5.6785,-5.6859,-5.7666,-5.7997,-5.7997,-5.7997,-5.7997,-5.7997,-5.7997,-5.7997,-5.7997,-7.513,-7.5707,-7.6322,-7.713,-7.8246,-7.9169,-7.9708,-8.0285,-8.0785,-8.1054,-8.1093,-8.1093,-8.1093,-8.1093,-8.1093,0.0,-8.0554,-7.9746,0.0,-7.7977,-7.7169,-7.6053,-7.4399,-7.3091,-7.2206,-6.9436,-6.7013,-6.5051,0.0,0.0,0.0,-5.606,-5.578,-5.578,-5.578,-5.628,-5.7049,-5.6472,-5.6368,-5.6522,-5.5934,-5.5703,-5.5703,-5.5703,-5.5703,-5.5703,-5.5703,-5.5703,-5.5703,-5.5703,-5.5703,-5.5703,-5.5703,-5.5703,-5.5703,-5.5703,-5.5703,-5.5703,-5.5703,-5.5703,-5.5703,-5.5703,-5.5703,-5.5703,-5.5703,-5.5703,-5.5703,-5.5703,-5.5593,-5.5324,-5.488,-5.3348,-5.1955,-5.1265,-4.9594,0.0,-4.6248,0.0,-4.3603,-4.1368,-3.9664,-3.8395,-3.7566,-3.7272,0.0,0.0,0.0,0.0,0.0,0.0,0.0,0.0,-3.8946,0.0,-4.3094,-4.5259,-4.7315,-4.9206,-5.1389,-5.3298,-5.4876,-5.5941,-5.6418,-5.6455,-5.7262,-5.7629,-5.7629,-5.7886,-5.7997,-5.7997,-5.7997,-5.7997,-5.7997,-5.7997,-5.7997,-5.807,-7.763,-7.8015,-7.84,-7.89,-7.9708,-8.0285,-8.0285,-8.0746,-8.1093,-8.1093,-8.1093,-8.1093,-8.1093,-8.1093,0.0,-8.1093,-8.0285,-7.9438,-7.8554,-7.7746,-7.6899,-7.6053,-7.4399,-7.3245,-7.2706,-6.986,0.0,-6.6359,-6.3178,-6.0523,-5.8407,-5.778,-5.7473,-5.7473,-5.7473,-5.778,-5.828,-5.7703,-5.7473,-5.7396,-5.6549,-5.6214,-5.6126,-5.5818,-5.5703,-5.5703,-5.5703,-5.5703,-5.5742,-5.6088,-5.6214,-5.6242,-5.6549,-5.6665,-5.6549,-5.5895,-5.5703,-5.578,-5.6088,-5.6214,-5.628,-5.6588,-5.6665,-5.6588,-5.6242,-5.5934,-5.5703,-5.5703,-5.5554,-5.5401,-5.5249,-5.3594,-5.2107,-5.1774,-5.0104,-4.8247,-4.6411,0.0,-4.441,0.0,0.0,0.0,0.0,-3.9129,-3.9276,0.0,0.0,0.0,0.0,0.0,0.0,-3.957,-4.0671,0.0,-4.4819,-4.6636,-4.871,-5.0986,-5.3408,-5.5097,-5.6088,-5.6895,-5.7262,-5.7299,-5.7776,-5.7997,-5.7997,-5.7997,-5.7997,-5.7997,-5.7997,-5.7997,-5.7997,-5.7997,-5.818,-5.851,-7.8669,-7.9323,-7.99,0.0,-8.0554,0.0,-8.1093,-8.1093,-8.1093,-8.1093,-8.1093,-8.1093,-8.1093,-8.1093,-8.1093,-8.1016,0.0,0.0,0.0,-7.7669,-7.6861,-7.6053,-7.4399,-7.3514,-7.3514,-7.0154,-6.7936,-6.6936,-6.2974,-6.1012,-6.0858,-5.9281,-5.855,-5.8473,-5.8473,-5.8473,-5.8473,-5.8396,-5.8396,-5.8319,-5.7434,-5.7099,-5.7022,-5.6203,-5.5895,-5.5895,-5.5895,-5.5895,-5.6011,-5.683,-5.7099,-5.7253,-5.805,-5.8319,-5.7973,-5.6357,-5.5895,-5.6049,-5.6868,-5.7099,-5.728,-5.8088,-5.8319,-5.8088,-5.7291,-5.6406,-5.578,-5.578,-5.5608,-5.5376,-5.5339,-5.357,-5.2107,-5.1936,-5.026,-4.8298,-4.6552,-4.6246,-4.5273,0.0,0.0,0.0,0.0,-4.1992,-4.247,0.0,0.0,0.0,0.0,0.0,-4.0708,-4.1389,-4.2873,-4.4819,-4.7223,-4.8122,-5.0215,-5.346,-5.5721,-5.6822,-5.6932,-5.7666,-5.7997,-5.7997,-5.7997,-5.7997,-5.7997,-5.7997,-5.7997,-5.7997,-5.7997,-5.8033,-5.807,-5.807,-5.8584,-5.9294,0.0,0.0,-8.0785,-8.0785,-8.0977,-8.1093,-8.1093,-8.1093,-8.1093,-8.1093,-8.1093,-8.1093,-8.1093,-8.1093,-8.0823,-8.0169,-7.9323,-7.8438,-7.763,-7.6784,-7.6207,-7.6015,-7.4399,-7.3514,-7.3514,-7.0154,-6.7359,-6.5205,-6.4205,-6.3051,-6.1793,-6.1408,-6.0858,-6.0204,-6.0204,-6.0204,-6.0165,-5.9511,-5.9204,-5.9127,-5.8319,-5.7973,-5.7973,-5.7742,-5.7665,-5.7665,-5.7665,-5.7665,-5.7703,-5.7934,-5.7973,-5.805,-5.8242,-5.8319,-5.8204,-5.7819,-5.7665,-5.7742,-5.7934,-5.7973,-5.805,-5.8242,-5.8319,-5.8242,-5.805,-5.7319,-5.6676,-5.6676,-5.606,-5.5508,-5.5488,-5.3875,-5.2496,-5.2323,-5.0575,-4.8819,-4.7516,-4.7216,-4.6375,0.0,-4.4104,-4.3828,-4.302,-4.3681,-4.4104,0.0,0.0,0.0,0.0,-4.5718,-4.5205,-4.4782,-4.5112,-4.6471,-4.8893,-5.0398,-5.2747,-5.5941,-5.6528,-5.7116,-5.7703,-5.7923,-5.7997,-5.7997,-5.7997,-5.7997,-5.7997,-5.7997,-5.7997,-5.7997,-5.7997,-5.84,-5.8914,-5.8914,-5.9428,-6.0199,-8.1093,-8.1093,-8.1093,-8.1093,-8.1093,-8.1093,-8.1093,-8.1093,-8.1093,-8.1093,-8.1093,-8.1093,-8.1093,-8.1093,-8.0746,-7.99,-7.9015,-7.8169,-7.7361,-7.6476,-7.6015,-7.6015,-7.4399,-7.3514,-7.3514,-7.0552,-6.7936,-6.5743,-6.4974,-6.4128,-6.3243,-6.2447,-6.187,-6.1358,-6.0973,-6.0781,-6.0781,-6.0281,-6.0089,-6.0012,-5.9165,-5.8858,-5.8819,-5.8434,-5.8319,-5.8319,-5.8319,-5.8319,-5.8357,-5.8704,-5.8858,-5.8934,-5.9319,-5.9435,-5.9435,-5.9435,-5.8896,-5.8396,-5.8742,-5.8858,-5.8934,-5.9358,-5.9127,-5.8858,-5.8858,-5.8204,-5.7473,-5.7099,-5.6582,-5.6065,-5.5573,-5.3962,-5.2615,-5.2437,-5.0719,-4.9005,-4.786,-4.7527,0.0,-4.5424,-4.5259,-4.5223,-4.5149,-4.5883,-4.6507,-4.6911,-4.7682,0.0,-4.8783,-4.8764,-4.8416,-4.7572,-4.7939,-4.9114,-5.1169,-5.3188,-5.506,-5.6822,-5.7189,-5.7593,-5.7997,-5.7997,-5.7997,-5.7997,-5.7997,-5.7997,-5.7997,-5.7997,-5.8217,-5.8547,-5.8547,-5.9061,-5.9758,-5.9758,-6.0272,-6.1006,-8.1093,-8.1093,-8.1093,-8.1093,-8.1093,-8.1093,-8.1093,-8.1093,-8.1093,-8.1093,-8.1093,-8.1093,-8.1093,-8.1093,-8.0746,-7.99,-7.9015,-7.8169,-7.7361,-7.6476,-7.6015,-7.6015,-7.4399,-7.3514,-7.3514,-7.086,-6.8706,-6.709,-6.5551,-6.4743,-6.4589,-6.3128,-6.2332,-6.2062,-6.132,-6.0935,-6.0781,-6.0781,-6.0781,-6.0742,-5.9973,-5.9704,-5.9627,-5.8934,-5.8665,-5.8665,-5.8665,-5.8665,-5.8781,-5.9473,-5.9704,-5.9819,-6.055,-6.0781,-6.0781,-6.0781,-5.9781,-5.8819,-5.9511,-5.9704,-5.9858,-6.0627,-6.0242,-5.9704,-5.9704,-5.9088,-5.828,-5.7522,-5.7132,-5.6652,-5.5853,-5.4166,-5.278,-5.2489,-5.0809,-4.9177,-4.8029,0.0,-4.7297,-4.6526,-4.6471,-4.6764,-4.759,-4.8306,-4.8967,-4.9721,-5.0398,-5.0912,-5.1169,-5.1169,-5.0949,-5.0435,-5.0912,-5.2013,-5.3717,-5.5794,-5.6859,-5.7005,-5.7666,-5.7997,-5.7997,-5.7997,-5.7997,-5.7997,-5.7997,-5.807,-5.818,-5.818,-5.8657,-5.9368,-5.9368,-5.9869,-6.0566,-6.0566,-6.108,-6.1777,-8.1093,-8.1093,-8.1093,-8.1093,-8.1093,-8.1093,-8.1093,-8.1093,-8.1093,-8.1093,-8.1093,-8.1093,-8.1093,-8.1093,-8.0746,-7.99,-7.9015,-7.8169,-7.7361,-7.6476,-7.6015,-7.6015,-7.4399,-7.3514,-7.3514,-7.0283,-6.8129,-6.709,-6.6167,-6.532,-6.4589,-6.432,-6.3474,-6.2101,-6.1947,-6.1473,-6.0781,-6.0781,-6.0781,-6.0781,-6.0666,-6.0589,-6.0589,-6.0473,-6.0396,-6.0396,-6.0396,-6.0396,-6.0435,-6.055,-6.0589,-6.0627,-6.0742,-6.0781,-6.0781,-6.0781,-6.0627,-6.0435,-6.055,-6.0589,-6.0627,-6.0781,-6.0704,-6.0589,-6.0589,-5.9935,-5.9281,-5.9127,-5.7973,-5.6912,-5.6729,-5.5107,-5.3493,-5.2648,-5.1262,-4.9936,-4.8867,0.0,-4.8512,-4.8949,-4.9023,-4.9334,-5.0141,-5.0362,-5.0472,-5.0618,-5.0729,-5.1389,-5.2747,-5.2858,-5.3408,-5.462,-5.3482,-5.3922,-5.6235,-5.6602,-5.7152,-5.7813,-5.7923,-5.7997,-5.7997,-5.7997,-5.7997,-5.7997,-5.7997,-5.84,-5.9001,-5.9001,-5.9478,-6.0236,-6.0236,-6.0713,-6.141,-6.141,-6.1924,-6.2622,-8.1093,-8.1093,-8.1093,-8.1093,-8.1093,-8.1093,-8.1093,-8.1093,-8.1093,-8.1093,-8.1093,-8.1093,-8.1093,-8.1093,-8.0939,-8.0554,-7.9708,-7.8823,-7.7977,-7.6707,-7.6015,-7.6015,-7.4399,-7.3053,-7.2129,-7.0129,-6.8667,-6.7782,-6.6974,-6.6128,-6.5282,-6.482,-6.4205,-6.3435,-6.2974,-6.2512,-6.2127,-6.1666,-6.1512,-6.1447,-6.0973,-6.0781,-6.0781,-6.0781,-6.0781,-6.0781,-6.0781,-6.0781,-6.0781,-6.0781,-6.0781,-6.0781,-6.0781,-6.0781,-6.0781,-6.0781,-6.0781,-6.0781,-6.0781,-6.0781,-6.0781,-6.0781,-6.0781,-6.0781,-6.0781,-6.0473,-6.0089,-5.9588,-5.8873,-5.7981,-5.6992,-5.5568,-5.4172,-5.3066,-5.1834,0.0,0.0,-4.9897,-4.9909,-5.0198,-5.0251,-5.0545,-5.1353,-5.183,-5.227,-5.2711,-5.3151,-5.3702,-5.4436,-5.4473,-5.5023,-5.6198,-5.5537,-5.5904,-5.7446,-5.7446,-5.7629,-5.7997,-5.7997,-5.8217,-5.8657,-5.8657,-5.8877,-5.9281,-5.9281,-5.9501,-5.9869,-5.9869,-6.0309,-6.1043,-6.1043,-6.1557,-6.2254,-6.2254,-6.2475,-6.2879,-8.1093,-8.1093,-8.1093,-8.1093,-8.1093,-8.1093,-8.1093,-8.1093,-8.1093,-8.1093,-8.1093,-8.1093,-8.1093,-8.1093,-8.1093,-8.1093,-8.0285,-7.9438,-7.8554,-7.713,-7.6207,-7.6015,-7.4399,-7.2668,-7.0937,-7.0129,-6.936,-6.8706,-6.7628,-6.6782,-6.6167,-6.5282,-6.4782,-6.4589,-6.3897,-6.3512,-6.3281,-6.2627,-6.2358,-6.232,-6.1666,-6.1396,-6.1396,-6.1396,-6.1281,-6.1089,-6.1089,-6.1089,-6.1089,-6.1089,-6.1243,-6.1396,-6.1396,-6.1396,-6.1396,-6.1396,-6.1396,-6.1281,-6.0896,-6.0781,-6.0781,-6.0781,-6.0781,-6.0781,-6.0781,-6.0781,-6.0589,-5.9935,-5.958,-5.8959,-5.7532,-5.6175,-5.4874,-5.372,0.0,0.0,0.0,-5.0946,-5.0939,-5.1079,-5.1242,-5.1683,-5.2491,-5.3298,-5.3995,-5.462,-5.5244,-5.5706,-5.5868,-5.5868,-5.6235,-5.7042,-5.7079,-5.7373,-5.7997,-5.7997,-5.8107,-5.829,-5.829,-5.8694,-5.9478,-5.9478,-5.9808,-6.0419,-6.0419,-6.0529,-6.0676,-6.0676,-6.1153,-6.1887,-6.1887,-6.2365,-6.3099,-6.3099,-6.3246,-6.3503,-8.1093,-8.1093,-8.1093,-8.1093,-8.1093,-8.1093,-8.1093,-8.1093,-8.1093,-8.1093,-8.1093,-8.1093,-8.1093,-8.1093,-8.1093,-8.1093,-8.0285,-7.9438,-7.8554,-7.7669,-7.6823,-7.6053,-7.4399,-7.2668,-7.0937,-7.0129,-6.9667,-6.959,-6.7936,-6.7051,-6.6974,-6.6167,-6.5359,-6.4589,-6.4551,-6.4051,-6.3308,-6.3243,-6.3205,-6.3205,-6.3115,-6.3128,-6.3128,-6.3128,-6.2666,-6.1985,-6.1985,-6.1985,-6.1985,-6.1985,-6.2512,-6.3128,-6.3128,-6.3128,-6.3128,-6.3128,-6.3128,-6.2781,-6.1204,-6.0781,-6.0781,-6.0781,-6.0781,-6.0781,-6.0781,-6.0781,-6.0781,-6.0704,-6.0003,-5.9305,-5.9064,-5.742,-5.5746,-5.4587,0.0,0.0,-5.1229,-5.0983,-5.1143,-5.1814,-5.2564,-5.3335,-5.4142,-5.495,-5.5427,-5.55,-5.5596,-5.5941,-5.6675,-5.6712,-5.7079,-5.7886,-5.7923,-5.7923,-5.7997,-5.7997,-5.8364,-5.9111,-5.9111,-5.9515,-6.0309,-6.0309,-6.0346,-6.0419,-6.0419,-6.0823,-6.152,-6.152,-6.1998,-6.2732,-6.2732,-6.3246,-6.398,-6.398,-6.4494,-6.5118,-8.1093,-8.1093,-8.1093,-8.1093,-8.1093,-8.1093,-8.1093,-8.1093,-8.1093,-8.1093,-8.1093,-8.1093,-8.1093,-8.1093,-8.1093,-8.1093,-8.0785,-8.0246,-7.9361,-7.8515,-7.7169,-7.5284,-7.413,-7.2937,-7.1745,-7.086,-7.0206,-6.9706,-6.9052,-6.8167,-6.709,-6.6782,-6.6205,-6.5397,-6.5397,-6.5205,-6.4897,-6.4359,-6.4128,-6.4051,-6.3512,-6.3308,-6.3308,-6.3308,-6.3128,-6.2858,-6.2858,-6.2858,-6.2858,-6.2858,-6.3051,-6.3308,-6.3308,-6.3308,-6.3308,-6.3308,-6.3308,-6.3166,-6.2512,-6.2358,-6.2243,-6.1743,-6.1601,-6.1447,-6.0935,-6.0781,-6.0781,-6.0781,-6.0428,-5.9945,-5.9319,-5.8382,-5.7315,-5.6246,0.0,-5.4781,-5.4169,-5.399,-5.4034,-5.4201,-5.4509,-5.4803,-5.5097,-5.5868,-5.6345,-5.6345,-5.6822,-5.7226,-5.7519,-5.7556,-5.7666,-5.7997,-5.7997,-5.7997,-5.7997,-5.851,-5.8914,-5.9184,-5.9698,-6.0382,-6.1153,-6.1153,-6.141,-6.1887,-6.1887,-6.2071,-6.2401,-6.2915,-6.3319,-6.3649,-6.4163,-6.4567,-6.4861,-6.4861,-6.5044,-6.5375,-8.1093,-8.1093,-8.1093,-8.1093,-8.1093,-8.1093,-8.1093,-8.1093,-8.1093,-8.1093,-8.1093,-8.1093,-8.1093,-8.1093,-8.1093,-8.1093,-8.1093,-8.0746,-7.9862,-7.8746,-7.7092,-7.4822,-7.4168,-7.336,-7.2206,-7.1591,-7.0898,-7.009,-6.9821,-6.909,-6.7898,-6.7359,-6.6821,-6.6282,-6.6013,-6.5897,-6.5859,-6.5243,-6.5013,-6.4974,-6.4359,-6.4128,-6.4128,-6.4128,-6.3935,-6.3705,-6.3705,-6.3705,-6.3705,-6.3705,-6.3897,-6.4166,-6.4397,-6.4666,-6.4859,-6.4589,-6.4474,-6.4436,-6.4205,-6.4128,-6.3858,-6.2743,-6.2474,-6.232,-6.1704,-6.1589,-6.1512,-6.1243,-6.112,-6.0751,-5.9805,-5.915,-5.847,-5.7645,-5.6944,-5.6405,-5.6047,-5.5918,-5.5748,-5.5596,-5.5794,-5.5978,-5.5978,-5.6712,-5.7189,-5.7189,-5.7703,-5.7997,-5.7997,-5.8253,-5.84,-5.84,-5.8621,-5.8731,-5.8731,-5.9038,-5.9441,-5.9979,-6.0529,-6.119,-6.1998,-6.1998,-6.2438,-6.3209,-6.3209,-6.3356,-6.3624,-6.4237,-6.4494,-6.453,-6.5081,-6.5448,-6.5705,-6.5705,-6.5852,-6.6145,-8.1093,-8.1093,-8.1093,-8.1093,-8.1093,-8.1093,-8.1093,-8.1093,-8.1093,-8.1093,-8.1093,-8.1093,-8.1093,-8.1093,-8.1093,-8.1093,-8.1093,-8.0746,-7.9862,-7.8246,-7.6515,-7.4822,-7.4707,-7.3937,-7.2245,-7.2206,-7.1783,-7.0898,-7.009,-6.9706,-6.9667,-6.7936,-6.7128,-6.709,-6.6282,-6.5897,-6.5897,-6.5897,-6.5897,-6.5897,-6.5897,-6.5897,-6.5897,-6.5897,-6.5397,-6.4628,-6.4628,-6.4628,-6.4628,-6.4628,-6.5205,-6.6051,-6.6859,-6.7705,-6.8244,-6.7359,-6.709,-6.6936,-6.6128,-6.5897,-6.5513,-6.3743,-6.3308,-6.3308,-6.3308,-6.3308,-6.3089,-6.2293,-6.2041,-6.1735,-6.0789,-5.9723,-5.8939,-5.866,-5.7616,-5.6667,-5.6288,-5.6064,-5.5834,-5.5655,-5.6308,-5.6822,-5.6822,-5.7519,-5.7997,-5.7997,-5.8033,-5.8033,-5.8033,-5.8804,-5.9184,-5.9184,-5.9979,-6.0419,-6.0419,-5.9625,-6.0015,-6.1594,-6.1594,-6.2034,-6.278,-6.278,-6.3282,-6.409,-6.409,-6.4567,-6.5301,-6.5301,-6.5301,-6.5301,-6.5338,-6.5815,-6.6512,-6.6512,-6.699,-6.7687,-8.1093,-8.1093,-8.1093,-8.1093,-8.1093,-8.1093,-8.1093,-8.1093,-8.1093,-8.1093,-8.1093,-8.1093,-8.1093,-8.1093,-8.1093,-8.1093,-8.1093,-8.0746,-7.9862,-7.8746,-7.7669,-7.6553,-7.5361,-7.4476,-7.3976,-7.2783,-7.2052,-7.1822,-7.0975,-7.0244,-6.9706,-6.9167,-6.859,-6.8013,-6.7782,-6.7667,-6.7667,-6.7667,-6.7667,-6.7667,-6.7667,-6.7667,-6.7667,-6.7667,-6.7513,-6.7282,-6.7282,-6.7282,-6.7282,-6.7282,-6.7436,-6.7705,-6.7936,-6.8205,-6.8359,-6.809,-6.8013,-6.7975,-6.7705,-6.7667,-6.709,-6.4782,-6.4205,-6.4051,-6.3435,-6.3308,-6.3243,-6.2974,-6.2886,-6.2759,-6.2465,-6.1565,-6.0728,-6.0463,-5.942,-5.8484,-5.8036,-5.7804,-5.7567,-5.7308,-5.7483,-5.7629,-5.7629,-5.785,-5.8217,-5.8804,-5.9391,-5.9685,-5.9685,-5.9905,-6.0052,-6.0052,-6.0272,-6.0676,-6.1227,-6.1006,-6.1117,-6.1594,-6.2181,-6.2879,-6.3723,-6.3723,-6.4163,-6.4934,-6.4934,-6.5081,-6.5338,-6.5925,-6.6145,-6.6219,-6.6769,-6.7136,-6.732,-6.732,-6.7467,-6.776,-8.1093,-8.1093,-8.1093,-8.1093,-8.1093,-8.1093,-8.1093,-8.1093,-8.1093,-8.1093,-8.1093,-8.1093,-8.1093,-8.1093,-8.1093,-8.1093,-8.1093,-8.0746,-7.9862,-7.9323,-7.8631,-7.7823,-7.6476,-7.5399,-7.4707,-7.3707,-7.3014,-7.2706,-7.1822,-7.1168,-7.0667,-7.0014,-6.9436,-6.8898,-6.8552,-6.8385,-6.8385,-6.8385,-6.8385,-6.8385,-6.8385,-6.8385,-6.8385,-6.8385,-6.8385,-6.8385,-6.8385,-6.8385,-6.8385,-6.8385,-6.8615,-6.8898,-6.8898,-6.9129,-6.9321,-6.9013,-6.8898,-6.8859,-6.8513,-6.8385,-6.8052,-6.6513,-6.5859,-6.5359,-6.4512,-6.432,-6.4243,-6.3897,-6.3783,-6.3642,-6.3297,-6.2629,-6.2075,-6.1827,-6.0946,-6.0172,-5.9789,-5.9449,-5.9218,-5.8974,-5.8951,-5.8951,-5.8951,-5.8951,-5.9171,-5.9648,-6.0126,-6.0419,-6.0419,-6.0713,-6.086,-6.086,-6.119,-6.1594,-6.2071,-6.2401,-6.2401,-6.2071,-6.2915,-6.3576,-6.409,-6.442,-6.5007,-6.5778,-6.5778,-6.5962,-6.6292,-6.6769,-6.6953,-6.7026,-6.7504,-6.7687,-6.7724,-6.8054,-6.8164,-6.8274,-8.1093,-8.1093,-8.1093,-8.1093,-8.1093,-8.1093,-8.1093,-8.1093,-8.1093,-8.1093,-8.1093,-8.1093,-8.1093,-8.1093,-8.1093,-8.1093,-8.1093,-8.0746,-7.9977,-7.9862,-7.9438,-7.8631,-7.7823,-7.663,-7.4976,-7.4784,-7.4361,-7.363,-7.2745,-7.2322,-7.2283,-7.0744,-7.0052,-7.0014,-6.9206,-6.8821,-6.8744,-6.8744,-6.8706,-6.8615,-6.8615,-6.8615,-6.8615,-6.8615,-6.8615,-6.8615,-6.8615,-6.8667,-6.8744,-6.8821,-6.9398,-7.0052,-7.0052,-7.0475,-7.086,-7.0129,-6.986,-6.9629,-6.8859,-6.8615,-6.8629,-6.8552,-6.7936,-6.7128,-6.632,-6.6128,-6.5859,-6.5013,-6.482,-6.4551,-6.3705,-6.3309,-6.3026,-6.2826,-6.2173,-6.1614,-6.1326,-6.087,-6.0562,-6.0419,-6.0419,-6.0419,-6.0419,-6.0456,-6.0529,-6.0529,-6.0566,-6.0603,-6.0603,-6.1374,-6.1814,-6.1814,-6.2622,-6.3,-6.3,-6.3796,-6.3759,-6.2952,-6.3796,-6.4237,-6.4347,-6.5081,-6.5852,-6.6623,-6.6623,-6.7026,-6.7687,-6.7687,-6.7687,-6.7714,-6.776,-6.7797,-6.7907,-6.8715,-6.9009,-6.9119,-8.1093,-8.1093,-8.1093,-8.1093,-8.1093,-8.1093,-8.1093,-8.1093,-8.1093,-8.1093,-8.1093,-8.1093,-8.1093,-8.1093,-8.1093,-8.1093,-8.1093,-8.1016,-8.0823,-8.0169,-7.9708,-7.9515,-7.8707,-7.7746,-7.6746,-7.5399,-7.463,-7.4437,-7.363,-7.3206,-7.3206,-7.286,-7.2668,-7.2668,-7.2476,-7.2014,-7.136,-7.136,-7.0975,-7.036,-7.036,-7.036,-7.036,-7.036,-7.036,-7.036,-7.036,-7.0783,-7.1475,-7.2168,-7.2514,-7.2668,-7.2668,-7.2322,-7.186,-7.1706,-7.1168,-7.0591,-7.0398,-7.036,-7.0206,-6.959,-6.9283,-6.8898,-6.8052,-6.7859,-6.7628,-6.6744,-6.6551,-6.632,-6.5474,-6.4575,-6.3853,-6.3588,-6.2516,-6.1556,-6.1199,-6.0839,-6.0562,-6.0419,-6.0419,-6.0419,-6.0419,-6.097,-6.1337,-6.1337,-6.1924,-6.2291,-6.2291,-6.3099,-6.3539,-6.3539,-6.4347,-6.4787,-6.4787,-6.4971,-6.464,-6.3833,-6.464,-6.5375,-6.5999,-6.6145,-6.6659,-6.743,-6.743,-6.754,-6.7687,-6.7687,-6.7687,-6.776,-6.8385,-6.8641,-6.8752,-6.9522,-6.9853,-6.9963,-8.1093,-8.1093,-8.1093,-8.1093,-8.1093,-8.1093,-8.1093,-8.1093,-8.1093,-8.1093,-8.1093,-8.1093,-8.1093,-8.1093,-8.1093,-8.1093,-8.1093,-8.1093,-8.1093,-8.0669,-8.0439,-8.0439,-7.9592,-7.89,-7.8515,-7.7207,-7.613,-7.5322,-7.4476,-7.4091,-7.4053,-7.3668,-7.3514,-7.3514,-7.3514,-7.3245,-7.2822,-7.2822,-7.2552,-7.2129,-7.2129,-7.2129,-7.2129,-7.2129,-7.2129,-7.2129,-7.2129,-7.2437,-7.2899,-7.336,-7.3514,-7.3514,-7.3514,-7.3206,-7.2822,-7.2822,-7.2514,-7.2129,-7.2129,-7.2129,-7.1937,-7.1091,-7.0898,-7.0437,-6.8783,-6.8385,-6.8282,-6.7821,-6.7705,-6.759,-6.7167,-6.6493,-6.5917,-6.5667,-6.4406,-6.3375,-6.2991,-6.2336,-6.1774,-6.1678,-6.1654,-6.163,-6.1557,-6.2291,-6.2768,-6.2768,-6.3539,-6.3991,-6.3991,-6.442,-6.4677,-6.4677,-6.5081,-6.5301,-6.5301,-6.5705,-6.5668,-6.5228,-6.5668,-6.6109,-6.6512,-6.688,-6.7504,-6.8274,-6.8274,-6.8495,-6.8825,-6.8825,-6.8825,-6.8898,-6.9302,-6.9486,-6.9559,-7.0367,-7.0945,-7.1397,-8.1093,-8.1093,-8.1093,-8.1093,-8.1093,-8.1093,-8.1093,-8.1093,-8.1093,-8.1093,-8.1093,-8.1093,-8.1093,-8.1093,-8.1093,-8.1093,-8.1093,-8.1093,-8.1093,-8.1093,-8.1093,-8.1093,-8.04,-7.9939,-7.9823,-7.9092,-7.7977,-7.6438,-7.5553,-7.513,-7.513,-7.4322,-7.3937,-7.3937,-7.3937,-7.386,-7.3707,-7.3707,-7.363,-7.3514,-7.3514,-7.3514,-7.3514,-7.3514,-7.3514,-7.3514,-7.3514,-7.3591,-7.3745,-7.3899,-7.3937,-7.3937,-7.3937,-7.3822,-7.3707,-7.3707,-7.363,-7.3514,-7.3514,-7.3514,-7.3322,-7.2591,-7.2399,-7.186,-6.9744,-6.9052,-6.8783,-6.8667,-6.8629,-6.859,-6.8436,-6.8182,-6.7906,-6.7664,-6.6522,-6.5595,-6.5306,-6.4373,-6.3648,-6.3505,-6.3469,-6.3358,-6.3246,-6.387,-6.431,-6.431,-6.4934,-6.5301,-6.5301,-6.5448,-6.5521,-6.5521,-6.5632,-6.5705,-6.5705,-6.6366,-6.6769,-6.6916,-6.6916,-6.6916,-6.6916,-6.7577,-6.8348,-6.9119,-6.9119,-6.9486,-7.011,-7.011,-7.011,-7.011,-7.0257,-7.0321,-7.0459,-7.1295,-7.2078,-7.2742,-8.1093,-8.1093,-8.1093,-8.1093,-8.1093,-8.1093,-8.1093,-8.1093,-8.1093,-8.1093,-8.1093,-8.1093,-8.1093,-8.1093,-8.1093,-8.1093,-8.1093,-8.1093,-8.1093,-8.1093,-8.1093,-8.1093,-8.0977,-8.0554,-7.9823,-7.9669,-7.9131,-7.8169,-7.7361,-7.6938,-7.6938,-7.6053,-7.5668,-7.5668,-7.5668,-7.5245,-7.4553,-7.4553,-7.413,-7.3514,-7.3514,-7.3514,-7.3514,-7.3514,-7.3514,-7.3514,-7.3514,-7.3937,-7.4668,-7.5399,-7.5668,-7.5668,-7.5668,-7.513,-7.4553,-7.4553,-7.4053,-7.3514,-7.3514,-7.3514,-7.3476,-7.336,-7.3322,-7.3245,-7.2899,-7.1629,-7.036,-6.9667,-6.9513,-6.9283,-6.8552,-6.8182,-6.7936,-6.7709,-6.7162,-6.6684,-6.6427,-6.6053,-6.5729,-6.553,-6.5287,-6.5124,-6.4971,-6.5081,-6.5154,-6.5154,-6.5264,-6.5301,-6.5301,-6.5962,-6.6329,-6.6329,-6.699,-6.7357,-6.7357,-6.7467,-6.7871,-6.8568,-6.8568,-6.8568,-6.8568,-6.8678,-6.9192,-6.9926,-6.9926,-7.0,-7.011,-7.011,-7.011,-7.0183,-7.0881,-7.1222,-7.1434,-7.2455,-7.2933,-7.3098,-8.1093,-8.1093,-8.1093,-8.1093,-8.1093,-8.1093,-8.1093,-8.1093,-8.1093,-8.1093,-8.1093,-8.1093,-8.1093,-8.1093,-8.1093,-8.1093,-8.1093,-8.1093,-8.1093,-8.1093,-8.1093,-8.1093,-8.1093,-8.0939,-8.0516,-8.0516,-8.0323,-7.9939,-7.8631,-7.7977,-7.7938,-7.7592,-7.7169,-7.6746,-7.6746,-7.6245,-7.5438,-7.5438,-7.5207,-7.4899,-7.4899,-7.4899,-7.4899,-7.4899,-7.4899,-7.4976,-7.5438,-7.613,-7.6861,-7.7284,-7.7092,-7.6746,-7.6746,-7.613,-7.5438,-7.5438,-7.5168,-7.4899,-7.4899,-7.4899,-7.4784,-7.4284,-7.4168,-7.4053,-7.3577,-7.2899,-7.2129,-7.1283,-7.0706,-7.0244,-6.986,-6.9673,-6.9474,-6.9256,-6.8552,-6.7941,-6.765,-6.703,-6.6453,-6.611,-6.5754,-6.552,-6.543,-6.5757,-6.5962,-6.5962,-6.6402,-6.6623,-6.6623,-6.699,-6.7173,-6.7173,-6.7944,-6.8385,-6.8385,-6.8825,-6.9229,-6.9559,-6.9559,-6.9559,-6.9559,-6.9559,-7.0,-7.077,-7.077,-7.1027,-7.1431,-7.1516,-7.1544,-7.1609,-7.2107,-7.2408,-7.2659,-7.3161,-7.3452,-7.3678]},{"header":{"parameterUnit":"m.s-1","parameterCategory":1,"la1":30.6,"la2":28.766,"lo1":-90.7593,"lo2":-88.6598,"dy":0.0162,"dx":0.0183,"nx":116,"ny":114,"refTime":"2024-02-25T06:00:00:Z","depth":0,"parameterNumber":3,"parameterNumberName":"V-component_of_WINDS"},"data":[0.0,0.0,0.0,0.0,0.0,0.0,0.0,0.0,0.0,0.0,0.0,0.0,0.0,0.0,0.0,0.0,0.0,0.0,0.0,0.0,0.0,0.0,0.0,0.0,0.0,0.0,0.0,0.0,0.0,0.0,0.0,0.0,0.0,0.0,0.0,0.0,0.0,0.0,0.0,0.0,0.0,0.0,0.0,0.0,0.0,0.0,0.0,0.0,0.0,0.0,0.0,0.0,0.0,0.0,0.0,0.0,0.0,0.0,0.0,0.0,0.0,0.0,0.0,0.0,0.0,0.0,0.0,0.0,0.0,0.0,0.0,0.0,0.0,0.0,0.0,0.0,0.0,0.0,0.0,0.0,0.0,0.0,0.0,0.0,0.0,0.0,0.0,0.0,0.0,0.0,0.0,0.0,0.0,0.0,0.0,0.0,0.0,0.0,0.0,0.0,0.0,0.0,0.0,0.0,0.0,0.0,0.0,0.0,0.0,0.0,0.0,0.0,0.0,0.0,0.0,0.0,0.0,0.0,0.0,0.0,0.0,0.0,0.0,0.0,0.0,0.0,0.0,0.0,0.0,0.0,0.0,0.0,0.0,0.0,0.0,0.0,0.0,0.0,0.0,0.0,0.0,0.0,0.0,0.0,0.0,0.0,0.0,0.0,0.0,0.0,0.0,0.0,0.0,0.0,0.0,0.0,0.0,0.0,0.0,0.0,0.0,0.0,0.0,0.0,0.0,0.0,0.0,0.0,0.0,0.0,0.0,0.0,0.0,0.0,0.0,0.0,0.0,0.0,0.0,0.0,0.0,0.0,0.0,0.0,0.0,0.0,0.0,0.0,0.0,0.0,0.0,0.0,0.0,0.0,0.0,0.0,0.0,0.0,0.0,0.0,0.0,0.0,0.0,0.0,0.0,0.0,0.0,0.0,0.0,0.0,0.0,0.0,0.0,0.0,0.0,0.0,0.0,0.0,0.0,0.0,0.0,0.0,0.0,0.0,0.0,0.0,0.0,0.0,0.0,0.0,0.0,0.0,0.0,0.0,0.0,0.0,0.0,0.0,0.0,0.0,0.0,0.0,0.0,0.0,0.0,0.0,0.0,0.0,0.0,0.0,0.0,0.0,0.0,0.0,0.0,0.0,0.0,0.0,0.0,0.0,0.0,0.0,0.0,0.0,0.0,0.0,0.0,0.0,0.0,0.0,0.0,0.0,0.0,0.0,0.0,0.0,0.0,0.0,0.0,0.0,0.0,0.0,0.0,0.0,0.0,0.0,0.0,0.0,0.0,0.0,0.0,0.0,0.0,0.0,0.0,0.0,0.0,0.0,0.0,0.0,0.0,0.0,0.0,0.0,0.0,0.0,0.0,0.0,0.0,0.0,0.0,0.0,0.0,0.0,0.0,0.0,0.0,0.0,0.0,0.0,0.0,0.0,0.0,0.0,0.0,0.0,0.0,0.0,0.0,0.0,0.0,0.0,0.0,0.0,0.0,0.0,0.0,0.0,0.0,0.0,0.0,0.0,0.0,0.0,0.0,0.0,0.0,0.0,0.0,0.0,0.0,0.0,0.0,0.0,0.0,0.0,0.0,0.0,0.0,0.0,0.0,0.0,0.0,0.0,0.0,0.0,0.0,0.0,0.0,0.0,0.0,0.0,0.0,0.0,0.0,0.0,0.0,0.0,0.0,0.0,0.0,0.0,0.0,0.0,0.0,0.0,0.0,0.0,0.0,0.0,0.0,0.0,0.0,0.0,0.0,0.0,0.0,0.0,0.0,0.0,0.0,0.0,0.0,0.0,0.0,0.0,0.0,0.0,0.0,0.0,0.0,0.0,0.0,0.0,0.0,0.0,0.0,0.0,0.0,0.0,0.0,0.0,0.0,0.0,0.0,0.0,0.0,0.0,0.0,0.0,0.0,0.0,0.0,0.0,0.0,0.0,0.0,0.0,0.0,0.0,0.0,0.0,0.0,0.0,0.0,0.0,0.0,0.0,0.0,0.0,0.0,0.0,0.0,0.0,0.0,0.0,0.0,0.0,0.0,0.0,0.0,0.0,0.0,0.0,0.0,0.0,0.0,0.0,0.0,0.0,0.0,0.0,0.0,0.0,0.0,0.0,0.0,0.0,0.0,0.0,0.0,0.0,0.0,0.0,0.0,0.0,0.0,0.0,0.0,0.0,0.0,0.0,0.0,0.0,0.0,0.0,0.0,0.0,0.0,0.0,0.0,0.0,0.0,0.0,0.0,0.0,0.0,0.0,0.0,0.0,0.0,0.0,0.0,0.0,0.0,0.0,0.0,0.0,0.0,0.0,0.0,0.0,0.0,0.0,0.0,0.0,0.0,0.0,0.0,0.0,0.0,0.0,0.0,0.0,0.0,0.0,0.0,0.0,0.0,0.0,0.0,0.0,0.0,0.0,0.0,0.0,0.0,0.0,0.0,0.0,0.0,0.0,0.0,0.0,0.0,0.0,0.0,0.0,0.0,0.0,0.0,0.0,0.0,0.0,0.0,0.0,0.0,0.0,0.0,0.0,0.0,0.0,0.0,0.0,0.0,0.0,0.0,0.0,0.0,0.0,0.0,0.0,0.0,0.0,0.0,0.0,0.0,0.0,0.0,0.0,0.0,0.0,0.0,0.0,0.0,0.0,0.0,0.0,0.0,0.0,0.0,0.0,0.0,0.0,0.0,0.0,0.0,0.0,0.0,0.0,0.0,0.0,0.0,0.0,0.0,0.0,0.0,0.0,0.0,0.0,0.0,0.0,0.0,0.0,0.0,0.0,0.0,0.0,0.0,0.0,0.0,0.0,0.0,0.0,0.0,0.0,0.0,0.0,0.0,0.0,0.0,0.0,0.0,0.0,0.0,0.0,0.0,0.0,0.0,0.0,0.0,0.0,0.0,0.0,0.0,0.0,0.0,0.0,0.0,0.0,0.0,0.0,0.0,0.0,0.0,0.0,0.0,0.0,0.0,0.0,0.0,0.0,0.0,0.0,0.0,0.0,0.0,0.0,0.0,0.0,0.0,0.0,0.0,0.0,0.0,0.0,0.0,0.0,0.0,0.0,0.0,0.0,0.0,0.0,0.0,0.0,0.0,0.0,0.0,0.0,0.0,0.0,0.0,0.0,0.0,0.0,0.0,0.0,0.0,0.0,0.0,0.0,0.0,0.0,0.0,0.0,0.0,0.0,0.0,0.0,0.0,0.0,0.0,0.0,0.0,0.0,0.0,0.0,0.0,0.0,0.0,0.0,0.0,0.0,0.0,0.0,0.0,0.0,0.0,0.0,0.0,0.0,0.0,0.0,0.0,0.0,0.0,0.0,0.0,0.0,0.0,0.0,0.0,0.0,0.0,0.0,0.0,0.0,0.0,0.0,0.0,0.0,0.0,0.0,0.0,0.0,0.0,0.0,0.0,0.0,0.0,0.0,0.0,0.0,0.0,0.0,0.0,0.0,0.0,0.0,0.0,0.0,0.0,0.0,0.0,0.0,0.0,0.0,0.0,0.0,0.0,0.0,0.0,0.0,0.0,0.0,0.0,0.0,0.0,0.0,0.0,0.0,0.0,0.0,0.0,0.0,0.0,0.0,0.0,0.0,0.0,0.0,0.0,0.0,0.0,0.0,0.0,0.0,0.0,0.0,0.0,0.0,0.0,0.0,0.0,0.0,0.0,0.0,0.0,0.0,0.0,0.0,0.0,0.0,0.0,0.0,0.0,0.0,0.0,0.0,0.0,0.0,0.0,0.0,0.0,0.0,0.0,0.0,0.0,0.0,0.0,0.0,0.0,0.0,0.0,0.0,0.0,0.0,0.0,0.0,0.0,0.0,0.0,0.0,0.0,0.0,0.0,0.0,0.0,0.0,0.0,0.0,0.0,0.0,0.0,0.0,0.0,0.0,0.0,0.0,0.0,0.0,0.0,0.0,0.0,0.0,0.0,0.0,0.0,0.0,0.0,0.0,0.0,0.0,0.0,0.0,0.0,0.0,0.0,0.0,0.0,0.0,0.0,0.0,0.0,0.0,0.0,0.0,0.0,0.0,0.0,0.0,0.0,0.0,0.0,0.0,0.0,0.0,0.0,0.0,0.0,0.0,0.0,0.0,0.0,0.0,0.0,0.0,0.0,0.0,0.0,0.0,0.0,0.0,0.0,0.0,0.0,0.0,0.0,0.0,0.0,0.0,0.0,0.0,0.0,0.0,0.0,0.0,0.0,0.0,0.0,0.0,0.0,0.0,0.0,0.0,0.0,0.0,0.0,0.0,0.0,0.0,0.0,0.0,0.0,0.0,0.0,0.0,0.0,0.0,0.0,0.0,0.0,0.0,0.0,0.0,0.0,0.0,0.0,0.0,0.0,0.0,0.0,0.0,0.0,0.0,0.0,0.0,0.0,0.0,0.0,0.0,0.0,0.0,0.0,0.0,0.0,0.0,0.0,0.0,0.0,0.0,0.0,0.0,0.0,0.0,0.0,0.0,0.0,0.0,0.0,0.0,0.0,0.0,0.0,0.0,0.0,0.0,0.0,0.0,0.0,0.0,0.0,0.0,0.0,0.0,0.0,0.0,0.0,0.0,0.0,0.0,0.0,0.0,0.0,0.0,0.0,0.0,0.0,0.0,0.0,0.0,0.0,0.0,0.0,0.0,0.0,0.0,0.0,0.0,0.0,0.0,0.0,0.0,0.0,0.0,0.0,0.0,0.0,0.0,0.0,0.0,0.0,0.0,0.0,0.0,0.0,0.0,0.0,0.0,0.0,0.0,0.0,0.0,0.0,0.0,0.0,0.0,0.0,0.0,0.0,0.0,0.0,0.0,0.0,0.0,0.0,0.0,0.0,0.0,0.0,0.0,0.0,0.0,0.0,0.0,0.0,0.0,0.0,0.0,0.0,0.0,0.0,0.0,0.0,0.0,0.0,0.0,0.0,0.0,0.0,0.0,0.0,0.0,0.0,0.0,0.0,0.0,0.0,0.0,0.0,0.0,0.0,0.0,0.0,0.0,0.0,0.0,0.0,0.0,0.0,0.0,0.0,0.0,0.0,0.0,0.0,0.0,0.0,0.0,0.0,0.0,0.0,0.0,0.0,0.0,0.0,0.0,0.0,0.0,0.0,0.0,0.0,0.0,0.0,0.0,0.0,0.0,0.0,0.0,0.0,0.0,0.0,0.0,0.0,0.0,0.0,0.0,0.0,0.0,0.0,0.0,0.0,0.0,0.0,0.0,0.0,0.0,0.0,0.0,0.0,0.0,0.0,0.0,0.0,0.0,0.0,0.0,0.0,0.0,0.0,0.0,0.0,0.0,0.0,0.0,0.0,0.0,0.0,0.0,0.0,0.0,0.0,0.0,0.0,0.0,0.0,0.0,0.0,0.0,0.0,0.0,0.0,0.0,0.0,0.0,0.0,0.0,0.0,0.0,0.0,0.0,0.0,0.0,0.0,0.0,0.0,0.0,0.0,0.0,0.0,0.0,0.0,0.0,0.0,0.0,0.0,0.0,0.0,0.0,0.0,0.0,0.0,0.0,0.0,0.0,0.0,0.0,0.0,0.0,0.0,0.0,0.0,0.0,0.0,0.0,0.0,0.0,0.0,0.0,0.0,0.0,0.0,0.0,0.0,0.0,0.0,0.0,0.0,0.0,0.0,0.0,0.0,0.0,0.0,0.0,0.0,0.0,0.0,0.0,0.0,0.0,0.0,0.0,0.0,0.0,0.0,0.0,0.0,0.0,0.0,0.0,0.0,0.0,0.0,0.0,0.0,0.0,0.0,0.0,0.0,0.0,0.0,0.0,0.0,0.0,0.0,0.0,0.0,0.0,0.0,0.0,0.0,0.0,0.0,0.0,0.0,0.0,0.0,0.0,0.0,0.0,0.0,0.0,0.0,0.0,0.0,0.0,0.0,0.0,0.0,0.0,0.0,0.0,0.0,0.0,0.0,0.0,0.0,0.0,0.0,0.0,0.0,0.0,0.0,0.0,0.0,0.0,0.0,0.0,0.0,0.0,0.0,0.0,0.0,0.0,0.0,0.0,0.0,0.0,0.0,0.0,0.0,0.0,0.0,0.0,0.0,0.0,0.0,0.0,0.0,0.0,0.0,0.0,0.0,0.0,0.0,0.0,0.0,0.0,-1.5777,0.0,0.0,0.0,0.0,0.0,0.0,0.0,0.0,0.0,0.0,0.0,0.0,0.0,0.0,0.0,0.0,0.0,0.0,0.0,0.0,0.0,0.0,0.0,0.0,0.0,0.0,0.0,-0.6539,-0.6647,-0.6803,-0.6842,-0.6916,-0.6991,-0.6997,-0.6997,-0.6997,-0.6892,-0.6926,-0.7143,-0.7217,-0.7434,-0.7787,-0.7887,-0.8083,-0.8242,0.0,0.0,0.0,0.0,0.0,0.0,0.0,0.0,0.0,0.0,0.0,0.0,0.0,0.0,0.0,0.0,0.0,0.0,0.0,0.0,0.0,0.0,0.0,0.0,0.0,0.0,0.0,0.0,0.0,0.0,0.0,0.0,0.0,0.0,0.0,0.0,0.0,0.0,0.0,0.0,0.0,0.0,0.0,0.0,0.0,0.0,0.0,0.0,0.0,0.0,0.0,0.0,0.0,0.0,0.0,0.0,0.0,0.0,0.0,0.0,0.0,0.0,0.0,0.0,0.0,0.0,0.0,0.0,0.0,0.0,0.0,-1.643,0.0,0.0,0.0,0.0,0.0,0.0,0.0,0.0,0.0,0.0,0.0,0.0,0.0,0.0,0.0,0.0,0.0,0.0,0.0,0.0,0.0,0.0,0.0,-0.6559,-0.66,-0.6729,-0.6763,-0.6831,-0.6916,-0.6923,-0.691,-0.6889,-0.691,-0.691,-0.6883,-0.6858,-0.7014,-0.746,-0.7589,-0.797,-0.8682,-0.896,-0.9016,0.0,0.0,0.0,0.0,0.0,0.0,0.0,0.0,0.0,0.0,0.0,0.0,0.0,0.0,0.0,0.0,0.0,0.0,0.0,0.0,0.0,0.0,0.0,0.0,0.0,0.0,0.0,0.0,0.0,0.0,0.0,0.0,0.0,0.0,0.0,0.0,0.0,0.0,0.0,0.0,0.0,0.0,0.0,0.0,0.0,0.0,0.0,0.0,0.0,0.0,0.0,0.0,0.0,0.0,0.0,0.0,0.0,0.0,0.0,0.0,0.0,0.0,0.0,0.0,0.0,-1.8918,-1.8971,-1.9095,-1.9897,-2.0224,-2.0085,-1.8685,-1.77,-1.7125,-1.6556,0.0,0.0,0.0,0.0,0.0,0.0,0.0,0.0,0.0,0.0,0.0,0.0,0.0,0.0,0.0,0.0,0.0,0.0,0.0,0.0,0.0,-0.6709,-0.6836,-0.6856,-0.697,-0.7045,-0.7065,-0.7065,-0.7011,-0.6889,-0.7004,-0.7011,-0.6889,-0.7163,-0.7373,-0.757,-0.8214,-0.8852,-0.9462,-0.9625,-0.9923,-1.0381,0.0,0.0,0.0,0.0,0.0,0.0,0.0,0.0,0.0,0.0,0.0,0.0,0.0,0.0,0.0,0.0,0.0,0.0,0.0,0.0,0.0,0.0,0.0,0.0,0.0,0.0,0.0,0.0,0.0,0.0,0.0,0.0,0.0,0.0,0.0,0.0,0.0,0.0,0.0,0.0,0.0,0.0,0.0,0.0,-1.4456,-1.4794,0.0,0.0,0.0,0.0,0.0,0.0,0.0,0.0,0.0,0.0,0.0,0.0,0.0,-1.8223,-1.9122,-1.9359,-1.98,-2.0388,-2.0641,-2.0895,-2.1226,-2.1855,-2.197,-2.1669,-2.1499,0.0,-1.9036,-1.857,0.0,0.0,0.0,0.0,0.0,0.0,0.0,0.0,0.0,0.0,0.0,0.0,0.0,0.0,0.0,0.0,0.0,0.0,0.0,0.0,0.0,-0.717,-0.7373,-0.7489,-0.7564,-0.7564,-0.7476,-0.7441,-0.7247,-0.7011,-0.6991,-0.6984,-0.7004,-0.7258,-0.7692,-0.835,-0.9015,-0.9598,-1.0114,-1.0426,-1.0889,-1.1358,-1.1149,-1.0922,-1.0643,-1.0008,0.0,0.0,0.0,0.0,0.0,0.0,0.0,0.0,0.0,0.0,0.0,0.0,0.0,0.0,0.0,0.0,0.0,0.0,0.0,0.0,0.0,0.0,0.0,0.0,0.0,0.0,0.0,0.0,0.0,0.0,0.0,0.0,0.0,0.0,0.0,0.0,0.0,0.0,0.0,-1.4322,-1.4883,-1.5177,-1.5231,-1.5158,0.0,0.0,0.0,0.0,0.0,0.0,0.0,0.0,0.0,-1.8439,-1.9292,-2.004,-2.065,-2.1042,-2.1483,-2.1911,-2.2031,-2.2164,-2.2365,-2.2781,-2.2902,-2.2818,-2.278,-2.2151,-2.105,-2.0017,-1.9036,-1.821,0.0,0.0,0.0,0.0,-1.8342,-1.8402,0.0,0.0,0.0,0.0,0.0,0.0,0.0,0.0,0.0,0.0,0.0,0.0,-0.7441,-0.7726,-0.7991,-0.8197,-0.8303,-0.8228,-0.7997,-0.7814,-0.7543,-0.7112,-0.6997,-0.6991,-0.7092,-0.7516,-0.8187,-0.9107,-0.9761,-1.0304,-1.0792,-1.1199,-1.1633,-1.2035,-1.2035,-1.1667,-1.1033,-1.0483,-0.9914,0.0,0.0,0.0,0.0,0.0,0.0,0.0,0.0,0.0,0.0,0.0,0.0,0.0,0.0,0.0,0.0,0.0,0.0,0.0,0.0,0.0,0.0,0.0,0.0,0.0,0.0,0.0,0.0,0.0,0.0,0.0,0.0,0.0,0.0,0.0,0.0,0.0,0.0,-1.4928,-1.5477,-1.5805,-1.6179,-1.6366,0.0,0.0,0.0,0.0,0.0,0.0,-1.8009,-1.8758,-1.9399,-1.9966,-2.0909,-2.1657,-2.2177,-2.2552,-2.2953,-2.3313,-2.3394,-2.3434,-2.3504,-2.3728,-2.3757,-2.3662,-2.3639,-2.3241,-2.252,-2.111,-2.0146,-1.955,-1.9568,-1.9334,-1.9063,-1.9096,-1.9127,-1.9231,0.0,0.0,0.0,0.0,0.0,0.0,0.0,0.0,0.0,0.0,0.0,-0.7455,-0.7753,-0.8309,-0.8716,-0.8824,-0.9015,-0.8968,-0.8479,-0.818,-0.7705,-0.7125,-0.7092,-0.7092,-0.7098,-0.8126,-0.9015,-0.9774,-1.0378,-1.0982,-1.1572,-1.1877,-1.2169,-1.2447,-1.2447,-1.2307,-1.2088,-1.1286,-1.0685,-1.0194,0.0,0.0,0.0,0.0,0.0,0.0,0.0,0.0,0.0,0.0,0.0,0.0,0.0,0.0,0.0,0.0,0.0,0.0,0.0,0.0,0.0,0.0,0.0,0.0,0.0,0.0,0.0,0.0,0.0,0.0,0.0,0.0,0.0,0.0,0.0,0.0,0.0,0.0,0.0,-1.7045,-1.7582,0.0,0.0,0.0,0.0,-1.7956,-1.8731,-1.9239,-1.9336,-2.0361,-2.1122,-2.1494,-2.2031,-2.2779,-2.3647,-2.3688,-2.3981,-2.4556,-2.4836,-2.497,-2.497,-2.5045,-2.481,-2.4529,-2.4235,-2.3691,-2.2835,-2.1886,-2.1074,-2.0433,-2.0098,-1.9916,-1.9873,-2.0153,-2.0236,-2.0364,0.0,0.0,0.0,0.0,0.0,0.0,0.0,0.0,-0.6593,-0.6939,-0.7373,-0.7916,-0.8601,-0.9042,-0.9429,-0.9774,-0.9666,-0.9435,-0.9083,-0.8601,-0.8099,-0.7597,-0.7482,-0.7658,-0.814,-0.8899,-0.9652,-1.0399,-1.1002,-1.1558,-1.206,-1.2352,-1.2651,-1.2929,-1.284,-1.2773,-1.2657,-1.1842,-1.1118,-1.0486,-0.9978,-0.938,0.0,0.0,0.0,0.0,0.0,0.0,0.0,0.0,0.0,0.0,0.0,0.0,0.0,0.0,0.0,0.0,0.0,0.0,0.0,0.0,0.0,0.0,0.0,0.0,0.0,0.0,0.0,0.0,0.0,0.0,0.0,0.0,0.0,0.0,0.0,0.0,0.0,-1.8196,-1.8811,0.0,-1.9279,-1.9653,-1.9933,-2.0,-2.0481,-2.0998,-2.1309,-2.2098,-2.2672,-2.3035,-2.3728,-2.4289,-2.4609,-2.4796,-2.4997,-2.5197,-2.5304,-2.5264,-2.5077,-2.5077,-2.4917,-2.4623,-2.4329,-2.3915,-2.345,-2.2727,-2.196,-2.1176,-2.1053,-2.0744,-2.043,-2.0451,-2.0507,-2.0654,0.0,0.0,0.0,0.0,0.0,0.0,0.0,0.0,-0.679,-0.7193,-0.7773,-0.8418,-0.9218,-0.9713,-1.0127,-1.0473,-1.027,-0.9958,-0.9557,-0.892,-0.8357,-0.7909,-0.7896,-0.8221,-0.892,-0.9578,-1.0249,-1.0948,-1.1552,-1.2047,-1.2447,-1.2793,-1.3091,-1.3322,-1.3275,-1.3234,-1.3152,-1.2596,-1.187,-1.105,-1.0489,-0.9903,-0.9334,0.0,0.0,0.0,0.0,0.0,0.0,0.0,0.0,0.0,0.0,0.0,0.0,0.0,0.0,0.0,0.0,0.0,0.0,0.0,0.0,0.0,0.0,0.0,0.0,0.0,0.0,0.0,0.0,0.0,0.0,0.0,0.0,0.0,0.0,0.0,-1.8664,-1.9559,-2.0347,-2.0909,-2.1096,-2.1483,-2.1804,-2.1991,-2.2285,-2.2619,-2.3006,-2.3594,-2.4008,-2.4209,-2.4877,-2.5277,-2.5371,-2.5571,-2.5705,-2.5812,-2.5705,-2.5558,-2.5371,-2.517,-2.497,-2.477,-2.4476,-2.4128,-2.3741,-2.334,-2.266,-2.1869,-2.1472,-2.1133,-2.0851,-2.0673,-2.0659,-2.0767,0.0,0.0,0.0,0.0,0.0,0.0,0.0,-0.6729,-0.7051,-0.7556,-0.8255,-0.8954,-0.9571,-1.029,-1.0792,-1.088,-1.0812,-1.0466,-0.9869,-0.9137,-0.8526,-0.8029,-0.8343,-0.8784,-0.9395,-1.0134,-1.0812,-1.1416,-1.2013,-1.2461,-1.2759,-1.32,-1.3492,-1.3648,-1.3783,-1.377,-1.3634,-1.3478,-1.2813,-1.183,-1.1157,-1.0711,-1.0243,0.0,0.0,0.0,0.0,0.0,0.0,0.0,0.0,0.0,0.0,0.0,0.0,0.0,0.0,0.0,0.0,0.0,0.0,0.0,0.0,0.0,0.0,0.0,0.0,0.0,0.0,0.0,0.0,0.0,0.0,0.0,0.0,0.0,-1.8049,-1.9118,-2.0187,-2.1069,-2.2205,-2.2913,-2.2913,-2.346,-2.3808,-2.3808,-2.4075,-2.4249,-2.4249,-2.4796,-2.5104,-2.5104,-2.5384,-2.5678,-2.605,-2.605,-2.6106,-2.6373,-2.6092,-2.6023,-2.5983,-2.5344,-2.5077,-2.505,-2.4756,-2.4302,-2.3768,-2.3754,-2.3233,-2.2338,-2.147,-2.1136,-2.1056,-2.0835,-2.0739,-2.0799,0.0,0.0,0.0,0.0,0.0,0.0,0.0,-0.6729,-0.7125,-0.7786,-0.8426,-0.9225,-1.0148,-1.0629,-1.0989,-1.1246,-1.0934,-1.0514,-1.0019,-0.9446,-0.8879,-0.854,-0.8811,0.0,-1.0019,-1.0656,-1.1328,-1.204,-1.2427,-1.2813,-1.322,-1.3458,-1.3702,-1.3946,-1.3871,-1.3878,-1.3933,-1.3675,-1.3336,-1.2895,-1.2081,-1.1423,-1.092,0.0,0.0,0.0,0.0,0.0,0.0,0.0,0.0,0.0,0.0,0.0,0.0,0.0,0.0,0.0,0.0,0.0,0.0,0.0,0.0,0.0,0.0,0.0,0.0,0.0,0.0,0.0,0.0,0.0,0.0,0.0,-1.7983,-1.9078,-1.9292,-2.0508,-2.171,-2.2605,-2.338,-2.3915,-2.4128,-2.4489,-2.4716,-2.4716,-2.4983,-2.5157,-2.5157,-2.5504,-2.5718,-2.5718,-2.5999,-2.6186,-2.6266,-2.6266,-2.6199,-2.6079,-2.6077,-2.5732,-2.5317,-2.5157,-2.4957,-2.4743,-2.4449,-2.4115,-2.3754,-2.3541,-2.3046,-2.2378,-2.1924,-2.1617,-2.1454,-2.1128,-2.0994,-2.0967,0.0,0.0,0.0,0.0,0.0,0.0,0.0,-0.6824,-0.722,-0.7901,-0.8676,-0.9429,-1.0222,-1.0744,-1.1084,-1.1199,-1.0907,-1.05,-0.9992,-0.9507,0.0,0.0,0.0,-1.0067,-1.0636,-1.1294,-1.1877,-1.2379,-1.28,-1.3146,-1.3403,-1.3682,-1.3905,-1.4068,-1.4041,-1.4082,-1.415,-1.3919,-1.3763,-1.362,-1.2908,-1.2223,-1.1586,-1.1111,-1.0736,-1.0433,-1.0011,-0.9755,-0.9574,-0.9268,0.0,0.0,0.0,0.0,0.0,0.0,0.0,0.0,0.0,0.0,0.0,0.0,0.0,0.0,0.0,0.0,0.0,0.0,0.0,0.0,0.0,0.0,0.0,0.0,-1.9426,-2.0695,-2.1376,-2.2191,-2.3113,-2.4115,-2.4756,-2.5237,-2.5531,-2.5825,-2.5945,-2.5825,-2.5959,-2.6012,-2.5879,-2.6039,-2.6132,-2.6132,-2.6306,-2.6386,-2.6386,-2.6266,-2.6119,-2.6037,-2.5705,-2.5411,-2.5077,-2.4823,-2.4623,-2.4436,-2.4155,-2.3861,-2.3567,-2.3394,-2.2966,0.0,0.0,0.0,0.0,0.0,-2.1109,-2.1082,0.0,0.0,0.0,0.0,0.0,0.0,0.0,-0.6912,-0.7287,-0.7887,-0.8771,-0.949,-0.9909,-1.0643,-1.1009,-1.0887,-1.0731,-1.0405,-0.9836,0.0,0.0,-0.9693,-1.0276,-1.0806,-1.1323,-1.1972,-1.2427,-1.2603,-1.3139,-1.3431,-1.3485,-1.3885,-1.4082,-1.4102,-1.4238,-1.4299,-1.4292,-1.4156,-1.4089,-1.4034,-1.3641,-1.3037,-1.2352,-1.2033,-1.1558,-1.0981,-1.086,-1.0432,-0.9903,-0.9585,0.0,0.0,0.0,0.0,0.0,0.0,0.0,0.0,0.0,0.0,0.0,0.0,0.0,0.0,0.0,0.0,0.0,0.0,0.0,0.0,0.0,0.0,0.0,0.0,-2.1069,-2.2619,-2.3848,-2.4048,-2.4449,-2.5491,-2.6132,-2.6587,-2.6854,-2.7108,-2.7148,-2.6841,-2.6827,-2.6694,-2.64,0.0,0.0,0.0,0.0,-2.6373,-2.6346,-2.6092,-2.5996,-2.5929,-2.5331,-2.5064,-2.501,-2.4449,-2.4209,-2.4182,-2.3861,-2.3567,-2.3327,-2.326,-2.2873,-2.2298,-2.2031,-2.1764,-2.1534,-2.1203,-2.1109,-2.1109,0.0,0.0,0.0,0.0,0.0,0.0,0.0,-0.6702,-0.7139,-0.778,-0.8431,-0.9103,-0.9788,-1.0215,-1.0439,-1.0412,-1.027,-0.9963,0.0,0.0,-0.9876,-1.0304,-1.0894,-1.143,-1.1951,-1.2386,-1.2834,-1.3227,-1.3342,-1.3587,-1.3946,-1.4034,-1.4136,-1.4258,-1.4285,-1.4299,-1.4299,-1.4272,-1.4183,-1.4061,-1.3973,-1.3566,-1.2956,-1.2535,-1.2155,-1.1796,-1.1402,-1.1029,-1.0604,-1.0249,-1.0311,-1.0413,-0.9905,0.0,0.0,0.0,0.0,0.0,0.0,0.0,0.0,0.0,0.0,0.0,0.0,0.0,0.0,0.0,0.0,0.0,0.0,0.0,0.0,-2.0944,-2.2485,-2.3915,-2.5331,-2.5732,-2.5972,-2.6186,-2.6734,-2.7121,-2.7175,-2.7228,-2.7148,-2.6841,-2.6827,-2.6694,-2.64,-2.6386,-2.6386,-2.6386,-2.6386,-2.6279,-2.6039,-2.6063,-2.5795,-2.5251,0.0,0.0,-2.4716,-2.4369,-2.4209,-2.4168,-2.3647,-2.338,-2.3287,-2.2792,-2.2245,-2.1775,-2.1722,-2.1456,-2.1189,-2.1136,-2.1109,-2.1109,0.0,0.0,0.0,0.0,0.0,0.0,0.0,-0.6641,-0.7088,-0.7536,-0.818,-0.8764,-0.9218,-0.9605,-0.9802,-0.9787,-0.9646,-0.9632,0.0,-0.9992,-1.0392,-1.0921,-1.1518,-1.2054,-1.2501,-1.2874,-1.3214,-1.3512,-1.3661,-1.3851,-1.4075,-1.415,-1.4224,-1.4299,-1.4299,-1.4299,-1.4299,-1.4299,-1.4258,-1.4177,-1.4102,-1.3844,-1.3464,-1.3091,-1.2671,-1.2244,-1.1945,-1.1599,-1.1143,-1.0765,-1.0734,-1.0758,-1.0287,-1.0152,-1.0109,0.0,0.0,0.0,0.0,0.0,0.0,0.0,0.0,0.0,0.0,0.0,0.0,0.0,0.0,-1.6807,-1.7849,0.0,-2.0548,-2.2178,-2.3434,-2.4609,-2.5798,-2.6333,-2.672,-2.7014,-2.7308,-2.7482,-2.7482,-2.7482,-2.7295,-2.6854,-2.6827,-2.6694,-2.64,-2.6386,-2.6386,-2.6386,-2.6386,-2.6253,-2.6037,-2.5812,-2.5518,-2.5077,-2.493,-2.4703,-2.4409,-2.4115,-2.3901,-2.3741,-2.3287,-2.3006,-2.2832,-2.2231,-2.1817,-2.1601,-2.139,-2.1243,-2.1109,-2.1109,-2.1109,-2.1109,0.0,0.0,0.0,0.0,0.0,0.0,0.0,-0.6525,-0.6905,-0.7204,-0.7841,-0.8336,-0.852,-0.8913,-0.913,-0.9084,-0.9132,0.0,0.0,-1.0297,-1.086,-1.1491,-1.2101,-1.2617,-1.3037,-1.3336,-1.3559,-1.3715,-1.3953,-1.4102,-1.4156,-1.4285,-1.4353,-1.4387,-1.4387,-1.4387,-1.438,-1.4353,-1.434,-1.4326,-1.4177,-1.4007,-1.381,-1.3546,-1.3071,-1.2522,-1.2318,-1.1979,-1.1552,-1.1029,-1.0965,-1.0912,-1.0535,-1.0258,-1.0099,-1.0093,-0.9972,0.0,0.0,0.0,0.0,0.0,0.0,0.0,0.0,0.0,-1.6005,-1.666,-1.7435,-1.837,-1.9573,-2.0561,-2.171,-2.3327,-2.4315,-2.5184,-2.6012,-2.6533,-2.7014,-2.7549,-2.7615,-2.7615,-2.7615,-2.7615,-2.7388,-2.6867,-2.6827,-2.6694,-2.64,-2.6386,-2.6386,-2.6386,-2.6333,-2.6159,-2.5879,-2.5571,-2.5277,-2.4997,-2.4756,-2.4489,-2.4195,-2.3901,-2.3607,-2.33,-2.2939,-2.2605,-2.2298,-2.1764,-2.1588,-2.1507,-2.1203,-2.1109,-2.1109,-2.1109,-2.1109,-2.1109,0.0,0.0,0.0,0.0,0.0,0.0,0.0,0.0,-0.6484,-0.6736,-0.7197,-0.7604,-0.7882,-0.8201,-0.849,-0.8547,0.0,0.0,0.0,-1.0429,-1.1219,-1.1952,-1.2562,-1.303,-1.3342,-1.3641,-1.3865,-1.4021,-1.4055,-1.4204,-1.4462,-1.4482,-1.4563,-1.4692,-1.4692,-1.4692,-1.4679,-1.4543,-1.4489,-1.4475,-1.4333,-1.4102,-1.3824,-1.3661,-1.3227,-1.2651,-1.2237,-1.1884,-1.1552,-1.1029,-1.1034,-1.1096,-1.0834,-1.0652,-1.0552,-1.073,0.0,-1.0724,-1.1824,-1.3059,-1.4232,-1.5073,-1.549,-1.5875,0.0,0.0,-1.7582,-1.845,-1.9118,-1.9907,-2.1159,-2.2245,-2.3354,-2.4329,-2.5237,-2.6026,-2.664,-2.6787,-2.6947,-2.7281,-2.7308,-2.7308,-2.7308,-2.7308,-2.7175,-2.6854,-2.6827,-2.6694,-2.64,-2.6386,-2.6386,-2.6386,-2.6146,-2.5865,-2.5558,-2.5277,-2.4983,-2.469,-2.4649,-2.4489,-2.4195,-2.3901,-2.3607,-2.33,-2.2712,-2.2298,-2.2004,-2.1748,-2.1403,-2.1162,-2.1122,-2.1109,-2.1109,-2.1109,-2.1109,-2.1109,0.0,0.0,0.0,0.0,0.0,0.0,0.0,0.0,0.0,-0.647,-0.6837,-0.7163,-0.7285,-0.7563,-0.7841,0.0,0.0,0.0,-0.9652,-1.0422,-1.128,0.0,0.0,0.0,0.0,0.0,0.0,0.0,0.0,0.0,0.0,0.0,0.0,0.0,-1.474,-1.474,-1.4726,-1.4577,-1.4509,-1.4489,-1.4258,-1.3987,-1.3675,-1.3261,-1.2732,-1.2182,-1.1993,-1.1626,0.0,0.0,-1.0524,-1.0467,-1.017,-1.0,-0.9939,-1.0186,-1.0463,0.0,-1.319,-1.4607,-1.5707,-1.6588,-1.699,-1.7344,-1.8263,-1.8664,-1.9118,-2.0013,-2.0535,-2.1186,-2.2191,-2.2873,-2.3674,0.0,-2.5344,-2.5905,-2.6493,-2.6426,-2.636,-2.6573,-2.6346,-2.6453,-2.6961,-2.6854,-2.6707,-2.6587,-2.6573,-2.652,-2.64,-2.6386,-2.6319,-2.6146,-2.6026,-2.5732,-2.5264,-2.5144,-2.493,-2.4636,-2.4636,-2.4396,-2.3941,-2.3821,-2.3514,-2.302,-2.2418,-2.2098,-2.1951,-2.1483,-2.1216,-2.1109,-2.1109,-2.1109,-2.1109,-2.1109,-2.1109,-2.1109,0.0,0.0,0.0,0.0,0.0,0.0,0.0,0.0,0.0,0.0,-0.6519,-0.6776,-0.6858,-0.7054,-0.7305,0.0,0.0,0.0,0.0,-1.0365,0.0,0.0,0.0,0.0,0.0,0.0,0.0,0.0,0.0,0.0,0.0,0.0,0.0,0.0,0.0,-1.476,-1.4794,-1.4597,-1.4489,-1.4428,-1.4129,-1.3783,-1.3383,-1.282,-1.2155,-1.1518,-1.1477,-1.1104,0.0,0.0,-0.9842,-0.9593,-0.9476,-0.9293,-0.9265,-0.9691,-1.0679,-1.2187,-1.4548,-1.5976,-1.7051,-1.8118,-1.8483,-1.8821,-1.9773,-2.0134,-2.0508,-2.1309,-2.1643,-2.2044,-2.2846,-2.3247,-2.3781,-2.4796,-2.5197,-2.5571,-2.6079,-2.5972,-2.5838,-2.5838,-2.5504,-2.5585,-2.6386,-2.6266,-2.6186,-2.6266,-2.6266,-2.6306,-2.6386,-2.6386,-2.6253,-2.605,-2.5879,-2.5585,-2.5077,-2.4997,-2.485,-2.4636,-2.4556,-2.4249,-2.3768,-2.3594,-2.3233,-2.2712,-2.2205,-2.1937,-2.183,-2.1323,-2.1109,-2.1109,-2.1109,-2.1109,-2.1109,-2.1109,-2.1109,-2.1109,0.0,0.0,0.0,0.0,0.0,0.0,0.0,0.0,0.0,0.0,0.0,0.0,0.0,0.0,0.0,0.0,0.0,0.0,0.0,-1.0148,0.0,0.0,0.0,0.0,0.0,0.0,0.0,0.0,0.0,0.0,0.0,0.0,0.0,0.0,0.0,0.0,0.0,-1.4638,-1.4434,-1.4278,-1.3973,-1.3498,-1.2929,-1.2474,-1.166,-1.0738,-1.0582,0.0,0.0,0.0,-0.8994,-0.8777,-0.8858,-0.875,0.0,-0.9686,-1.1744,-1.4112,-1.5844,-1.7114,-1.8311,-1.9761,-2.01,-2.0401,-2.1346,-2.1561,-2.167,-2.2258,-2.2392,-2.2579,-2.3207,-2.3554,-2.3955,-2.4556,-2.4903,-2.5197,-2.5504,-2.5531,-2.5531,-2.5531,-2.501,-2.489,0.0,-2.5545,-2.5665,-2.6023,-2.605,-2.6092,-2.6373,-2.6386,-2.6253,-2.605,-2.5678,-2.5384,-2.5077,-2.4796,-2.4649,-2.4636,-2.4356,-2.4062,-2.3754,-2.3153,-2.2726,-2.2418,-2.2111,-2.183,-2.1601,-2.1229,-2.1109,-2.1109,-2.1109,-2.1109,-2.1109,-2.1109,-2.1109,-2.1109,0.0,0.0,0.0,0.0,0.0,0.0,0.0,0.0,0.0,0.0,0.0,0.0,0.0,0.0,0.0,0.0,0.0,0.0,0.0,0.0,0.0,0.0,0.0,0.0,0.0,0.0,0.0,0.0,0.0,0.0,0.0,0.0,0.0,0.0,0.0,0.0,0.0,0.0,-1.3987,-1.381,-1.3308,-1.2807,-1.2284,-1.1531,-1.0778,-1.0025,0.0,0.0,0.0,0.0,0.0,-0.8126,-0.8174,-0.8262,-0.8695,-1.0384,-1.2053,-1.3955,-1.6497,-1.791,-1.9029,-2.0929,-2.139,-2.1577,-2.2338,-2.2485,-2.2418,-2.2418,-2.2271,-2.2191,-2.2405,-2.2525,-2.2846,-2.3634,-2.4182,-2.4663,-2.5157,-2.5224,-2.5157,-2.4957,-2.4583,0.0,0.0,0.0,0.0,-2.5625,-2.5838,-2.6077,-2.6092,-2.6279,-2.6172,-2.5678,-2.5558,-2.5277,-2.4796,-2.469,-2.4636,-2.4549,-2.4142,-2.3768,-2.346,-2.3046,-2.2699,-2.2405,-2.2111,-2.1817,-2.1601,-2.1229,-2.1109,-2.1109,-2.1109,-2.1109,-2.1109,-2.1109,-2.1109,-2.1109,0.0,0.0,0.0,0.0,0.0,0.0,0.0,0.0,0.0,0.0,0.0,0.0,0.0,0.0,0.0,0.0,0.0,0.0,0.0,0.0,0.0,0.0,0.0,0.0,0.0,0.0,0.0,0.0,0.0,0.0,0.0,0.0,0.0,0.0,0.0,0.0,0.0,0.0,0.0,0.0,-1.2556,-1.1999,-1.1416,-1.0622,-0.9883,0.0,0.0,0.0,0.0,0.0,0.0,-0.7648,-0.7759,-0.8378,-0.9402,-1.1256,-1.2915,-1.4778,-1.7492,-1.9033,-2.0255,-2.2018,-2.2378,-2.2432,-2.2913,-2.2779,-2.2458,-2.2164,-2.179,-2.1483,-2.1376,-2.1443,-2.1777,-2.2565,-2.318,-2.3808,-2.4516,-2.4703,-2.473,-2.4649,-2.4382,-2.4249,0.0,0.0,0.0,-2.5317,-2.5638,-2.5838,-2.6023,-2.6226,-2.6119,-2.5531,-2.5518,-2.5237,-2.4649,-2.4636,-2.4529,-2.4329,-2.3941,-2.3554,-2.3153,-2.2953,-2.2645,-2.2258,-2.2071,-2.1764,-2.1376,-2.1189,-2.1109,-2.1109,-2.1109,-2.1109,-2.1109,-2.1109,-2.1109,-2.1109,0.0,0.0,0.0,0.0,0.0,0.0,0.0,0.0,0.0,0.0,0.0,0.0,0.0,0.0,0.0,0.0,0.0,0.0,0.0,0.0,0.0,0.0,0.0,0.0,0.0,0.0,0.0,0.0,0.0,0.0,0.0,0.0,0.0,0.0,0.0,0.0,0.0,0.0,0.0,0.0,0.0,0.0,-1.0358,-0.9761,0.0,0.0,0.0,0.0,0.0,0.0,0.0,0.0,-0.7809,-0.9108,-1.0799,-1.2355,-1.437,-1.6552,-1.8865,-2.0464,-2.1857,-2.3014,-2.314,-2.2979,-2.3247,-2.2619,-2.1884,-2.1601,-2.1052,-2.0468,0.0,0.0,-2.0735,-2.1387,-2.1951,-2.2672,-2.3581,-2.3981,-2.4289,0.0,0.0,0.0,0.0,0.0,0.0,-2.501,0.0,-2.5638,-2.5996,-2.6213,-2.6106,-2.5531,-2.5504,-2.5211,-2.4649,-2.4636,-2.4342,-2.3768,-2.3768,-2.3447,-2.2928,-2.2928,-2.2552,-2.2004,-2.1991,-2.1657,-2.1136,-2.1122,-2.1109,-2.1109,-2.1109,-2.1109,-2.1109,-2.1109,-2.1109,-2.1109,0.0,0.0,0.0,0.0,0.0,0.0,0.0,0.0,0.0,0.0,0.0,0.0,0.0,0.0,0.0,0.0,0.0,0.0,0.0,0.0,0.0,0.0,0.0,0.0,0.0,0.0,0.0,0.0,0.0,0.0,0.0,0.0,0.0,0.0,0.0,0.0,0.0,0.0,0.0,0.0,0.0,0.0,-0.9473,0.0,0.0,0.0,0.0,0.0,0.0,0.0,0.0,0.0,-0.9179,-1.0484,-1.2,-1.3618,-1.5583,-1.7702,-1.9717,-2.1206,-2.2448,-2.3683,-2.3754,-2.3434,-2.3073,-2.2458,-2.1657,-2.0481,-1.9613,-1.8891,0.0,0.0,0.0,-1.9492,-2.0628,0.0,-2.2632,-2.3407,0.0,-2.3981,0.0,-2.4235,-2.4302,-2.4249,0.0,0.0,-2.5224,-2.5545,-2.5625,-2.5905,-2.5892,-2.5518,-2.5304,-2.501,-2.4562,-2.4636,-2.4342,-2.3768,-2.3768,-2.3447,-2.2928,-2.2928,-2.2659,-2.2298,-2.2084,-2.1777,-2.143,-2.1203,-2.1109,-2.1109,-2.1109,-2.1109,-2.1109,-2.1109,-2.1109,-2.1109,0.0,0.0,0.0,0.0,0.0,0.0,0.0,0.0,0.0,0.0,0.0,0.0,0.0,0.0,0.0,0.0,0.0,0.0,0.0,0.0,0.0,0.0,0.0,0.0,0.0,0.0,0.0,0.0,0.0,0.0,0.0,0.0,0.0,0.0,0.0,0.0,0.0,0.0,0.0,0.0,0.0,0.0,0.0,0.0,0.0,0.0,0.0,0.0,0.0,0.0,0.0,-0.9482,-1.0897,-1.2476,-1.4145,-1.5851,0.0,-1.9739,-2.1323,-2.2657,-2.3739,-2.4462,-2.4182,-2.3581,-2.2832,-2.1724,-2.0454,-1.9105,-1.8023,0.0,-1.6714,-1.6981,0.0,0.0,0.0,0.0,-2.1897,-2.2926,-2.3674,0.0,-2.4222,0.0,-2.4396,-2.4396,-2.4516,0.0,-2.5251,-2.5518,-2.5518,-2.5798,-2.5825,-2.5518,-2.5237,-2.493,-2.4562,-2.4636,-2.4342,-2.3768,-2.3768,-2.3447,-2.2928,-2.2928,-2.2699,-2.2405,0.0,-2.1817,-2.1601,-2.1229,-2.1109,-2.1109,-2.1109,-2.1109,-2.1109,-2.1109,-2.1109,-2.1109,0.0,0.0,0.0,0.0,0.0,0.0,0.0,0.0,0.0,0.0,0.0,0.0,0.0,0.0,0.0,0.0,0.0,0.0,0.0,0.0,0.0,0.0,0.0,0.0,0.0,0.0,0.0,0.0,0.0,0.0,0.0,0.0,0.0,0.0,0.0,0.0,0.0,0.0,0.0,0.0,0.0,0.0,0.0,0.0,0.0,0.0,0.0,0.0,0.0,0.0,-0.976,-1.093,-1.272,-1.4647,-1.6633,-1.8349,-2.0243,-2.2026,-2.3138,-2.4242,-2.5064,-2.5037,-2.4329,-2.3394,-2.2418,-2.0628,-1.8824,-1.7555,0.0,-1.5458,-1.5164,-1.5591,-1.6273,-1.7154,0.0,-1.9973,-2.1212,-2.2378,-2.338,-2.4008,-2.4409,-2.4649,-2.469,-2.473,-2.4863,-2.5117,-2.5371,-2.5518,-2.5518,-2.5758,-2.5745,-2.5411,-2.5144,-2.4903,-2.4562,-2.4636,-2.4342,-2.3768,-2.3768,-2.3447,-2.2928,-2.2928,-2.2726,-2.2458,-2.2164,-2.1884,-2.1655,-2.1296,-2.1149,-2.1109,-2.1109,-2.1109,-2.1109,-2.1109,-2.1109,-2.1109,0.0,0.0,0.0,0.0,0.0,0.0,0.0,0.0,0.0,0.0,-0.6071,0.0,0.0,0.0,0.0,0.0,0.0,0.0,0.0,0.0,0.0,0.0,0.0,0.0,0.0,0.0,0.0,0.0,0.0,0.0,0.0,0.0,0.0,0.0,0.0,0.0,0.0,0.0,0.0,0.0,0.0,0.0,0.0,0.0,0.0,0.0,0.0,0.0,0.0,0.0,-1.0054,-1.1649,-1.4005,-1.6066,-1.7957,-1.9665,-2.1454,-2.308,-2.3792,-2.456,-2.5024,-2.477,-2.3861,-2.2659,-2.1296,-1.9573,0.0,0.0,-1.4843,-1.3893,-1.3641,-1.4068,-1.475,-1.5631,-1.7221,-1.8701,-1.9933,-2.1323,-2.2539,0.0,-2.4168,-2.473,-2.4983,-2.5224,0.0,0.0,-2.5478,-2.5518,-2.5518,-2.5558,-2.5344,-2.481,-2.4743,-2.469,-2.4636,-2.4636,-2.4342,-2.3768,-2.3768,-2.3447,-2.2928,-2.2928,-2.2901,-2.2766,-2.2472,0.0,-2.1884,-2.1655,-2.1336,-2.1109,-2.1109,-2.1109,-2.1109,-2.1109,-2.1109,-2.1109,0.0,0.0,0.0,0.0,0.0,0.0,0.0,0.0,0.0,0.0,-0.6424,-0.6376,0.0,0.0,0.0,0.0,0.0,0.0,0.0,0.0,0.0,0.0,0.0,0.0,0.0,0.0,0.0,0.0,0.0,0.0,0.0,0.0,0.0,0.0,0.0,0.0,0.0,0.0,0.0,0.0,0.0,0.0,0.0,0.0,0.0,0.0,0.0,0.0,0.0,0.0,-1.0306,-1.2162,-1.4819,-1.716,-1.925,-2.1003,-2.2667,-2.4037,-2.4631,-2.5166,-2.5424,-2.4983,-2.3741,-2.2205,-2.0588,0.0,0.0,0.0,-1.3626,-1.2852,-1.2559,-1.3038,0.0,-1.4576,-1.6192,-1.7769,-1.8958,-2.0641,0.0,-2.2979,-2.3875,-2.4583,0.0,-2.5211,-2.5344,-2.5504,-2.5518,-2.5518,-2.5518,-2.5371,-2.509,-2.4576,-2.4636,-2.4636,-2.4636,-2.4636,-2.4422,-2.3995,-2.3848,-2.3541,-2.31,-2.2939,-2.2928,-2.2846,-2.2552,-2.2258,-2.1964,-2.1735,-2.1376,-2.1109,-2.1109,-2.1109,-2.1109,-2.1109,-2.1109,-2.1109,0.0,0.0,0.0,0.0,0.0,0.0,0.0,-0.6207,-0.6463,-0.6749,-0.6797,-0.6749,-0.6627,-0.6573,-0.647,0.0,0.0,0.0,0.0,0.0,0.0,0.0,0.0,0.0,0.0,0.0,0.0,0.0,0.0,0.0,0.0,0.0,0.0,0.0,0.0,0.0,0.0,0.0,0.0,0.0,0.0,0.0,0.0,0.0,0.0,0.0,0.0,0.0,0.0,0.0,-1.0225,-1.2115,-1.4775,-1.7395,-1.9884,-2.1674,-2.3247,-2.4502,-2.5144,-2.5545,-2.5611,-2.4957,-2.35,-2.1764,-1.9933,-1.7689,0.0,0.0,-1.2692,-1.1957,-1.1752,0.0,-1.2891,0.0,-1.5324,-1.6847,-1.8036,-1.992,-2.1588,0.0,-2.3487,0.0,-2.493,-2.5104,0.0,-2.5491,-2.5451,-2.5424,-2.5424,-2.5144,-2.4877,-2.4649,-2.4636,-2.4636,-2.4636,-2.4636,-2.4489,-2.4195,-2.3915,-2.3621,-2.3313,-2.3006,-2.2928,-2.2914,-2.2619,-2.2311,0.0,-2.1737,-2.143,-2.1109,-2.1109,-2.1109,-2.1109,-2.1109,-2.1109,-2.1109,0.0,0.0,0.0,0.0,0.0,0.0,0.0,-0.6402,-0.6607,-0.6997,-0.7058,-0.7051,-0.7038,-0.6715,-0.6504,0.0,0.0,0.0,0.0,0.0,0.0,0.0,0.0,0.0,0.0,0.0,0.0,0.0,0.0,0.0,0.0,0.0,0.0,0.0,0.0,0.0,0.0,0.0,0.0,0.0,0.0,0.0,0.0,0.0,0.0,0.0,0.0,0.0,0.0,0.0,0.0,-1.1041,-1.3251,-1.6085,-1.8988,-2.1075,0.0,0.0,-2.4489,-2.493,-2.4957,-2.4102,-2.282,-2.1159,-1.9078,0.0,-1.47,-1.3186,-1.1953,-1.1102,-1.1076,0.0,0.0,0.0,0.0,-1.5925,0.0,0.0,0.0,-2.1601,0.0,0.0,-2.4623,-2.5157,0.0,-2.5504,-2.5264,-2.5117,-2.5117,-2.4836,-2.4663,-2.4636,-2.4636,-2.4636,-2.4636,-2.4636,-2.4489,-2.4195,-2.3915,-2.3621,-2.3313,-2.3006,-2.2928,-2.2928,-2.2901,-2.2498,0.0,-2.1951,-2.1617,-2.1109,-2.1109,-2.1109,-2.1109,-2.1109,-2.1109,-2.1109,0.0,0.0,0.0,0.0,0.0,0.0,0.0,-0.6497,-0.677,-0.7224,-0.7278,-0.7278,-0.7278,-0.7034,-0.6763,0.0,0.0,0.0,0.0,0.0,0.0,0.0,0.0,0.0,0.0,0.0,0.0,-0.6429,0.0,0.0,0.0,0.0,0.0,0.0,0.0,0.0,0.0,0.0,0.0,0.0,0.0,0.0,0.0,0.0,0.0,0.0,0.0,0.0,0.0,0.0,0.0,0.0,-1.1813,-1.3991,0.0,0.0,-2.1323,-2.2712,-2.3607,-2.3941,-2.3888,-2.3354,-2.1844,-2.0,-1.8171,0.0,-1.4057,-1.2569,-1.1605,-1.0942,-1.0801,0.0,0.0,0.0,0.0,0.0,0.0,0.0,0.0,0.0,-2.2164,0.0,0.0,0.0,-2.5064,-2.5237,-2.4983,-2.481,-2.481,-2.4703,-2.4636,-2.4636,-2.4636,-2.4636,-2.4636,-2.4636,-2.4583,-2.4462,-2.3995,-2.3714,-2.3581,-2.3086,-2.2928,-2.2914,-2.2672,-2.2365,0.0,-2.1804,-2.1483,-2.1109,-2.1109,-2.1109,-2.1109,-2.1109,-2.1109,-2.1109,0.0,0.0,0.0,0.0,0.0,0.0,-0.6252,-0.6512,-0.6844,-0.7251,-0.7346,-0.7419,-0.7419,-0.7272,-0.7027,-0.658,0.0,0.0,0.0,0.0,0.0,0.0,0.0,0.0,0.0,0.0,-0.6409,-0.6511,-0.6559,-0.6593,0.0,0.0,0.0,0.0,0.0,0.0,0.0,0.0,0.0,0.0,0.0,0.0,0.0,0.0,0.0,0.0,0.0,0.0,0.0,0.0,0.0,0.0,0.0,0.0,0.0,0.0,-1.9721,-2.1232,-2.2138,-2.2604,-2.2712,-2.2311,-2.0869,-1.9078,0.0,0.0,-1.3454,-1.2181,-1.1363,-1.0827,-1.0626,0.0,0.0,0.0,0.0,0.0,0.0,0.0,0.0,0.0,0.0,-2.2632,0.0,-2.4369,-2.4716,-2.493,-2.4756,-2.4636,-2.4636,-2.4636,-2.4636,-2.4636,-2.4636,-2.4596,-2.4516,-2.4516,-2.4462,-2.4369,-2.3875,-2.3647,-2.3621,-2.31,-2.2887,-2.2712,-2.2512,-2.2205,0.0,-2.1695,-2.1376,-2.1109,-2.1109,-2.1109,-2.1109,-2.1109,-2.1109,-2.1109,0.0,0.0,0.0,0.0,0.0,0.0,0.0,-0.6512,-0.6803,-0.7058,-0.7278,-0.7419,-0.7419,-0.7412,-0.719,-0.6736,0.0,0.0,0.0,0.0,0.0,0.0,0.0,0.0,0.0,0.0,-0.6511,-0.6511,-0.662,-0.6702,-0.6702,-0.6702,-0.6702,0.0,0.0,0.0,0.0,0.0,0.0,0.0,0.0,0.0,0.0,0.0,0.0,0.0,0.0,0.0,0.0,0.0,0.0,0.0,0.0,0.0,0.0,0.0,-1.7536,-1.8866,-2.0007,-2.0932,-2.1494,-2.0842,-1.9813,-1.8464,0.0,0.0,-1.2959,-1.2087,-1.1203,-1.06,-1.0586,0.0,0.0,0.0,0.0,0.0,0.0,0.0,0.0,0.0,0.0,-2.2031,-2.322,-2.4128,-2.4636,-2.4562,-2.4636,0.0,-2.4636,-2.4636,-2.4636,-2.4636,-2.4636,-2.4502,-2.4209,-2.4209,-2.4062,-2.3781,-2.3474,-2.3327,-2.3327,-2.3006,-2.2699,-2.2418,-2.2418,-2.2084,0.0,-2.1614,-2.1376,-2.1109,-2.1109,-2.1109,-2.1109,-2.1109,-2.1109,-2.1109,0.0,0.0,0.0,0.0,0.0,0.0,0.0,-0.6274,-0.658,-0.7031,-0.7139,-0.7251,-0.7405,-0.7278,-0.7075,-0.6729,0.0,0.0,0.0,0.0,0.0,0.0,0.0,0.0,0.0,0.0,-0.662,-0.6932,-0.6937,-0.7109,-0.7312,-0.721,-0.7102,-0.695,-0.6742,0.0,0.0,0.0,0.0,0.0,0.0,0.0,0.0,0.0,0.0,0.0,0.0,0.0,0.0,0.0,0.0,0.0,0.0,0.0,0.0,-1.2092,-1.4599,-1.7146,-1.822,-1.8986,-1.9359,-1.8971,-1.7996,-1.6754,-1.5391,0.0,0.0,-1.1703,-1.1069,-1.0586,-1.0586,0.0,0.0,0.0,0.0,0.0,0.0,0.0,0.0,0.0,0.0,0.0,0.0,0.0,-2.4636,-2.4636,-2.4636,-2.4636,-2.4636,-2.4636,-2.4543,-2.4342,-2.4342,-2.4195,-2.3915,-2.3915,-2.3861,-2.3768,-2.3474,-2.3327,-2.3313,-2.3006,-2.2699,-2.2405,-2.2205,-2.1911,0.0,-2.1336,-2.1189,-2.1109,-2.1109,-2.1109,-2.1109,-2.1109,-2.1109,-2.1109,0.0,0.0,0.0,0.0,0.0,0.0,0.0,-0.6125,-0.645,-0.6831,-0.6939,-0.7007,-0.7109,-0.7034,-0.6878,-0.6634,0.0,0.0,0.0,0.0,0.0,0.0,0.0,0.0,0.0,-0.6641,-0.6858,-0.7098,-0.7213,-0.7414,-0.7597,-0.7502,-0.7373,-0.7217,-0.6973,-0.6749,0.0,0.0,0.0,0.0,0.0,0.0,-0.63,0.0,0.0,0.0,0.0,0.0,0.0,0.0,0.0,0.0,0.0,0.0,0.0,0.0,-1.2046,-1.4436,0.0,-1.6793,-1.7275,-1.7088,-1.6326,-1.5337,0.0,0.0,0.0,0.0,0.0,0.0,0.0,0.0,0.0,0.0,0.0,0.0,0.0,0.0,0.0,0.0,0.0,0.0,0.0,-2.4302,-2.4636,-2.4636,-2.4636,-2.4636,-2.4636,-2.4529,-2.4342,-2.4048,-2.4142,-2.4008,-2.3607,-2.3607,-2.3541,-2.342,-2.3247,-2.3153,-2.314,-2.2832,-2.2539,-2.2231,-2.1951,0.0,0.0,-2.1189,-2.1109,-2.1109,-2.1109,-2.1109,-2.1109,-2.1109,-2.1109,-2.1109,0.0,0.0,0.0,0.0,0.0,0.0,0.0,0.0,0.0,0.0,-0.6586,-0.6688,-0.6702,-0.6688,-0.6627,0.0,0.0,0.0,0.0,0.0,0.0,0.0,0.0,0.0,-0.6525,-0.6919,-0.7112,-0.7146,-0.7482,-0.7645,-0.7658,-0.7638,-0.7556,-0.7453,-0.7224,-0.6923,-0.6668,-0.6422,-0.63,-0.63,-0.63,-0.63,0.0,0.0,0.0,0.0,0.0,0.0,0.0,0.0,0.0,0.0,0.0,0.0,0.0,0.0,0.0,0.0,0.0,-1.4469,-1.5231,-1.5217,-1.4776,-1.4148,-1.3307,0.0,0.0,0.0,0.0,0.0,0.0,0.0,0.0,0.0,0.0,0.0,0.0,-1.6059,0.0,0.0,-2.1964,0.0,-2.3714,-2.4302,-2.4636,-2.4636,-2.4636,-2.4549,-2.4609,-2.4356,-2.4062,-2.3754,-2.3995,-2.3875,-2.33,-2.33,-2.3153,-2.2928,-2.2928,-2.2914,-2.2819,-2.2539,-2.2245,0.0,-2.1735,0.0,0.0,-2.1109,-2.1109,-2.1109,-2.1109,-2.1109,-2.1109,-2.1109,-2.1109,-2.1109,0.0,0.0,0.0,0.0,0.0,0.0,0.0,0.0,0.0,0.0,0.0,-0.6573,-0.6688,-0.6593,0.0,0.0,0.0,0.0,0.0,0.0,0.0,0.0,0.0,0.0,-0.6647,-0.693,-0.726,-0.7651,-0.7793,-0.8052,-0.8269,-0.8045,-0.7867,-0.7862,-0.7314,-0.6912,-0.6552,-0.6375,-0.63,-0.63,-0.63,-0.63,0.0,0.0,0.0,0.0,-0.5854,-0.5959,0.0,0.0,0.0,0.0,0.0,0.0,0.0,0.0,-0.91,-1.002,-1.0924,0.0,-1.3667,-1.3467,-1.3093,-1.2705,0.0,0.0,0.0,0.0,0.0,0.0,0.0,0.0,0.0,0.0,0.0,0.0,-1.4874,0.0,0.0,-2.0494,-2.1964,-2.3169,-2.3714,-2.4302,-2.4636,-2.4636,-2.4636,-2.4543,-2.4315,-2.4235,-2.3968,-2.3447,-2.35,-2.3354,-2.2979,-2.2966,-2.2939,-2.2928,-2.2928,-2.2739,-2.2525,-2.2458,-2.2138,-2.1722,0.0,0.0,-2.1109,-2.1109,-2.1109,-2.1109,-2.1109,-2.1109,-2.1109,-2.1109,-2.1109,-2.1109,0.0,0.0,0.0,0.0,0.0,0.0,0.0,0.0,0.0,0.0,0.0,0.0,0.0,0.0,0.0,0.0,0.0,0.0,0.0,0.0,0.0,0.0,0.0,-0.6681,-0.6898,-0.7197,-0.7536,-0.7916,-0.8133,-0.8364,-0.8581,-0.8425,-0.8275,-0.8113,-0.7328,-0.6871,-0.6566,-0.6388,-0.63,-0.63,-0.63,0.0,0.0,0.0,0.0,0.0,-0.5942,-0.6014,0.0,-0.6573,-0.6942,-0.7204,0.0,0.0,0.0,0.0,-0.8424,-0.9383,-0.9822,-1.1128,-1.2358,-1.2184,-1.2024,-1.1824,-1.153,0.0,0.0,0.0,0.0,0.0,0.0,0.0,0.0,0.0,-1.3667,0.0,0.0,0.0,0.0,-2.0949,-2.2204,-2.3169,0.0,0.0,-2.4489,-2.4623,-2.4516,-2.4369,-2.4209,-2.3955,-2.3661,-2.334,-2.3193,-2.3033,-2.2928,-2.2928,-2.2928,-2.2928,-2.2726,-2.2579,-2.2405,-2.2151,-2.1844,-2.1614,0.0,0.0,-2.1109,-2.1109,-2.1109,-2.1109,-2.1109,-2.1109,-2.1109,-2.1109,-2.1109,-2.1109,0.0,0.0,0.0,0.0,0.0,0.0,0.0,0.0,0.0,0.0,0.0,0.0,0.0,0.0,0.0,0.0,0.0,0.0,0.0,0.0,0.0,0.0,0.0,-0.6865,-0.7092,-0.7489,-0.7814,-0.8056,-0.8404,-0.8642,-0.8811,-0.8764,-0.8547,-0.8167,-0.7353,-0.6885,-0.6681,-0.645,-0.632,-0.63,-0.63,0.0,0.0,0.0,0.0,0.0,0.0,0.0,0.0,-0.6539,-0.6843,-0.704,-0.6778,0.0,0.0,0.0,0.0,0.0,-0.9396,-1.0345,-1.1188,-1.1255,-1.1289,-1.1236,-1.0982,0.0,0.0,0.0,0.0,0.0,0.0,-1.2037,0.0,0.0,0.0,0.0,-1.8317,-1.9586,-2.0628,-2.1574,-2.2418,0.0,-2.3647,-2.3968,-2.4235,0.0,0.0,-2.4115,-2.4075,-2.3594,-2.33,-2.326,-2.3006,-2.2914,-2.2792,-2.2846,-2.2846,-2.2792,-2.2539,-2.2378,-2.2271,-2.1842,-2.1588,-2.1534,0.0,0.0,-2.1109,-2.1109,-2.1109,-2.1109,-2.1109,-2.1109,-2.1109,-2.1109,-2.1109,-2.1109,0.0,0.0,0.0,0.0,0.0,0.0,0.0,0.0,0.0,0.0,0.0,0.0,0.0,0.0,0.0,0.0,0.0,0.0,0.0,0.0,0.0,0.0,-0.681,-0.693,-0.7092,-0.7638,-0.8119,-0.8418,-0.8716,-0.9008,-0.9273,-0.9022,-0.854,-0.7862,-0.7475,-0.7075,-0.6688,-0.6552,-0.6409,-0.63,-0.63,0.0,0.0,0.0,0.0,0.0,0.0,0.0,0.0,-0.6383,-0.6482,-0.6548,-0.6671,0.0,0.0,0.0,0.0,0.0,-0.9396,-0.9841,-1.0303,-1.0624,-1.072,-1.072,0.0,0.0,0.0,0.0,0.0,0.0,0.0,-1.2665,-1.336,0.0,0.0,-1.7662,0.0,0.0,-2.0935,-2.1817,0.0,0.0,0.0,0.0,0.0,0.0,0.0,-2.3728,-2.3474,-2.338,-2.3207,-2.2939,-2.2886,-2.2739,-2.2485,-2.2739,-2.2739,-2.2485,-2.2445,-2.2164,-2.1748,-2.1655,-2.148,-2.1176,0.0,-2.1109,-2.1109,-2.1109,-2.1109,-2.1109,-2.1109,-2.1109,-2.1109,-2.1109,-2.1109,-2.1109,0.0,0.0,0.0,0.0,0.0,0.0,0.0,0.0,0.0,0.0,0.0,0.0,0.0,0.0,0.0,0.0,0.0,0.0,0.0,0.0,0.0,-0.681,-0.7122,-0.736,-0.7456,-0.7936,-0.8391,-0.89,-0.915,-0.9449,-0.9734,-0.9273,-0.8696,-0.8038,-0.7624,-0.7122,-0.6688,-0.6539,-0.6429,-0.63,0.0,0.0,0.0,0.0,0.0,0.0,0.0,0.0,0.0,0.0,-0.635,-0.6317,-0.6408,0.0,0.0,0.0,0.0,0.0,-0.9107,-0.9568,-0.9989,-1.0432,-1.0601,-1.0698,0.0,0.0,0.0,0.0,0.0,0.0,0.0,0.0,-1.4175,-1.5698,0.0,-1.8905,-1.9933,-2.0962,-2.183,0.0,0.0,0.0,0.0,0.0,0.0,0.0,0.0,0.0,-2.334,-2.3166,-2.3006,-2.2928,-2.2712,-2.2552,-2.2418,-2.2405,-2.2325,-2.2178,-2.2031,-2.1817,-2.1614,-2.139,-2.1243,-2.1109,0.0,-2.1109,-2.1109,-2.1109,-2.1109,-2.1109,-2.1109,-2.1109,-2.1109,-2.1109,-2.1109,-2.1109,0.0,0.0,0.0,0.0,0.0,0.0,0.0,0.0,0.0,0.0,0.0,0.0,0.0,0.0,0.0,0.0,0.0,0.0,0.0,0.0,-0.6661,-0.6923,-0.7407,-0.7733,-0.7916,-0.8289,-0.8791,-0.9316,-0.9564,-0.9808,-0.9923,-0.9415,-0.8907,-0.8347,-0.774,-0.7177,-0.6742,-0.6586,-0.6463,-0.63,0.0,0.0,0.0,0.0,0.0,0.0,0.0,0.0,0.0,0.0,0.0,0.0,0.0,0.0,0.0,-0.7138,-0.7814,-0.8463,-0.8861,-0.9327,-0.9811,-1.0317,0.0,0.0,0.0,0.0,0.0,0.0,0.0,0.0,0.0,-1.4043,0.0,-1.73,-1.8691,-1.992,-2.0935,-2.1911,-2.2632,-2.2939,-2.318,0.0,0.0,0.0,0.0,0.0,0.0,0.0,-2.3113,-2.2886,-2.2726,-2.2659,-2.2432,-2.2285,-2.2218,-2.1991,-2.1884,-2.1884,-2.1722,-2.1574,-2.1443,-2.1216,-2.1109,-2.1109,-2.1109,-2.1109,-2.1109,-2.1109,-2.1109,-2.1109,-2.1109,-2.1109,-2.1109,-2.1109,-2.1109,-2.1109,0.0,0.0,0.0,0.0,0.0,0.0,0.0,0.0,0.0,0.0,0.0,0.0,0.0,0.0,0.0,0.0,0.0,0.0,0.0,0.0,-0.6817,-0.7065,-0.7556,-0.7936,-0.8235,-0.8852,-0.9309,-0.9578,-0.9815,-0.9896,-0.9829,-0.9367,-0.8961,-0.8438,-0.7848,-0.7333,-0.6862,-0.6749,-0.6519,-0.63,-0.63,0.0,0.0,0.0,0.0,0.0,0.0,0.0,0.0,0.0,0.0,0.0,0.0,0.0,-0.6548,-0.726,-0.7749,-0.8149,-0.8668,-0.9128,-0.9565,-1.0101,-1.0466,0.0,-1.1642,-1.2288,0.0,-1.3053,0.0,0.0,0.0,-1.5551,-1.7021,-1.8544,-1.9573,-2.0668,-2.2098,0.0,-2.2953,-2.326,-2.3313,0.0,0.0,0.0,0.0,0.0,0.0,0.0,-2.2498,-2.2458,-2.2325,-2.2058,-2.2031,-2.1884,-2.1681,-2.1655,-2.1655,-2.1655,-2.1628,-2.1403,-2.1136,-2.1122,-2.1109,-2.1109,-2.1109,-2.1109,-2.1109,-2.1109,-2.1109,-2.1109,-2.1109,-2.1109,-2.1109,-2.1109,-2.1109,-2.1109,0.0,0.0,0.0,0.0,0.0,0.0,0.0,0.0,0.0,0.0,0.0,0.0,0.0,0.0,0.0,0.0,0.0,0.0,0.0,0.0,-0.6878,-0.7265,-0.7712,-0.818,-0.8676,-0.9089,-0.949,-0.9883,-1.0181,-1.0202,-0.9889,-0.9503,-0.9001,-0.8459,-0.7957,-0.7482,-0.7004,-0.6803,-0.658,-0.6422,-0.6334,-0.6149,0.0,0.0,0.0,0.0,0.0,0.0,0.0,0.0,-0.5888,0.0,0.0,0.0,0.0,0.0,-0.7326,-0.7782,-0.8182,-0.8777,-0.9502,-1.0426,-1.1148,0.0,0.0,-1.3065,-1.3762,-1.4202,-1.4616,0.0,0.0,0.0,-1.7943,-1.9252,-2.0361,-2.143,-2.2539,-2.2953,-2.326,-2.3567,-2.3434,0.0,0.0,0.0,0.0,0.0,0.0,0.0,-2.2432,-2.2245,-2.2098,-2.1991,-2.1804,-2.1735,-2.1614,-2.1363,-2.1269,-2.1269,-2.1269,-2.1216,-2.1109,-2.1109,-2.1109,-2.1109,-2.1109,-2.1109,-2.1109,-2.1109,-2.1109,-2.1109,-2.1109,-2.1109,-2.1109,-2.1109,-2.1109,-2.1109,0.0,0.0,0.0,0.0,0.0,0.0,0.0,0.0,0.0,0.0,0.0,0.0,0.0,0.0,0.0,0.0,0.0,0.0,0.0,-0.6641,-0.6926,-0.7421,-0.778,-0.8197,-0.8797,-0.9157,-0.9637,-1.019,-1.0371,-1.0317,-0.9909,-0.9564,-0.9083,-0.8533,-0.8031,-0.759,-0.719,-0.6844,-0.6614,-0.6497,-0.6354,-0.6115,0.0,0.0,0.0,0.0,0.0,0.0,0.0,0.0,0.0,0.0,0.0,0.0,0.0,0.0,0.0,-0.7508,-0.8002,-0.8752,-0.9708,-1.0791,0.0,0.0,-1.348,-1.4177,-1.4803,-1.5391,-1.5818,0.0,-1.7128,0.0,0.0,0.0,-2.0962,-2.1963,0.0,0.0,0.0,0.0,0.0,0.0,0.0,0.0,0.0,0.0,0.0,0.0,0.0,-2.1951,-2.1804,-2.171,-2.1523,-2.1416,-2.1416,-2.1216,-2.1109,-2.1109,-2.1109,-2.1109,-2.1109,-2.1109,-2.1109,-2.1109,-2.1109,-2.1109,-2.1109,-2.1109,-2.1109,-2.1109,-2.1109,-2.1109,-2.1109,-2.1109,-2.1109,-2.1109,0.0,0.0,0.0,0.0,0.0,0.0,0.0,0.0,0.0,0.0,0.0,0.0,0.0,0.0,0.0,0.0,0.0,0.0,-0.6681,-0.6702,-0.6966,-0.757,-0.7733,-0.8092,-0.8696,-0.9001,-0.9582,-1.0276,-1.0419,-1.0256,-0.9808,-0.9517,-0.9137,-0.8682,-0.8085,-0.7651,-0.7392,-0.6892,-0.6614,-0.6504,-0.6361,-0.6115,-0.58,0.0,0.0,0.0,0.0,0.0,0.0,0.0,-0.5583,0.0,0.0,0.0,0.0,0.0,-0.6778,-0.7381,-0.8193,-0.9137,-1.0172,0.0,0.0,0.0,-1.5158,-1.5631,-1.5971,-1.6607,0.0,-1.7782,-1.8397,-1.8744,0.0,-2.0882,-2.1363,-2.1977,0.0,0.0,0.0,0.0,0.0,0.0,0.0,0.0,0.0,0.0,0.0,0.0,0.0,-2.1614,-2.1416,-2.1122,-2.1109,-2.1109,-2.1109,-2.1109,-2.1109,-2.1109,-2.1109,-2.1109,-2.1109,-2.1109,-2.1109,-2.1109,-2.1109,-2.1109,-2.1109,-2.1109,-2.1109,-2.1109,-2.1109,-2.1109,-2.1109,-2.1109,-2.1109,-2.1109,0.0,0.0,0.0,0.0,0.0,0.0,0.0,0.0,0.0,0.0,0.0,0.0,0.0,0.0,0.0,0.0,0.0,0.0,-0.6681,-0.6702,-0.6919,-0.7414,-0.7678,-0.7997,-0.8391,-0.9001,-0.9523,-0.9958,-0.9998,-0.9849,-0.951,-0.9313,-0.9036,-0.854,-0.8255,-0.7909,-0.7502,-0.7054,-0.677,-0.6614,-0.6402,-0.6115,-0.58,0.0,0.0,0.0,0.0,0.0,0.0,0.0,0.0,0.0,0.0,0.0,0.0,0.0,-0.7104,-0.7979,-0.8637,-0.9721,0.0,-1.2042,0.0,0.0,0.0,-1.67,0.0,0.0,-1.8718,-1.8958,-1.9345,0.0,0.0,-2.1243,-2.167,-2.2205,0.0,0.0,0.0,0.0,0.0,0.0,0.0,0.0,0.0,0.0,0.0,0.0,0.0,-2.1349,-2.1203,-2.1109,-2.1109,-2.1109,-2.1109,-2.1109,-2.1109,-2.1109,-2.1109,-2.1109,-2.1109,-2.1109,-2.1109,-2.1109,-2.1109,-2.1109,-2.1109,-2.1109,-2.1109,-2.1109,-2.1109,-2.1109,-2.1109,-2.1109,-2.1109,-2.1109,0.0,0.0,0.0,0.0,0.0,0.0,0.0,0.0,0.0,0.0,-0.63,-0.63,0.0,0.0,0.0,0.0,0.0,0.0,0.0,0.0,-0.6898,-0.7398,-0.7543,-0.7807,-0.8174,-0.8791,-0.9171,-0.9286,-0.953,-0.9496,-0.9205,-0.911,-0.8859,-0.8472,-0.8388,-0.8018,-0.757,-0.7122,-0.6844,-0.6675,-0.6416,-0.6115,-0.58,0.0,0.0,0.0,0.0,0.0,0.0,0.0,0.0,0.0,0.0,0.0,0.0,-0.6512,-0.7329,-0.8331,-0.9288,0.0,0.0,0.0,-1.4296,-1.5769,-1.7503,0.0,0.0,0.0,0.0,-2.0147,-2.0441,-2.0641,0.0,-2.1777,-2.2044,-2.2392,-2.3046,0.0,0.0,0.0,0.0,0.0,0.0,0.0,0.0,0.0,0.0,0.0,0.0,-2.1203,-2.1056,-2.0935,-2.0935,-2.0882,-2.0762,-2.0762,-2.0762,-2.0762,-2.0762,-2.0762,-2.0775,-2.1002,-2.1109,-2.1109,-2.1109,-2.1109,-2.1109,-2.1109,-2.1109,-2.1109,-2.1109,-2.1109,-2.1109,-2.1109,-2.1109,-2.1109,0.0,0.0,-0.5446,-0.5583,0.0,0.0,0.0,0.0,0.0,0.0,-0.63,-0.63,0.0,0.0,0.0,0.0,0.0,0.0,0.0,0.0,-0.6892,-0.7333,-0.7412,-0.757,-0.7941,-0.8411,-0.8554,-0.8397,-0.9015,-0.9178,-0.8844,-0.8844,-0.8743,-0.8459,-0.833,-0.8018,-0.757,-0.7136,-0.6851,-0.6675,-0.6416,-0.6115,-0.58,-0.58,0.0,0.0,0.0,0.0,0.0,0.0,0.0,0.0,0.0,0.0,0.0,-0.6674,-0.7521,-0.8574,-1.0081,0.0,0.0,0.0,0.0,0.0,-1.9292,0.0,-2.008,-2.0641,0.0,-2.1269,-2.1601,-2.1655,-2.1777,-2.2325,-2.2418,-2.2512,-2.2779,0.0,0.0,0.0,0.0,0.0,0.0,0.0,0.0,0.0,0.0,0.0,0.0,-2.1042,-2.0909,-2.0641,-2.0641,-2.0508,-2.018,-2.0167,-2.0167,-2.0167,-2.0167,-2.0167,-2.0193,-2.0788,-2.1042,-2.1069,-2.1069,-2.1082,-2.1109,-2.1109,-2.1109,-2.1109,-2.1109,-2.1109,-2.1109,-2.1109,-2.1109,-2.1109,0.0,0.0,-0.5481,-0.5711,0.0,0.0,0.0,0.0,0.0,0.0,0.0,0.0,0.0,-0.63,0.0,0.0,0.0,0.0,0.0,0.0,-0.6844,-0.7132,-0.7305,-0.7475,-0.7692,-0.7896,-0.7936,-0.7787,-0.8506,-0.8757,-0.8581,-0.8581,-0.8486,-0.8368,-0.8333,-0.8018,-0.7577,-0.7193,-0.6896,-0.6675,-0.6416,-0.6115,-0.58,-0.58,-0.5616,0.0,0.0,0.0,0.0,0.0,0.0,0.0,-0.5392,-0.5816,-0.6399,-0.7028,-0.8208,-0.9607,0.0,-1.2086,0.0,0.0,0.0,0.0,0.0,0.0,-2.0922,-2.136,-2.159,-2.1817,-2.1884,-2.1897,-2.2004,-2.2365,-2.2418,-2.2445,0.0,0.0,0.0,0.0,0.0,0.0,0.0,0.0,0.0,0.0,0.0,0.0,-2.0775,-2.0548,-2.0388,-2.0334,-2.0334,-2.0294,-2.0167,-2.0167,-2.0167,0.0,-2.0167,-2.0167,-2.018,-2.03,-2.0548,-2.0775,-2.0775,-2.0895,-2.1109,-2.1109,-2.1109,-2.1109,-2.1109,-2.1109,-2.1109,-2.1109,-2.1109,-2.1109,0.0,0.0,0.0,0.0,0.0,0.0,0.0,0.0,0.0,0.0,0.0,0.0,0.0,-0.63,0.0,0.0,-0.63,0.0,0.0,0.0,-0.6831,-0.7085,-0.7285,-0.7453,-0.7489,-0.7638,-0.7672,-0.7597,-0.8058,-0.8275,-0.8269,-0.8343,-0.8395,-0.832,-0.8194,-0.795,-0.7577,-0.7152,-0.6862,-0.6668,-0.6302,-0.601,-0.5793,-0.5725,-0.559,-0.5392,-0.5392,0.0,0.0,0.0,0.0,0.0,0.0,0.0,-0.6516,-0.7122,-0.8337,-0.9795,0.0,0.0,0.0,0.0,0.0,0.0,0.0,0.0,0.0,0.0,0.0,-2.1991,-2.1991,-2.1991,0.0,0.0,0.0,0.0,0.0,0.0,0.0,0.0,0.0,0.0,0.0,0.0,0.0,0.0,0.0,-2.0615,-2.0468,-2.0321,-2.0174,-2.0027,-2.0027,-1.996,-1.9813,-1.9813,-1.9813,-1.9813,-1.9813,-1.9813,-1.9826,-2.0107,-2.0321,-2.0468,-2.0615,-2.0762,-2.0909,-2.1056,-2.1109,-2.1109,-2.1109,-2.1109,-2.1109,-2.1109,-2.1109,-2.1109,0.0,0.0,0.0,0.0,0.0,0.0,0.0,0.0,0.0,0.0,0.0,0.0,0.0,0.0,-0.63,0.0,0.0,0.0,0.0,-0.6641,-0.6851,-0.7051,-0.7224,-0.7305,-0.7333,-0.7434,-0.7495,-0.7522,-0.7692,-0.7841,-0.7921,-0.8147,-0.8235,-0.8221,-0.8065,-0.7834,-0.7536,-0.7109,-0.6824,-0.6627,-0.6161,-0.5935,-0.5786,-0.5644,-0.5528,-0.5392,-0.5392,-0.5392,-0.5392,-0.5392,0.0,0.0,0.0,0.0,-0.6442,-0.7114,-0.8226,-0.9583,0.0,0.0,0.0,0.0,0.0,0.0,0.0,0.0,0.0,0.0,0.0,0.0,0.0,0.0,0.0,0.0,0.0,0.0,0.0,0.0,0.0,0.0,0.0,0.0,0.0,0.0,0.0,0.0,0.0,-2.0414,-2.0174,-2.0107,-1.9973,-1.9733,-1.972,-1.9613,-1.943,-1.943,-1.943,-1.943,-1.943,-1.943,-1.9444,-1.9867,-2.0107,-2.0174,-2.0414,-2.0548,-2.0628,-2.0909,-2.1029,-2.1042,-2.1096,-2.1109,-2.1109,-2.1109,-2.1109,-2.1109,0.0,0.0,0.0,0.0,0.0,0.0,0.0,0.0,0.0,0.0,-0.63,-0.63,0.0,0.0,0.0,-0.63,-0.63,0.0,-0.6504,0.0,0.0,-0.691,-0.6937,-0.7004,-0.7125,-0.7024,-0.7038,-0.7159,-0.7489,-0.7638,-0.7665,-0.7943,-0.8022,-0.8015,-0.7909,-0.7678,-0.738,-0.7061,-0.6763,-0.6518,-0.6159,-0.5935,-0.5786,-0.5644,-0.5528,-0.5392,-0.5392,-0.5392,-0.5392,-0.5392,-0.5392,0.0,0.0,0.0,-0.6159,-0.7045,-0.8079,-0.9354,0.0,0.0,0.0,0.0,0.0,0.0,0.0,0.0,0.0,0.0,0.0,0.0,0.0,0.0,0.0,0.0,0.0,0.0,0.0,0.0,0.0,0.0,0.0,0.0,0.0,0.0,0.0,0.0,-2.0054,-1.9893,-1.9867,-1.9626,-1.9466,-1.9426,-1.9426,-1.947,-1.943,-1.943,-1.943,-1.943,-1.943,-1.943,-1.943,-1.9452,-1.9626,-1.9867,-1.9893,-2.0067,-2.0307,-2.0615,-2.0735,-2.0762,-2.1015,-2.1109,-2.1109,-2.1109,-2.1109,-2.1109,0.0,0.0,0.0,0.0,0.0,0.0,0.0,0.0,0.0,0.0,0.0,-0.63,0.0,0.0,0.0,0.0,0.0,0.0,-0.6504,-0.66,0.0,0.0,-0.6803,-0.6831,-0.6892,-0.6876,-0.6916,-0.6977,-0.7414,-0.7597,-0.7604,-0.7853,-0.7988,-0.7982,-0.7794,-0.7577,-0.7392,-0.6966,-0.6675,-0.6477,-0.6057,-0.5915,-0.5901,-0.5677,-0.5596,-0.561,-0.561,-0.559,-0.5521,-0.5521,-0.5467,-0.5392,-0.5392,0.0,0.0,0.0,-0.7906,0.0,0.0,0.0,0.0,0.0,0.0,0.0,0.0,0.0,0.0,0.0,0.0,0.0,0.0,0.0,0.0,0.0,0.0,0.0,0.0,0.0,0.0,0.0,0.0,0.0,0.0,0.0,0.0,0.0,-1.9867,-1.9733,-1.9559,-1.9439,-1.9292,-1.9118,-1.9118,-1.9038,-1.8878,-1.8878,-1.8878,-1.8878,-1.8878,-1.8958,-1.9118,-1.9118,-1.9279,-1.9559,-1.9733,-1.9867,-2.0013,-2.0307,-2.0521,-2.0695,-2.0815,-2.0962,-2.1109,-2.1109,-2.1109,-2.1109,0.0,0.0,0.0,0.0,0.0,0.0,0.0,0.0,0.0,0.0,0.0,0.0,0.0,0.0,0.0,0.0,0.0,0.0,-0.645,0.0,0.0,0.0,0.0,-0.6661,-0.6702,-0.6776,-0.6851,-0.6883,0.0,0.0,-0.7604,-0.7862,-0.7934,-0.7921,-0.7712,-0.7495,-0.7285,-0.6878,-0.6593,-0.6422,-0.601,-0.5928,-0.5966,-0.5745,-0.5732,-0.5854,-0.5813,-0.5759,-0.5698,-0.5657,-0.5576,-0.5453,-0.5453,-0.5745,0.0,0.0,0.0,0.0,0.0,0.0,0.0,0.0,0.0,0.0,0.0,0.0,0.0,0.0,0.0,0.0,0.0,0.0,0.0,0.0,0.0,0.0,0.0,0.0,0.0,0.0,0.0,0.0,0.0,0.0,0.0,0.0,-1.9693,-1.9559,-1.9265,-1.9252,-1.9118,-1.8824,-1.8811,-1.8704,-1.849,-1.849,-1.849,-1.849,-1.849,-1.8597,-1.8811,-1.8891,-1.9052,-1.9265,-1.9559,-1.9693,-1.972,-2.0,-2.0254,-2.0468,-2.0535,-2.0748,-2.1002,-2.1002,-2.1042,-2.1109,0.0,0.0,0.0,0.0,0.0,0.0,0.0,0.0,0.0,0.0,0.0,0.0,0.0,-0.63,-0.63,-0.63,0.0,0.0,0.0,0.0,0.0,0.0,0.0,0.0,0.0,-0.6566,0.0,0.0,0.0,0.0,-0.7604,-0.7753,-0.7821,-0.7814,-0.7665,-0.7434,-0.7085,-0.6831,-0.6532,-0.6293,-0.6084,-0.5986,-0.5973,-0.5854,-0.5888,-0.5959,-0.5854,-0.5888,-0.5946,-0.584,-0.5698,-0.5576,-0.5576,-0.5616,-0.5759,0.0,0.0,0.0,0.0,0.0,0.0,0.0,0.0,0.0,0.0,0.0,0.0,0.0,0.0,0.0,0.0,0.0,0.0,0.0,0.0,0.0,0.0,0.0,0.0,0.0,0.0,0.0,0.0,0.0,0.0,0.0,-1.9444,-1.9265,-1.8958,-1.8945,-1.8811,-1.8517,-1.8517,-1.8504,-1.849,-1.849,-1.849,-1.849,-1.849,-1.8504,-1.8517,-1.8798,-1.8931,-1.8958,-1.9265,-1.9444,-1.947,-1.9706,-1.9826,-1.9867,-2.0147,-2.0441,-2.0695,-2.0695,-2.0869,-2.1109,0.0,0.0,0.0,0.0,0.0,0.0,0.0,0.0,0.0,0.0,0.0,0.0,0.0,-0.63,-0.63,-0.63,-0.63,0.0,0.0,0.0,0.0,0.0,0.0,0.0,0.0,0.0,0.0,0.0,0.0,-0.7152,-0.7267,-0.7556,-0.7678,-0.7672,-0.7624,-0.738,-0.695,-0.679,-0.6532,-0.6286,-0.6091,-0.6091,-0.6173,-0.6156,-0.6186,-0.6322,-0.6363,-0.6349,-0.6295,-0.6184,-0.5928,-0.5711,-0.5616,-0.5684,-0.6018,-0.7128,-0.8374,0.0,0.0,0.0,0.0,0.0,0.0,0.0,0.0,0.0,0.0,0.0,0.0,0.0,0.0,0.0,0.0,0.0,0.0,0.0,0.0,0.0,0.0,0.0,0.0,0.0,0.0,0.0,0.0,0.0,0.0,-1.8958,-1.8664,-1.8651,-1.8504,-1.8223,-1.821,-1.8116,-1.7903,-1.7903,-1.7903,-1.7903,-1.7903,-1.8009,-1.8223,-1.8504,-1.8744,-1.8945,-1.9239,-1.943,-1.943,-1.9479,-1.9626,-1.9813,-1.992,-2.0134,-2.0414,-2.0601,-2.0735,-2.0855,0.0,0.0,0.0,0.0,0.0,0.0,0.0,0.0,0.0,0.0,0.0,0.0,0.0,0.0,-0.645,-0.645,-0.6402,-0.6368,-0.6368,-0.6327,0.0,0.0,0.0,0.0,0.0,0.0,0.0,0.0,0.0,0.0,0.0,-0.7278,-0.7373,-0.7373,-0.7373,-0.721,0.0,-0.6763,-0.6532,-0.6293,-0.62,-0.624,-0.6381,-0.6484,-0.6573,-0.6709,-0.681,-0.6817,-0.6784,-0.6552,-0.6281,-0.5989,-0.58,-0.5803,-0.6109,-0.7183,-0.7952,0.0,-0.9511,0.0,0.0,0.0,0.0,0.0,0.0,0.0,0.0,0.0,0.0,0.0,0.0,0.0,0.0,0.0,0.0,0.0,0.0,0.0,0.0,0.0,0.0,0.0,0.0,0.0,0.0,0.0,0.0,0.0,-1.8357,-1.8343,-1.821,-1.7903,-1.7796,-1.7689,-1.7582,-1.7488,-1.7488,-1.7582,-1.7582,-1.7689,-1.7903,-1.8196,-1.849,-1.8798,-1.9092,-1.9279,-1.943,-1.943,-1.9479,-1.9653,-1.9653,-1.9826,-2.0107,-2.0307,-2.0508,-2.0708,0.0,0.0,0.0,0.0,0.0,0.0,0.0,0.0,0.0,0.0,0.0,0.0,0.0,0.0,0.0,-0.6702,-0.6566,-0.6518,-0.6511,-0.6381,0.0,0.0,0.0,0.0,0.0,0.0,0.0,0.0,0.0,0.0,0.0,0.0,-0.6876,-0.6876,-0.6876,-0.6876,-0.6862,-0.6756,-0.6525,-0.632,-0.6457,-0.6518,-0.6559,-0.6817,-0.6984,-0.7112,-0.7112,-0.7258,-0.7339,-0.7048,-0.6742,-0.647,-0.6118,-0.5966,-0.5995,-0.6548,-0.7098,0.0,0.0,0.0,0.0,0.0,0.0,0.0,-1.3477,0.0,0.0,0.0,0.0,0.0,0.0,0.0,0.0,0.0,0.0,0.0,0.0,0.0,0.0,0.0,0.0,0.0,0.0,0.0,0.0,0.0,-1.8477,-1.8343,-1.7995,-1.7969,-1.7822,-1.7569,-1.734,-1.7326,-1.7555,-1.7326,-1.734,-1.7569,-1.7569,-1.7569,-1.7595,-1.7889,-1.8196,-1.8504,-1.8798,-1.9092,-1.943,-1.943,-1.943,-1.943,-1.943,-1.9546,-1.9786,-1.98,-2.016,-2.0668,0.0,0.0,0.0,0.0,0.0,0.0,0.0,0.0,0.0,0.0,0.0,0.0,-0.6634,-0.6675,-0.6702,-0.6702,-0.6661,-0.6586,-0.6518,-0.6477,-0.6409,-0.6306,0.0,0.0,0.0,0.0,0.0,0.0,0.0,0.0,0.0,0.0,0.0,0.0,-0.6763,-0.6702,-0.6593,-0.6552,-0.6525,-0.6457,-0.6497,-0.6607,-0.6824,-0.6964,-0.72,-0.7489,-0.759,-0.7651,-0.7658,-0.7475,-0.7143,-0.6695,-0.6214,-0.5959,-0.5902,-0.625,-0.6448,-0.6681,-0.7179,0.0,0.0,0.0,0.0,0.0,-1.1953,-1.3179,-1.4256,0.0,0.0,0.0,0.0,0.0,0.0,0.0,0.0,0.0,0.0,0.0,0.0,0.0,0.0,0.0,0.0,0.0,0.0,0.0,-1.8115,-1.8036,-1.7729,-1.7515,-1.7261,-1.6954,-1.6874,-1.686,-1.6941,-1.6874,-1.6981,-1.7326,-1.7326,-1.7434,-1.7595,-1.7903,-1.8196,-1.8504,-1.8798,-1.9092,-1.943,-1.943,-1.943,-1.943,-1.943,-1.947,-1.9506,-1.972,-2.004,-2.0388,0.0,0.0,0.0,0.0,0.0,0.0,0.0,0.0,0.0,0.0,0.0,0.0,-0.7061,-0.7075,-0.7048,-0.6987,-0.6919,-0.6817,-0.6675,-0.66,-0.6545,-0.6395,0.0,0.0,0.0,0.0,0.0,0.0,0.0,0.0,0.0,0.0,0.0,0.0,-0.6519,-0.6504,-0.6429,-0.6491,0.0,0.0,-0.6675,-0.6858,-0.7011,-0.7341,-0.7577,-0.7821,-0.8092,-0.8147,-0.8079,-0.7997,-0.7543,-0.6905,-0.6398,-0.604,-0.5818,-0.6003,-0.6,-0.6036,-0.6437,-0.6739,-0.7153,-0.8132,0.0,0.0,-1.1255,-1.2401,-1.3476,0.0,0.0,0.0,0.0,0.0,0.0,0.0,0.0,0.0,0.0,0.0,0.0,0.0,0.0,0.0,0.0,-1.829,-1.8116,-1.7702,-1.7675,-1.7542,-1.7235,-1.7061,-1.6887,-1.6714,-1.658,-1.658,-1.67,-1.658,-1.674,-1.7206,-1.7206,-1.7353,-1.7595,-1.7769,-1.8023,-1.8317,-1.8611,-1.8918,-1.9199,-1.9319,-1.943,-1.943,-1.943,-1.943,-1.9444,-1.9559,-1.988,-2.0254,0.0,0.0,-0.5664,-0.5827,0.0,0.0,0.0,0.0,0.0,0.0,0.0,0.0,-0.759,-0.7624,-0.757,-0.7434,-0.7278,-0.7078,-0.6916,-0.6824,0.0,0.0,0.0,0.0,0.0,0.0,0.0,0.0,0.0,0.0,0.0,0.0,0.0,0.0,-0.63,-0.63,-0.6313,-0.647,0.0,-0.6559,-0.693,-0.7125,0.0,-0.7779,-0.8029,-0.8143,-0.8594,-0.8655,-0.8547,-0.8479,-0.7896,-0.7065,-0.6647,-0.62,-0.5856,-0.5825,-0.5712,-0.5666,-0.584,-0.614,-0.6647,-0.7579,-0.8547,0.0,-1.1071,-1.1954,-1.2739,-1.3733,0.0,0.0,0.0,0.0,0.0,0.0,0.0,0.0,0.0,0.0,0.0,0.0,0.0,0.0,-1.7876,-1.7876,-1.7662,-1.7192,-1.7152,-1.7018,-1.6673,-1.666,-1.6647,-1.6607,-1.6353,-1.6353,-1.6607,-1.6353,-1.6563,-1.7152,-1.7152,-1.7313,-1.7582,-1.7582,-1.7756,-1.8009,-1.8357,-1.8651,-1.8945,-1.9239,-1.943,-1.943,-1.943,-1.943,-1.943,-1.943,-1.9733,-2.0167,-0.5556,-0.5657,-0.5847,-0.6163,0.0,0.0,0.0,0.0,0.0,0.0,0.0,0.0,-0.7767,-0.7773,-0.776,-0.7726,-0.759,-0.7394,-0.7071,-0.7024,0.0,0.0,0.0,0.0,0.0,0.0,0.0,0.0,0.0,0.0,0.0,0.0,0.0,0.0,-0.63,-0.63,-0.632,0.0,0.0,-0.6858,-0.7018,-0.7314,-0.7706,-0.7901,-0.8292,-0.8723,-0.8811,-0.8947,-0.9002,-0.8525,-0.7957,-0.7414,-0.6837,-0.643,-0.6156,-0.5876,-0.5774,-0.5782,-0.5817,-0.6107,-0.6538,-0.7196,-0.821,0.0,-1.0453,-1.1515,-1.2428,0.0,0.0,0.0,0.0,0.0,0.0,0.0,0.0,0.0,0.0,0.0,0.0,0.0,0.0,0.0,-1.6967,-1.6967,-1.6914,-1.6807,-1.6794,-1.666,-1.638,-1.6353,-1.6246,-1.5957,-1.5904,-1.5939,-1.6005,-1.5939,-1.6206,-1.6794,-1.6794,-1.7074,-1.7582,-1.7582,-1.7756,-1.8009,-1.8357,-1.8651,-1.8945,-1.9239,-1.943,-1.943,-1.943,-1.943,-1.943,-1.943,-1.9733,-2.0167,-0.5562,-0.5705,-0.5901,-0.6245,0.0,0.0,0.0,0.0,0.0,0.0,0.0,0.0,0.0,-0.833,-0.8309,-0.816,0.0,0.0,0.0,0.0,0.0,0.0,0.0,0.0,0.0,0.0,0.0,0.0,0.0,0.0,0.0,0.0,0.0,0.0,0.0,0.0,0.0,0.0,-0.679,-0.691,-0.7251,0.0,-0.7901,-0.8174,-0.854,-0.8905,-0.911,-0.9205,-0.9255,-0.875,-0.8303,0.0,-0.7312,-0.6892,-0.6519,-0.6139,-0.5976,-0.5901,-0.5935,-0.6165,-0.6587,-0.73,-0.8276,0.0,0.0,-1.1094,-1.1874,-1.2268,0.0,0.0,0.0,0.0,0.0,0.0,0.0,0.0,0.0,0.0,0.0,0.0,0.0,0.0,-1.67,-1.658,-1.6366,-1.6072,-1.6046,-1.5992,-1.5845,-1.5965,-1.5979,-1.5832,-1.5784,-1.5784,-1.5784,-1.5784,-1.6077,-1.67,-1.67,-1.7007,-1.7582,-1.7582,-1.7662,-1.7836,-1.8143,-1.8437,-1.8731,-1.9025,-1.9239,-1.943,-1.943,-1.943,-1.943,-1.943,-1.9733,-2.0167,-0.5596,-0.5725,-0.5915,-0.632,0.0,0.0,0.0,0.0,0.0,0.0,0.0,0.0,0.0,-0.8974,-0.8967,-0.8723,-0.8648,0.0,-0.8011,-0.7821,0.0,0.0,0.0,-0.6851,0.0,0.0,0.0,0.0,0.0,0.0,0.0,0.0,0.0,0.0,0.0,0.0,0.0,0.0,0.0,-0.7048,0.0,-0.7794,-0.8113,-0.8384,-0.871,-0.9062,-0.9361,-0.9449,-0.9381,-0.9083,-0.8703,-0.8275,-0.7794,-0.7373,0.0,0.0,0.0,0.0,0.0,0.0,0.0,0.0,-0.8427,-0.9218,0.0,0.0,0.0,0.0,0.0,0.0,0.0,0.0,0.0,0.0,0.0,0.0,0.0,0.0,0.0,0.0,0.0,0.0,0.0,-1.6166,-1.5866,-1.5351,-1.5311,-1.5337,-1.5391,-1.5618,-1.5765,-1.5784,-1.5784,-1.5784,-1.5784,-1.5838,-1.6179,-1.67,-1.6767,-1.7074,-1.7582,-1.7582,-1.7582,-1.7595,-1.7862,-1.8223,-1.8517,-1.8811,-1.9092,-1.943,-1.943,-1.943,-1.943,-1.943,-1.9733,-2.0167,-0.5725,-0.5793,-0.5983,-0.6552,0.0,0.0,0.0,0.0,0.0,0.0,0.0,0.0,-0.9286,-0.9442,-0.9517,-0.9483,-0.9232,-0.8995,-0.8628,-0.835,0.0,0.0,0.0,0.0,-0.7018,0.0,0.0,0.0,0.0,0.0,0.0,0.0,-0.63,-0.63,-0.63,0.0,0.0,0.0,-0.6939,0.0,-0.7522,-0.7862,0.0,-0.8425,-0.8832,-0.9367,-0.9666,-0.9693,-0.9537,0.0,-0.892,-0.856,0.0,-0.7665,-0.7434,-0.6987,0.0,0.0,0.0,0.0,0.0,0.0,-0.8558,-0.9223,0.0,0.0,-1.115,-1.1543,0.0,0.0,0.0,0.0,0.0,0.0,0.0,0.0,0.0,0.0,0.0,0.0,0.0,0.0,0.0,-1.5182,-1.5129,-1.5062,-1.5062,-1.5169,-1.5378,-1.5431,-1.5565,-1.5771,-1.5784,-1.5784,-1.5784,-1.6086,-1.638,-1.6714,-1.7018,-1.7313,-1.7582,-1.7582,-1.7582,-1.7595,-1.7862,-1.8223,-1.8517,-1.8811,-1.9092,-1.943,-1.943,-1.943,-1.943,-1.943,-1.9733,-2.0167,-0.5779,-0.58,-0.5989,-0.6593,0.0,0.0,0.0,0.0,0.0,0.0,0.0,0.0,-0.9998,-1.0243,-1.0351,-1.0263,-1.0053,-0.9734,-0.9259,-0.8872,0.0,0.0,0.0,-0.7361,0.0,0.0,0.0,0.0,-0.645,0.0,0.0,0.0,-0.63,-0.6306,-0.6388,0.0,-0.6532,0.0,-0.7115,0.0,0.0,0.0,0.0,-0.8459,-0.8859,-0.9422,-0.9713,-0.9727,-0.9578,0.0,-0.9089,0.0,0.0,0.0,0.0,-0.7421,0.0,0.0,0.0,0.0,0.0,0.0,0.0,0.0,-1.0127,0.0,-1.1064,0.0,0.0,0.0,0.0,0.0,0.0,0.0,-1.1904,0.0,0.0,0.0,0.0,0.0,0.0,0.0,0.0,0.0,0.0,0.0,-1.4269,-1.4553,-1.4629,-1.5124,-1.5444,-1.5578,-1.5738,-1.5912,-1.6086,-1.6206,-1.65,-1.7018,-1.7139,-1.7353,-1.7582,-1.7582,-1.7582,-1.7595,-1.7716,-1.805,-1.8504,-1.8624,-1.8945,-1.943,-1.943,-1.943,-1.943,-1.943,-1.9733,-2.0167,-0.5854,-0.5867,-0.6023,0.0,0.0,0.0,0.0,0.0,0.0,0.0,0.0,-1.0365,-1.0704,-1.1009,-1.1165,-1.1097,-1.0914,-1.0582,-1.0066,-0.9578,-0.9089,-0.8594,-0.8241,-0.7848,-0.7348,0.0,0.0,0.0,0.0,0.0,0.0,0.0,0.0,-0.6306,0.0,-0.6538,-0.6559,0.0,-0.7251,-0.7468,-0.7875,-0.8241,-0.856,-0.8682,-0.9001,-0.9422,-0.9713,-0.9754,-0.9646,-0.9496,-0.93,0.0,-0.8716,0.0,-0.817,0.0,0.0,0.0,-0.7737,0.0,0.0,0.0,0.0,0.0,0.0,0.0,0.0,0.0,0.0,0.0,0.0,0.0,0.0,0.0,0.0,-1.141,0.0,0.0,0.0,0.0,0.0,0.0,0.0,0.0,0.0,-1.3093,-1.348,-1.3869,-1.4068,-1.4763,-1.5231,-1.5391,-1.5671,-1.5979,-1.6321,-1.6353,-1.6697,-1.7206,-1.7286,-1.7434,-1.7582,-1.7582,-1.7582,-1.7582,-1.7675,-1.8009,-1.8504,-1.8584,-1.8905,-1.943,-1.943,-1.943,-1.943,-1.943,-1.9733,-2.0167,-0.5952,-0.5986,0.0,0.0,0.0,0.0,0.0,0.0,0.0,-0.9727,-1.0324,-1.0867,-1.1314,-1.1626,-1.1864,-1.2006,-1.1755,-1.145,-1.12,-1.0561,-0.9971,-0.9374,-0.892,-0.8472,-0.7968,-0.7584,0.0,0.0,0.0,0.0,0.0,0.0,0.0,0.0,0.0,-0.6552,-0.6715,-0.697,-0.7267,-0.7617,-0.7867,-0.8251,-0.875,0.0,-0.9361,-0.9422,-0.9713,0.0,0.0,-0.9652,-0.9598,0.0,0.0,0.0,0.0,0.0,0.0,0.0,0.0,0.0,0.0,-0.8456,0.0,0.0,0.0,0.0,-1.0233,0.0,0.0,0.0,0.0,0.0,0.0,0.0,0.0,0.0,0.0,0.0,0.0,0.0,0.0,0.0,0.0,0.0,0.0,-1.2784,-1.2811,-1.3213,-1.4041,-1.4376,-1.4803,-1.5378,-1.5671,-1.5979,-1.6321,-1.6553,-1.6847,-1.7206,-1.7435,-1.7569,-1.7582,-1.7582,-1.7582,-1.7595,-1.7849,-1.821,-1.8517,-1.8798,-1.9092,-1.943,-1.943,-1.943,-1.943,-1.943,-1.9733,-2.0167,-0.602,-0.6112,-0.6274,-0.6573,-0.6668,-0.7034,0.0,-0.8696,-0.9367,-1.0161,-1.0792,-1.1409,-1.2054,-1.24,-1.2637,-1.2786,-1.2528,-1.2182,-1.1855,-1.1199,-1.0595,-1.0005,-0.9544,-0.9049,-0.8492,-0.8147,-0.7746,0.0,0.0,0.0,0.0,0.0,0.0,0.0,0.0,-0.6654,0.0,0.0,0.0,0.0,0.0,-0.8547,-0.8899,0.0,-0.9381,-0.9422,-0.9713,-0.9822,0.0,-0.9659,-0.9612,-0.9564,-0.9313,-0.9164,-0.9049,-0.8954,-0.8716,0.0,0.0,0.0,-0.8554,-0.8706,0.0,0.0,0.0,0.0,0.0,0.0,0.0,0.0,0.0,0.0,0.0,0.0,0.0,0.0,0.0,0.0,0.0,0.0,0.0,0.0,0.0,0.0,0.0,-1.1864,-1.2225,-1.2585,-1.2893,-1.3748,-1.4416,-1.4803,-1.5284,-1.5778,-1.6273,-1.6567,-1.686,-1.7206,-1.7448,-1.7582,-1.7582,-1.7582,-1.7582,-1.7595,-1.7862,-1.8223,-1.8517,-1.8811,-1.9092,-1.943,-1.943,-1.943,-1.943,-1.943,-1.9733,-2.0294,-0.6308,-0.6349,-0.6497,-0.6593,-0.6844,-0.7319,-0.8208,-0.894,-0.9693,-1.0541,-1.1274,-1.1993,-1.2739,-1.3091,-1.3336,-1.3478,-1.322,-1.2881,-1.2481,-1.1898,-1.1301,-1.0704,-1.0243,-0.97,-0.9042,-0.8689,-0.8241,-0.774,0.0,-0.7021,0.0,0.0,0.0,0.0,0.0,-0.6647,-0.6736,-0.7285,-0.755,0.0,0.0,-0.8662,0.0,0.0,-0.9381,-0.9422,0.0,-0.9822,-0.9808,-0.9713,-0.9686,-0.9659,-0.951,-0.9395,-0.9364,-0.9309,-0.9096,-0.8968,-0.8933,-0.8881,0.0,-0.8879,-0.9112,0.0,-0.9473,0.0,-1.0309,0.0,0.0,0.0,0.0,0.0,0.0,0.0,0.0,0.0,0.0,-1.0586,0.0,0.0,0.0,0.0,0.0,0.0,-1.1169,-1.1263,-1.1717,-1.2078,0.0,0.0,-1.4068,-1.4362,-1.503,-1.5631,-1.6112,-1.6406,-1.6754,-1.7206,-1.7393,-1.7527,-1.7582,-1.7582,-1.7649,-1.7769,-1.8076,-1.837,-1.8664,-1.8958,-1.9199,-1.943,-1.943,-1.943,-1.943,-1.9479,-1.9893,-2.0454,-0.6702,-0.6715,-0.6681,-0.6593,-0.7136,-0.7821,-0.8418,-0.9266,-1.0114,-1.0813,-1.1762,-1.2596,-1.3342,-1.3688,-1.3926,-1.4082,-1.3831,-1.3532,-1.3214,-1.2651,-1.2067,-1.1463,-1.1002,-1.0419,-0.968,-0.9211,-0.875,-0.834,0.0,0.0,0.0,0.0,0.0,0.0,-0.6457,0.0,-0.6729,-0.7183,-0.7475,-0.7685,-0.8255,-0.8662,-0.8912,-0.9266,-0.9381,-0.9422,-0.9713,-0.9822,-0.9822,-0.9822,-0.9822,-0.9795,-0.9659,-0.9618,-0.9591,-0.9449,-0.9401,-0.9361,-0.9268,-0.9237,-0.9216,-0.8913,0.0,0.0,0.0,0.0,-0.9737,0.0,0.0,0.0,0.0,0.0,0.0,0.0,0.0,0.0,0.0,0.0,0.0,0.0,0.0,0.0,0.0,-1.0586,-1.0707,-1.0955,-1.1236,0.0,0.0,0.0,-1.368,-1.4055,-1.4883,-1.5484,-1.5758,-1.6099,-1.6589,-1.7152,-1.7192,-1.734,-1.7555,-1.7569,-1.7756,-1.8009,-1.8357,-1.8651,-1.8945,-1.9239,-1.943,-1.943,-1.943,-1.9444,-1.9439,-1.972,-2.0187,-2.0722,-0.6742,-0.6878,-0.7045,-0.7278,-0.7651,-0.8076,-0.873,-0.9585,-1.0473,-1.1335,-1.2128,-1.2901,-1.3648,-1.4,-1.4238,-1.4387,-1.4231,-1.3953,-1.3539,-1.3159,-1.2678,-1.2088,-1.1626,-1.109,-1.0446,-0.9781,-0.9164,-0.8601,-0.7991,0.0,-0.7038,0.0,0.0,0.0,0.0,0.0,-0.6729,-0.7183,-0.7699,-0.8119,-0.8377,-0.8662,-0.8912,0.0,-0.9381,-0.9422,-0.9713,-0.9822,-0.9822,-0.9822,-0.9822,-0.9815,-0.9781,-0.9768,-0.9761,-0.972,-0.9632,-0.9544,-0.9503,-0.9439,-0.9332,-0.914,-0.9341,-0.9468,0.0,0.0,0.0,0.0,0.0,0.0,0.0,0.0,0.0,0.0,0.0,0.0,0.0,0.0,0.0,-1.0902,0.0,-1.0827,-1.0613,-1.0586,-1.0626,-1.0693,-1.0942,0.0,0.0,0.0,0.0,-1.3693,-1.4188,-1.4776,-1.5498,-1.5805,-1.6126,-1.6549,-1.6991,-1.7246,-1.7326,-1.7488,-1.7756,-1.8009,-1.8357,-1.8651,-1.8945,-1.9239,-1.943,-1.943,-1.943,-1.9626,-2.0013,-2.0094,-2.0361,-2.0722,-0.7122,-0.7278,-0.7529,-0.7841,-0.8241,-0.8682,-0.9157,-0.9937,-1.0819,-1.1782,-1.2501,-1.3207,-1.396,-1.4251,-1.4428,-1.4502,-1.438,-1.4163,-1.3844,-1.3478,-1.3064,-1.2603,-1.2088,-1.1531,-1.0928,-1.0249,-0.9605,-0.9001,-0.8397,0.0,-0.7333,0.0,0.0,0.0,0.0,-0.6736,0.0,-0.7278,-0.7814,-0.837,-0.8452,-0.8703,0.0,-0.9293,-0.9422,-0.951,-0.9741,-0.9822,-0.9822,-0.9822,-0.9822,-0.9822,-0.9822,-0.9822,-0.9822,-0.9822,-0.9768,-0.97,-0.97,-0.9591,-0.9462,-0.9374,-0.9422,-0.9439,-0.9266,-0.9545,-0.9923,0.0,-1.112,-1.194,0.0,0.0,0.0,0.0,0.0,0.0,0.0,0.0,0.0,0.0,-1.1182,-1.1116,-1.0955,-1.0747,-1.0586,-1.0586,-1.0868,0.0,0.0,0.0,0.0,-1.3387,-1.3868,-1.4442,-1.5204,-1.5498,-1.5858,-1.6335,-1.674,-1.7072,-1.7219,-1.7595,-1.7956,-1.8263,-1.8557,-1.8851,-1.9132,-1.9292,-1.943,-1.943,-1.9506,-1.992,-2.0428,-2.0428,-2.0615,-2.0895,-0.7658,-0.7787,-0.7997,-0.8303,-0.89,-0.9425,-0.9754,-1.0399,-1.1199,-1.2216,-1.2861,-1.3505,-1.4224,-1.4428,-1.4509,-1.4509,-1.4401,-1.4251,-1.4082,-1.3688,-1.3329,-1.303,-1.2461,-1.1877,-1.1364,-1.0683,-1.0066,-0.9442,0.0,0.0,0.0,0.0,0.0,0.0,0.0,0.0,0.0,-0.7468,-0.7963,-0.8459,-0.852,-0.8784,-0.9228,-0.9347,-0.9496,-0.9632,-0.9768,-0.9822,-0.9822,-0.9822,-0.9822,-0.9822,-0.9822,-0.9822,-0.9822,-0.9822,-0.9822,-0.9822,-0.9822,-0.9734,-0.9639,-0.9639,-0.9537,-0.9435,-0.9415,-0.9544,-0.9745,-1.0191,-1.1005,-1.1817,0.0,0.0,0.0,0.0,0.0,0.0,0.0,0.0,0.0,0.0,0.0,0.0,-1.1402,-1.0942,-1.0653,-1.0653,0.0,0.0,0.0,0.0,0.0,-1.3186,-1.3707,-1.4295,-1.4995,0.0,-1.5658,-1.6273,-1.6567,-1.686,-1.7219,-1.7769,-1.8155,-1.8504,-1.8798,-1.9092,-1.943,-1.943,-1.9444,-1.9452,-1.9786,-2.0227,-2.0681,-2.0722,-2.0895,-2.1109,-0.7984,-0.818,-0.8459,-0.8771,-0.9313,-0.9971,-1.0772,-1.1219,-1.1748,-1.2549,-1.318,-1.3743,-1.4245,-1.4428,-1.4509,-1.4509,-1.4489,-1.436,-1.4089,-1.3878,-1.3634,-1.3336,-1.2868,-1.2393,-1.1918,-1.1199,-1.0473,-0.9741,0.0,0.0,0.0,0.0,0.0,0.0,0.0,0.0,-0.7326,-0.7773,0.0,-0.8336,-0.871,-0.8974,-0.9241,-0.9462,-0.9585,-0.9632,-0.9768,-0.9822,-0.9822,-0.9822,-0.9822,-0.9822,-0.9822,-0.9822,-0.9822,-0.9822,-0.9822,-0.9822,-0.9822,-0.9802,-0.9781,-0.9781,-0.9768,-0.9713,-0.9598,-0.9728,-1.0069,-1.0536,-1.1231,-1.2024,-1.2882,0.0,0.0,0.0,0.0,0.0,0.0,0.0,0.0,0.0,0.0,-1.1957,-1.1442,-1.1116,-1.0915,0.0,0.0,0.0,0.0,0.0,0.0,0.0,-1.3307,0.0,0.0,0.0,-1.5504,-1.6273,-1.6567,-1.686,-1.7219,-1.7769,-1.8155,-1.8504,-1.8798,-1.9092,-1.943,-1.943,-1.9506,-1.9773,-2.0321,-2.0588,-2.0708,-2.0949,-2.1069,-2.1109,-0.8615,-0.8798,-0.9069,-0.939,-0.9883,-1.0561,0.0,-1.1898,-1.2406,-1.3003,-1.3403,-1.3804,-1.4251,-1.436,-1.4401,-1.4401,-1.4401,-1.434,-1.4197,-1.3973,-1.3743,-1.3532,-1.301,-1.2522,-1.2149,-1.1402,-1.0731,-1.0059,0.0,0.0,0.0,0.0,0.0,0.0,0.0,-0.7441,0.0,0.0,0.0,-0.8635,-0.8797,-0.9117,-0.9408,-0.9551,-0.9652,-0.9727,-0.9795,-0.9822,-0.9822,-0.9822,-0.9822,-0.9822,-0.9822,-0.9822,-0.9822,-0.9822,-0.9822,-0.9822,-0.9822,-0.9822,-0.9822,-0.9822,-0.9822,-0.9802,-0.9734,-0.978,-0.9972,-1.0288,-1.0993,-1.2001,-1.3321,-1.3513,0.0,0.0,0.0,0.0,0.0,0.0,-1.3227,0.0,0.0,0.0,0.0,0.0,0.0,0.0,0.0,0.0,0.0,0.0,0.0,0.0,0.0,0.0,0.0,0.0,0.0,-1.6321,-1.6777,-1.7139,-1.7447,-1.7996,-1.8437,-1.8731,-1.9025,-1.9239,-1.943,-1.9533,-1.9853,-2.0281,-2.0561,-2.0775,-2.0922,-2.1056,-2.1109,-2.1109,-0.9432,-0.9537,-0.9795,-1.0215,-1.0656,-1.1206,-1.1959,-1.2501,-1.2976,-1.3397,-1.3607,-1.3871,-1.4258,-1.4299,-1.4299,-1.4299,-1.4299,-1.4285,-1.4251,-1.3994,-1.3777,-1.3634,-1.3085,-1.2583,-1.2162,-1.1565,-1.0955,-1.0324,0.0,0.0,0.0,0.0,0.0,0.0,0.0,0.0,0.0,0.0,-0.8467,-0.8988,-0.8999,-0.9293,-0.9612,-0.9646,-0.9727,-0.9822,-0.9822,-0.9822,-0.9822,-0.9822,-0.9822,-0.9822,-0.9822,-0.9822,-0.9822,-0.9822,-0.9822,-0.9822,-0.9822,-0.9822,-0.9822,-0.9822,-0.9822,-0.9822,-0.9822,-0.9822,-0.9849,-1.0032,-1.0814,-1.196,-1.3361,-1.3545,0.0,0.0,0.0,0.0,0.0,0.0,-1.368,0.0,0.0,0.0,-1.2797,0.0,0.0,0.0,0.0,0.0,0.0,0.0,0.0,0.0,0.0,-1.3774,-1.4995,0.0,-1.5725,-1.6366,-1.7018,-1.7447,-1.7702,-1.8303,-1.8704,-1.8945,-1.9239,-1.9399,-1.9492,-1.984,-2.0254,-2.0681,-2.0748,-2.0909,-2.1109,-2.1109,-2.1109,-2.1109,-1.0175,-1.0399,0.0,0.0,0.0,-1.1979,-1.2739,-1.301,-1.3247,-1.3566,-1.3851,-1.4102,-1.4278,-1.4299,-1.4299,-1.4299,-1.4299,-1.4238,-1.4102,-1.3933,-1.3777,-1.3634,-1.3186,-1.2793,-1.2467,-1.1877,-1.1212,0.0,0.0,-0.9279,0.0,0.0,0.0,0.0,0.0,0.0,0.0,-0.8737,-0.896,-0.9214,-0.9435,-0.9571,-0.9625,-0.9754,-0.9808,-0.9822,-0.9822,-0.9822,-0.9822,-0.9822,-0.9822,-0.9822,-0.9822,-0.9822,-0.9822,-0.9822,-0.9822,-0.9822,-0.9822,-0.9822,-0.9822,-0.9822,-0.9822,-0.9822,-0.9822,-0.9822,-0.9876,-1.0226,-1.1129,-1.1968,-1.2385,-1.3278,-1.4066,0.0,0.0,0.0,0.0,0.0,-1.4335,-1.4041,0.0,0.0,-1.2811,-1.2221,0.0,0.0,-1.0875,0.0,0.0,0.0,0.0,-1.3173,0.0,-1.3774,-1.4995,-1.5257,-1.5818,-1.6673,-1.7261,-1.7702,-1.7969,-1.8611,-1.8905,-1.8945,-1.9239,-1.9519,-1.98,-2.0361,-2.0628,-2.0695,-2.0962,-2.1082,-2.1109,-2.1109,-2.1109,-2.1109,0.0,0.0,0.0,0.0,0.0,0.0,0.0,-1.3363,-1.3648,-1.3865,-1.4,-1.4129,-1.4285,-1.4299,-1.4299,-1.4299,-1.4299,-1.4238,-1.4082,-1.3926,-1.3777,-1.3634,-1.32,-1.2813,-1.2508,-1.2006,-1.1423,0.0,0.0,0.0,0.0,0.0,0.0,0.0,0.0,-0.8662,-0.8948,-0.9015,-0.9205,-0.9435,-0.9557,-0.9659,-0.9741,-0.9802,-0.9822,-0.9822,-0.9822,-0.9822,-0.9822,-0.9822,-0.9822,-0.9822,-0.9822,-0.9822,-0.9822,-0.9822,-0.9822,-0.9822,-0.9822,-0.9822,-0.9822,-0.9822,-0.9822,-0.9822,-0.9822,-0.9822,-0.9822,-0.9943,-1.0539,-1.1368,-1.2404,-1.3125,-1.3912,0.0,0.0,0.0,0.0,0.0,0.0,-1.4402,0.0,-1.316,0.0,0.0,0.0,0.0,0.0,0.0,0.0,0.0,0.0,-1.3173,0.0,-1.3948,-1.4995,-1.5651,-1.6273,-1.7032,-1.7582,-1.8116,-1.8528,-1.8811,-1.9118,-1.9466,-1.976,-2.0054,-2.0347,-2.0575,-2.0775,-2.0949,-2.1069,-2.1109,-2.1109,-2.1109,-2.1109,-2.1109,-1.1837,0.0,-1.2128,0.0,-1.2793,-1.3091,-1.339,-1.3709,-1.3966,-1.4122,-1.4136,-1.4183,-1.4285,-1.4299,-1.4299,-1.4299,-1.4299,-1.4217,-1.4014,-1.3899,-1.3756,-1.3566,-1.3173,0.0,-1.2576,-1.2081,-1.1558,-1.1009,-1.0561,0.0,0.0,0.0,0.0,0.0,-0.8906,-0.9049,-0.9344,-0.9344,-0.9435,-0.9673,-0.9673,-0.9734,-0.9822,-0.9822,-0.9822,-0.9822,-0.9822,-0.9822,-0.9822,-0.9822,-0.9822,-0.9822,-0.9822,-0.9822,-0.9822,-0.9822,-0.9822,-0.9822,-0.9822,-0.9822,-0.9822,-0.9822,-0.9822,-0.9822,-0.9822,-0.9822,-0.9822,-0.9822,-1.0282,-1.1082,-1.2316,-1.3116,-1.4134,-1.5576,0.0,0.0,0.0,-1.5765,0.0,-1.4723,-1.3948,-1.344,-1.3347,-1.2679,0.0,0.0,0.0,0.0,0.0,0.0,0.0,0.0,0.0,0.0,0.0,-1.5919,-1.6656,-1.734,-1.7889,-1.849,-1.9065,-1.9225,-1.9533,-1.9947,-2.0241,-2.0481,-2.0681,-2.0775,-2.0922,-2.1109,-2.1109,-2.1109,-2.1109,-2.1109,-2.1109,-2.1109,-1.2488,-1.2739,-1.299,-1.3139,-1.3417,-1.3715,-1.4014,-1.4061,-1.4122,-1.4278,-1.4299,-1.4299,-1.4299,-1.4299,-1.4299,-1.4299,-1.4299,-1.417,-1.3865,-1.3844,-1.3709,0.0,0.0,-1.2888,-1.2732,-1.2135,-1.1613,-1.1227,0.0,0.0,-0.9815,0.0,-0.9374,-0.9374,-0.9374,-0.9456,-0.9605,-0.9605,-0.9686,-0.9822,-0.9822,-0.9822,-0.9822,-0.9822,-0.9822,-0.9822,-0.9822,-0.9822,-0.9822,-0.9822,-0.9822,-0.9822,-0.9822,-0.9822,-0.9822,-0.9822,-0.9822,-0.9822,-0.9822,-0.9822,-0.9822,-0.9822,-0.9822,-0.9822,-0.9822,-0.9822,-0.9822,-0.9822,-1.0604,-1.1395,-1.1803,-1.3404,-1.4952,-1.5704,0.0,0.0,0.0,-1.6192,0.0,-1.5075,-1.4486,-1.3961,-1.3626,-1.3373,0.0,0.0,0.0,0.0,0.0,0.0,0.0,-1.3186,-1.3774,0.0,-1.5378,-1.5979,-1.6764,-1.7582,-1.8196,-1.8798,-1.9386,-1.996,-2.0167,-2.018,-2.0548,-2.0668,-2.0695,-2.0989,-2.1109,-2.1109,-2.1109,-2.1109,-2.1109,-2.1109,-2.1109,-2.1109,-1.3247,-1.3349,-1.3458,-1.36,-1.3797,-1.396,-1.4055,-1.4156,-1.4245,-1.4292,-1.4299,-1.4299,-1.4299,-1.4299,-1.4299,0.0,-1.4204,-1.4061,0.0,-1.3749,-1.3607,-1.341,-1.3119,-1.2888,-1.2732,-1.2244,-1.1816,-1.147,0.0,0.0,0.0,-0.9822,-0.9836,-0.9836,-0.9836,-0.9924,-1.0059,-0.9958,-0.9876,-0.9903,-0.9863,-0.9822,-0.9822,-0.9822,-0.9822,-0.9822,-0.9822,-0.9822,-0.9822,-0.9822,-0.9822,-0.9822,-0.9822,-0.9822,-0.9822,-0.9822,-0.9822,-0.9822,-0.9822,-0.9822,-0.9822,-0.9822,-0.9822,-0.9822,-0.9822,-0.9822,-0.9822,-0.9822,-1.0429,-1.1193,-1.1978,-1.3054,-1.4225,-1.549,-1.5994,0.0,-1.6377,0.0,-1.5655,-1.5057,-1.4486,-1.3975,-1.3626,-1.352,0.0,0.0,0.0,0.0,0.0,0.0,0.0,0.0,-1.4175,0.0,-1.5685,-1.6473,-1.7221,-1.7849,-1.8704,-1.9399,-1.9973,-2.0361,-2.0535,-2.0548,-2.0842,-2.0975,-2.0975,-2.1069,-2.1109,-2.1109,-2.1109,-2.1109,-2.1109,-2.1109,-2.1109,-2.1136,-1.3688,-1.3756,-1.3824,-1.3912,-1.4055,-1.4156,-1.4156,-1.4238,-1.4299,-1.4299,-1.4299,-1.4299,-1.4299,-1.4299,0.0,-1.4299,-1.4156,-1.4007,-1.3851,-1.3709,-1.3559,-1.341,-1.3119,-1.2915,-1.282,-1.2318,0.0,-1.1701,-1.1069,-1.0604,-1.0233,-1.0188,-1.0134,-1.0134,-1.0134,-1.0188,-1.0276,-1.0175,-1.0134,-1.012,-0.9971,-0.9849,-0.9897,-0.9842,-0.9822,-0.9822,-0.9822,-0.9822,-0.9829,-0.989,-0.9849,-0.9917,-0.9971,-0.9992,-0.9971,-0.9856,-0.9822,-0.9836,-0.989,-0.9849,-0.9924,-0.9978,-0.9992,-0.9978,-0.9917,-0.9863,-0.9822,-0.9822,-1.0422,-1.1209,-1.1933,-1.2867,-1.3962,-1.5152,-1.5678,-1.5968,-1.6151,0.0,-1.5835,0.0,0.0,0.0,0.0,-1.4242,-1.4295,0.0,0.0,0.0,0.0,0.0,0.0,-1.4402,-1.4803,0.0,-1.6313,-1.7032,-1.7729,-1.8557,-1.9439,-2.0054,-2.0414,-2.0708,-2.0842,-2.0855,-2.1029,-2.1109,-2.1109,-2.1109,-2.1109,-2.1109,-2.1109,-2.1109,-2.1109,-2.1109,-2.1176,-2.1296,-1.3871,-1.3987,-1.4089,0.0,-1.4204,0.0,-1.4299,-1.4299,-1.4299,-1.4299,-1.4299,-1.4299,-1.4299,-1.4299,-1.4299,-1.4285,0.0,0.0,0.0,-1.3695,-1.3553,-1.341,-1.3119,-1.2963,-1.2963,-1.2449,-1.1979,-1.1803,-1.1104,-1.0758,-1.0731,-1.0453,-1.0324,-1.031,-1.031,-1.031,-1.031,-1.0297,-1.0297,-1.0283,-1.0127,-1.0004,-0.999,-0.991,-0.9856,-0.9856,-0.9856,-0.9856,-0.9876,-0.9957,-1.0004,-1.0031,-1.0236,-1.0283,-1.0222,-0.9937,-0.9856,-0.9883,-0.9963,-1.0004,-1.01,-1.0243,-1.0283,-1.0243,-1.0038,-0.9883,-0.9836,-0.9836,-1.0558,-1.1329,-1.17,-1.2799,-1.3962,-1.4586,-1.5306,-1.581,-1.5859,-1.615,-1.6088,0.0,0.0,0.0,0.0,-1.5284,-1.5458,0.0,0.0,0.0,0.0,0.0,-1.4816,-1.5115,-1.5605,-1.6313,-1.7246,-1.7515,-1.8277,-1.9524,-2.0281,-2.0681,-2.0722,-2.0989,-2.1109,-2.1109,-2.1109,-2.1109,-2.1109,-2.1109,-2.1109,-2.1109,-2.1109,-2.1122,-2.1136,-2.1136,-2.1323,-2.1655,0.0,0.0,-1.4245,-1.4245,-1.4278,-1.4299,-1.4299,-1.4299,-1.4299,-1.4299,-1.4299,-1.4299,-1.4299,-1.4299,-1.4251,-1.4136,-1.3987,-1.3831,-1.3688,-1.3539,-1.3437,-1.3403,-1.3119,-1.2963,-1.2963,-1.2449,-1.1877,-1.1497,-1.1321,-1.1118,-1.0826,-1.0759,-1.0731,-1.0616,-1.0616,-1.0616,-1.0609,-1.0493,-1.0439,-1.0426,-1.0283,-1.0222,-1.0222,-1.0181,-1.0168,-1.0168,-1.0168,-1.0168,-1.0175,-1.0215,-1.0222,-1.0236,-1.027,-1.0283,-1.0263,-1.0195,-1.0168,-1.0181,-1.0215,-1.0222,-1.0236,-1.027,-1.0283,-1.027,-1.0236,-1.0107,-0.993,-0.993,-1.0264,-1.0664,-1.0974,-1.1636,-1.2422,-1.3288,-1.4085,-1.4809,-1.5439,-1.597,-1.6252,0.0,-1.6107,-1.5952,-1.5658,-1.5899,-1.6107,0.0,0.0,0.0,0.0,-1.6697,-1.6509,-1.6299,-1.642,-1.6914,-1.7796,-1.8343,-1.9199,-2.0361,-2.0575,-2.0788,-2.1002,-2.1082,-2.1109,-2.1109,-2.1109,-2.1109,-2.1109,-2.1109,-2.1109,-2.1109,-2.1109,-2.1256,-2.1443,-2.1443,-2.163,-2.1911,-1.4299,-1.4299,-1.4299,-1.4299,-1.4299,-1.4299,-1.4299,-1.4299,-1.4299,-1.4299,-1.4299,-1.4299,-1.4299,-1.4299,-1.4238,-1.4089,-1.3933,-1.3783,-1.3641,-1.3485,-1.3403,-1.3403,-1.3119,-1.2963,-1.2963,-1.244,-1.1979,-1.1592,-1.1457,-1.1307,-1.1151,-1.0941,-1.084,-1.0819,-1.0751,-1.0717,-1.0717,-1.0629,-1.0595,-1.0582,-1.0432,-1.0378,-1.0371,-1.0304,-1.0283,-1.0283,-1.0283,-1.0283,-1.029,-1.0351,-1.0378,-1.0392,-1.046,-1.048,-1.048,-1.048,-1.0385,-1.0297,-1.0358,-1.0378,-1.0392,-1.0466,-1.0426,-1.0378,-1.0378,-1.0263,-1.0134,-1.0004,-1.0232,-1.0454,-1.0739,-1.1224,-1.1906,-1.2831,-1.3709,-1.4458,-1.5262,-1.5902,0.0,-1.6477,-1.6473,-1.646,-1.6433,-1.67,-1.6927,-1.7074,-1.7355,0.0,-1.7756,-1.7809,-1.7622,-1.7315,-1.7448,-1.7876,-1.8624,-1.9359,-2.004,-2.0681,-2.0815,-2.0962,-2.1109,-2.1109,-2.1109,-2.1109,-2.1109,-2.1109,-2.1109,-2.1109,-2.1189,-2.1309,-2.1309,-2.1496,-2.175,-2.175,-2.1937,-2.2205,-1.4299,-1.4299,-1.4299,-1.4299,-1.4299,-1.4299,-1.4299,-1.4299,-1.4299,-1.4299,-1.4299,-1.4299,-1.4299,-1.4299,-1.4238,-1.4089,-1.3933,-1.3783,-1.3641,-1.3485,-1.3403,-1.3403,-1.3119,-1.2963,-1.2963,-1.2494,-1.2115,-1.183,-1.1558,-1.1416,-1.1389,-1.1131,-1.0921,-1.0873,-1.0812,-1.0744,-1.0717,-1.0717,-1.0717,-1.0711,-1.0575,-1.0527,-1.0514,-1.0392,-1.0344,-1.0344,-1.0344,-1.0344,-1.0365,-1.0487,-1.0527,-1.0548,-1.0677,-1.0717,-1.0717,-1.0717,-1.0541,-1.0371,-1.0493,-1.0527,-1.0555,-1.069,-1.0622,-1.0527,-1.0527,-1.0419,-1.0276,-1.0078,-1.0267,-1.05,-1.073,-1.1205,-1.1882,-1.2783,-1.3674,-1.4567,-1.5374,0.0,-1.6575,-1.6877,-1.6914,-1.7021,-1.738,-1.7582,-1.7822,-1.8035,-1.8343,-1.8531,-1.8624,-1.8624,-1.8544,-1.8357,-1.8531,-1.8931,-1.9618,-2.0307,-2.0695,-2.0748,-2.0989,-2.1109,-2.1109,-2.1109,-2.1109,-2.1109,-2.1109,-2.1136,-2.1176,-2.1176,-2.1349,-2.1681,-2.1681,-2.179,-2.2044,-2.2044,-2.2231,-2.2485,-1.4299,-1.4299,-1.4299,-1.4299,-1.4299,-1.4299,-1.4299,-1.4299,-1.4299,-1.4299,-1.4299,-1.4299,-1.4299,-1.4299,-1.4238,-1.4089,-1.3933,-1.3783,-1.3641,-1.3485,-1.3403,-1.3403,-1.3119,-1.2963,-1.2963,-1.2393,-1.2013,-1.183,-1.1667,-1.1518,-1.1389,-1.1341,-1.1192,-1.088,-1.0853,-1.0839,-1.0717,-1.0717,-1.0717,-1.0717,-1.0697,-1.0683,-1.0683,-1.0663,-1.0649,-1.0649,-1.0649,-1.0649,-1.0656,-1.0677,-1.0683,-1.069,-1.0711,-1.0717,-1.0717,-1.0717,-1.069,-1.0656,-1.0677,-1.0683,-1.069,-1.0717,-1.0704,-1.0683,-1.0683,-1.0568,-1.0453,-1.0426,-1.0222,-1.0163,-1.0514,-1.1086,-1.1737,-1.2458,-1.3796,-1.5029,-1.5701,0.0,-1.7239,-1.7756,-1.7782,-1.7956,-1.825,-1.833,-1.837,-1.8424,-1.8464,-1.8704,-1.9199,-1.9239,-1.9439,-1.988,-1.9466,-1.9626,-2.0468,-2.0601,-2.0802,-2.1042,-2.1082,-2.1109,-2.1109,-2.1109,-2.1109,-2.1109,-2.1109,-2.1256,-2.1547,-2.1547,-2.1722,-2.1924,-2.1924,-2.2098,-2.2352,-2.2352,-2.2539,-2.2792,-1.4299,-1.4299,-1.4299,-1.4299,-1.4299,-1.4299,-1.4299,-1.4299,-1.4299,-1.4299,-1.4299,-1.4299,-1.4299,-1.4299,-1.4272,-1.4204,-1.4055,-1.3899,-1.3749,-1.3526,-1.3403,-1.3403,-1.3119,-1.2881,-1.2718,-1.2366,-1.2108,-1.1952,-1.1809,-1.166,-1.1511,-1.143,-1.1321,-1.1185,-1.1104,-1.1023,-1.0955,-1.0873,-1.0846,-1.0766,-1.0751,-1.0717,-1.0717,-1.0717,-1.0717,-1.0717,-1.0717,-1.0717,-1.0717,-1.0717,-1.0717,-1.0717,-1.0717,-1.0717,-1.0717,-1.0717,-1.0717,-1.0717,-1.0717,-1.0717,-1.0717,-1.0717,-1.0717,-1.0717,-1.0717,-1.0663,-1.0595,-1.0507,-1.0513,-1.0615,-1.1014,-1.1748,-1.2631,-1.3539,-1.4802,0.0,0.0,-1.7303,-1.7858,-1.8209,-1.829,-1.8397,-1.8691,-1.8865,-1.9025,-1.9185,-1.9345,-1.9546,-1.9813,-1.9826,-2.0027,-2.0454,-2.0214,-2.0347,-2.0909,-2.0909,-2.0975,-2.1109,-2.1109,-2.1189,-2.1349,-2.1349,-2.143,-2.1577,-2.1577,-2.1657,-2.179,-2.179,-2.1951,-2.2218,-2.2218,-2.2405,-2.2659,-2.2659,-2.2739,-2.2886,-1.4299,-1.4299,-1.4299,-1.4299,-1.4299,-1.4299,-1.4299,-1.4299,-1.4299,-1.4299,-1.4299,-1.4299,-1.4299,-1.4299,-1.4299,-1.4299,-1.4156,-1.4007,-1.3851,-1.36,-1.3437,-1.3403,-1.3119,-1.2813,-1.2508,-1.2366,-1.223,-1.2115,-1.1925,-1.1775,-1.1667,-1.1511,-1.1423,-1.1389,-1.1267,-1.1199,-1.1158,-1.1043,-1.0995,-1.0989,-1.0873,-1.0826,-1.0826,-1.0826,-1.0806,-1.0772,-1.0772,-1.0772,-1.0772,-1.0772,-1.0799,-1.0826,-1.0826,-1.0826,-1.0826,-1.0826,-1.0826,-1.0806,-1.0738,-1.0717,-1.0717,-1.0717,-1.0717,-1.0717,-1.0717,-1.0717,-1.0683,-1.0568,-1.0774,-1.1127,-1.1509,-1.2454,-1.3555,-1.4583,0.0,0.0,0.0,-1.7854,-1.8226,-1.8528,-1.8651,-1.8811,-1.9105,-1.9399,-1.9653,-1.988,-2.0107,-2.0207,-2.0334,-2.0334,-2.0468,-2.0762,-2.0775,-2.0882,-2.1109,-2.1109,-2.1149,-2.1216,-2.1216,-2.1363,-2.1722,-2.1722,-2.1842,-2.1991,-2.1991,-2.2031,-2.2084,-2.2084,-2.2258,-2.2525,-2.2525,-2.2699,-2.2966,-2.2966,-2.302,-2.3113,-1.4299,-1.4299,-1.4299,-1.4299,-1.4299,-1.4299,-1.4299,-1.4299,-1.4299,-1.4299,-1.4299,-1.4299,-1.4299,-1.4299,-1.4299,-1.4299,-1.4156,-1.4007,-1.3851,-1.3695,-1.3546,-1.341,-1.3119,-1.2813,-1.2508,-1.2366,-1.2284,-1.2271,-1.1979,-1.1823,-1.1809,-1.1667,-1.1525,-1.1389,-1.1382,-1.1294,-1.1234,-1.1151,-1.1145,-1.1145,-1.12,-1.1131,-1.1131,-1.1131,-1.105,-1.086,-1.086,-1.086,-1.086,-1.086,-1.1023,-1.1131,-1.1131,-1.1131,-1.1131,-1.1131,-1.1131,-1.107,-1.0792,-1.0717,-1.0717,-1.0717,-1.0717,-1.0717,-1.0717,-1.0717,-1.0717,-1.0704,-1.085,-1.1192,-1.1816,-1.2795,-1.377,-1.4818,0.0,0.0,-1.7515,-1.7867,-1.8236,-1.8795,-1.9132,-1.9412,-1.9706,-2.0,-2.0174,-2.0201,-2.0167,-2.0361,-2.0628,-2.0641,-2.0775,-2.1069,-2.1082,-2.1082,-2.1109,-2.1109,-2.1243,-2.1588,-2.1588,-2.1735,-2.1951,-2.1951,-2.1964,-2.1991,-2.1991,-2.2138,-2.2392,-2.2392,-2.2565,-2.2832,-2.2832,-2.302,-2.3287,-2.3287,-2.3474,-2.3701,-1.4299,-1.4299,-1.4299,-1.4299,-1.4299,-1.4299,-1.4299,-1.4299,-1.4299,-1.4299,-1.4299,-1.4299,-1.4299,-1.4299,-1.4299,-1.4299,-1.4245,-1.415,-1.3994,-1.3844,-1.3607,-1.3275,-1.3071,-1.2861,-1.2651,-1.2494,-1.2379,-1.2291,-1.2176,-1.202,-1.183,-1.1775,-1.1674,-1.1531,-1.1531,-1.1497,-1.1443,-1.1348,-1.1307,-1.1294,-1.1199,-1.1234,-1.1234,-1.1234,-1.1131,-1.1084,-1.1084,-1.1084,-1.1084,-1.1084,-1.1118,-1.1234,-1.1234,-1.1234,-1.1234,-1.1234,-1.1234,-1.1138,-1.1023,-1.0995,-1.0975,-1.0887,-1.0793,-1.0766,-1.0744,-1.0717,-1.0717,-1.0717,-1.1132,-1.1584,-1.1934,-1.3144,-1.4423,-1.5268,0.0,-1.7601,-1.8454,-1.8854,-1.9201,-1.966,-1.984,-1.9947,-2.0054,-2.0334,-2.0508,-2.0508,-2.0681,-2.0828,-2.0935,-2.0949,-2.0989,-2.1109,-2.1109,-2.1109,-2.1109,-2.1296,-2.1443,-2.1614,-2.1802,-2.1977,-2.2258,-2.2258,-2.2352,-2.2525,-2.2525,-2.2592,-2.2712,-2.2899,-2.3046,-2.3166,-2.3354,-2.35,-2.3607,-2.3607,-2.3674,-2.3794,-1.4299,-1.4299,-1.4299,-1.4299,-1.4299,-1.4299,-1.4299,-1.4299,-1.4299,-1.4299,-1.4299,-1.4299,-1.4299,-1.4299,-1.4299,-1.4299,-1.4299,-1.4238,-1.4082,-1.3885,-1.3593,-1.3193,-1.3078,-1.2935,-1.2732,-1.2623,-1.2501,-1.2359,-1.2311,-1.2182,-1.1972,-1.1877,-1.1782,-1.1687,-1.164,-1.1619,-1.1613,-1.1504,-1.1463,-1.1457,-1.1348,-1.1307,-1.1307,-1.1307,-1.1274,-1.1233,-1.1233,-1.1233,-1.1233,-1.1233,-1.1267,-1.1314,-1.1355,-1.1402,-1.1436,-1.1389,-1.1369,-1.1362,-1.1321,-1.1307,-1.126,-1.1063,-1.1016,-1.0989,-1.088,-1.086,-1.0846,-1.0799,-1.1259,-1.174,-1.1896,-1.3113,-1.4308,-1.5177,-1.6396,-1.7649,-1.8753,-1.9254,-1.9742,-2.0167,-2.0307,-2.0374,-2.0374,-2.0641,-2.0815,-2.0815,-2.1002,-2.1109,-2.1109,-2.1203,-2.1256,-2.1256,-2.1336,-2.1376,-2.1376,-2.1561,-2.1708,-2.183,-2.2031,-2.2271,-2.2565,-2.2565,-2.2726,-2.3006,-2.3006,-2.306,-2.3236,-2.338,-2.3474,-2.3487,-2.3688,-2.3821,-2.3915,-2.3915,-2.3968,-2.4075,-1.4299,-1.4299,-1.4299,-1.4299,-1.4299,-1.4299,-1.4299,-1.4299,-1.4299,-1.4299,-1.4299,-1.4299,-1.4299,-1.4299,-1.4299,-1.4299,-1.4299,-1.4238,-1.4082,-1.3797,-1.3492,-1.3193,-1.3173,-1.3037,-1.2739,-1.2732,-1.2657,-1.2501,-1.2359,-1.2291,-1.2284,-1.1979,-1.1837,-1.183,-1.1687,-1.1619,-1.1619,-1.1619,-1.1619,-1.1619,-1.1619,-1.1619,-1.1619,-1.1619,-1.1531,-1.1396,-1.1396,-1.1396,-1.1396,-1.1396,-1.1497,-1.1647,-1.1789,-1.1938,-1.2033,-1.1877,-1.183,-1.1803,-1.166,-1.1619,-1.1552,-1.124,-1.1234,-1.1234,-1.1234,-1.1234,-1.1124,-1.0914,-1.1219,-1.1581,-1.1747,-1.249,-1.3337,-1.4354,-1.5438,-1.6651,-1.8018,-1.8827,-1.9498,-2.0119,-2.0494,-2.0681,-2.0681,-2.0935,-2.1109,-2.1109,-2.1122,-2.1122,-2.1122,-2.1403,-2.1614,-2.1614,-2.183,-2.1991,-2.1991,-2.1775,-2.1844,-2.2418,-2.2418,-2.2579,-2.2928,-2.2928,-2.3033,-2.3327,-2.3327,-2.35,-2.3768,-2.3768,-2.3768,-2.3768,-2.3781,-2.3955,-2.4209,-2.4209,-2.4382,-2.4636,-1.4299,-1.4299,-1.4299,-1.4299,-1.4299,-1.4299,-1.4299,-1.4299,-1.4299,-1.4299,-1.4299,-1.4299,-1.4299,-1.4299,-1.4299,-1.4299,-1.4299,-1.4238,-1.4082,-1.3885,-1.3695,-1.3498,-1.3288,-1.3132,-1.3044,-1.2834,-1.2705,-1.2664,-1.2515,-1.2386,-1.2291,-1.2196,-1.2094,-1.1993,-1.1952,-1.1932,-1.1932,-1.1932,-1.1932,-1.1932,-1.1932,-1.1932,-1.1932,-1.1932,-1.1904,-1.1864,-1.1864,-1.1864,-1.1864,-1.1864,-1.1891,-1.1938,-1.1979,-1.2026,-1.2054,-1.2006,-1.1993,-1.1986,-1.1938,-1.1932,-1.183,-1.1423,-1.1321,-1.1294,-1.1185,-1.1234,-1.1151,-1.1104,-1.1372,-1.1632,-1.1718,-1.2456,-1.3394,-1.4376,-1.5644,-1.6977,-1.8578,-1.9411,-2.0103,-2.0717,-2.0922,-2.0975,-2.0975,-2.1056,-2.1189,-2.1403,-2.1617,-2.1724,-2.1724,-2.1804,-2.1857,-2.1857,-2.1937,-2.2084,-2.2285,-2.2205,-2.2245,-2.2418,-2.2632,-2.2886,-2.3193,-2.3193,-2.3354,-2.3634,-2.3634,-2.3688,-2.3781,-2.3995,-2.4075,-2.4102,-2.4302,-2.4436,-2.4502,-2.4502,-2.4556,-2.4663,-1.4299,-1.4299,-1.4299,-1.4299,-1.4299,-1.4299,-1.4299,-1.4299,-1.4299,-1.4299,-1.4299,-1.4299,-1.4299,-1.4299,-1.4299,-1.4299,-1.4299,-1.4238,-1.4082,-1.3987,-1.3865,-1.3722,-1.3485,-1.3295,-1.3173,-1.2996,-1.2874,-1.282,-1.2664,-1.2549,-1.2461,-1.2345,-1.2244,-1.2149,-1.2088,-1.2135,-1.2135,-1.2135,-1.2135,-1.2135,-1.2135,-1.2135,-1.2135,-1.2135,-1.2135,-1.2135,-1.2135,-1.2135,-1.2135,-1.2135,-1.2176,-1.2149,-1.2149,-1.2189,-1.2223,-1.2169,-1.2149,-1.2142,-1.2081,-1.2135,-1.1999,-1.1728,-1.1613,-1.1525,-1.1375,-1.1341,-1.1328,-1.1267,-1.1462,-1.158,-1.1517,-1.2316,-1.3265,-1.4203,-1.5833,-1.7467,-1.8995,-2.0036,-2.0825,-2.1392,-2.1456,-2.1456,-2.1456,-2.1456,-2.1537,-2.171,-2.1884,-2.1991,-2.1991,-2.2098,-2.2151,-2.2151,-2.2271,-2.2418,-2.2592,-2.2712,-2.2712,-2.2592,-2.2899,-2.314,-2.3327,-2.3447,-2.3661,-2.3941,-2.3941,-2.4008,-2.4128,-2.4302,-2.4369,-2.4396,-2.4569,-2.4636,-2.4649,-2.477,-2.481,-2.485,-1.4299,-1.4299,-1.4299,-1.4299,-1.4299,-1.4299,-1.4299,-1.4299,-1.4299,-1.4299,-1.4299,-1.4299,-1.4299,-1.4299,-1.4299,-1.4299,-1.4299,-1.4238,-1.4102,-1.4082,-1.4007,-1.3865,-1.3722,-1.3512,-1.322,-1.3186,-1.3112,-1.2983,-1.2827,-1.2752,-1.2745,-1.2474,-1.2352,-1.2345,-1.2203,-1.2135,-1.2121,-1.2121,-1.2115,-1.2176,-1.2176,-1.2176,-1.2176,-1.2176,-1.2176,-1.2176,-1.2176,-1.2108,-1.2121,-1.2135,-1.2237,-1.2352,-1.2352,-1.2427,-1.2494,-1.2366,-1.2318,-1.2277,-1.2142,-1.2176,-1.2101,-1.2088,-1.1979,-1.1837,-1.1694,-1.166,-1.1613,-1.1463,-1.143,-1.1382,-1.1233,-1.2091,-1.3109,-1.3856,-1.6079,-1.8105,-1.9189,-2.0589,-2.1595,-2.1991,-2.1991,-2.1991,-2.1991,-2.2004,-2.2031,-2.2031,-2.2044,-2.2058,-2.2058,-2.2338,-2.2498,-2.2498,-2.2792,-2.3008,-2.3008,-2.322,-2.3207,-2.2913,-2.322,-2.338,-2.342,-2.3688,-2.3968,-2.4249,-2.4249,-2.4396,-2.4636,-2.4636,-2.4636,-2.4562,-2.4663,-2.4676,-2.4716,-2.501,-2.5117,-2.5157,-1.4299,-1.4299,-1.4299,-1.4299,-1.4299,-1.4299,-1.4299,-1.4299,-1.4299,-1.4299,-1.4299,-1.4299,-1.4299,-1.4299,-1.4299,-1.4299,-1.4299,-1.4285,-1.4251,-1.4136,-1.4055,-1.4021,-1.3878,-1.3709,-1.3532,-1.3295,-1.3159,-1.3125,-1.2983,-1.2908,-1.2908,-1.2847,-1.2813,-1.2813,-1.2779,-1.2698,-1.2583,-1.2583,-1.2515,-1.2406,-1.2406,-1.2406,-1.2406,-1.2406,-1.2406,-1.2406,-1.2406,-1.2481,-1.2603,-1.2725,-1.2786,-1.2813,-1.2813,-1.2752,-1.2671,-1.2644,-1.2549,-1.2447,-1.2413,-1.2406,-1.2379,-1.2271,-1.2216,-1.2149,-1.1999,-1.1965,-1.1925,-1.1769,-1.1735,-1.1694,-1.1545,-1.2333,-1.3354,-1.4388,-1.6313,-1.8161,-1.959,-2.08,-2.1595,-2.1991,-2.1991,-2.1991,-2.1991,-2.2191,-2.2325,-2.2325,-2.2539,-2.2672,-2.2672,-2.2966,-2.3126,-2.3126,-2.342,-2.3581,-2.3581,-2.3647,-2.3527,-2.3233,-2.3527,-2.3794,-2.4022,-2.4075,-2.4262,-2.4543,-2.4543,-2.4583,-2.4636,-2.4636,-2.4636,-2.4663,-2.489,-2.4983,-2.5024,-2.5304,-2.5424,-2.5464,-1.4299,-1.4299,-1.4299,-1.4299,-1.4299,-1.4299,-1.4299,-1.4299,-1.4299,-1.4299,-1.4299,-1.4299,-1.4299,-1.4299,-1.4299,-1.4299,-1.4299,-1.4299,-1.4299,-1.4224,-1.4183,-1.4183,-1.4034,-1.3912,-1.3844,-1.3614,-1.3424,-1.3281,-1.3132,-1.3064,-1.3057,-1.299,-1.2963,-1.2963,-1.2963,-1.2915,-1.284,-1.284,-1.2793,-1.2718,-1.2718,-1.2718,-1.2718,-1.2718,-1.2718,-1.2718,-1.2718,-1.2773,-1.2854,-1.2935,-1.2963,-1.2963,-1.2963,-1.2908,-1.284,-1.284,-1.2786,-1.2718,-1.2718,-1.2718,-1.2684,-1.2535,-1.2501,-1.242,-1.2128,-1.2135,-1.204,-1.1959,-1.1938,-1.1918,-1.1843,-1.2699,-1.3786,-1.4934,-1.6806,-1.8622,-2.0012,-2.1009,-2.18,-2.2069,-2.2136,-2.2203,-2.2405,-2.2672,-2.2846,-2.2846,-2.3126,-2.337,-2.337,-2.3447,-2.3541,-2.3541,-2.3688,-2.3768,-2.3768,-2.3915,-2.3901,-2.3741,-2.3901,-2.4062,-2.4209,-2.4342,-2.4569,-2.485,-2.485,-2.493,-2.505,-2.505,-2.505,-2.5077,-2.5224,-2.5291,-2.5317,-2.5611,-2.5734,-2.5634,-1.4299,-1.4299,-1.4299,-1.4299,-1.4299,-1.4299,-1.4299,-1.4299,-1.4299,-1.4299,-1.4299,-1.4299,-1.4299,-1.4299,-1.4299,-1.4299,-1.4299,-1.4299,-1.4299,-1.4299,-1.4299,-1.4299,-1.4177,-1.4095,-1.4075,-1.3946,-1.3749,-1.3478,-1.3322,-1.3247,-1.3247,-1.3105,-1.3037,-1.3037,-1.3037,-1.3024,-1.2996,-1.2996,-1.2983,-1.2963,-1.2963,-1.2963,-1.2963,-1.2963,-1.2963,-1.2963,-1.2963,-1.2976,-1.3003,-1.303,-1.3037,-1.3037,-1.3037,-1.3017,-1.2996,-1.2996,-1.2983,-1.2963,-1.2963,-1.2963,-1.2929,-1.28,-1.2766,-1.2671,-1.2298,-1.2176,-1.2128,-1.2108,-1.2101,-1.2094,-1.2067,-1.3022,-1.4202,-1.5311,-1.7204,-1.8964,-2.02,-2.1072,-2.1761,-2.2177,-2.2397,-2.2592,-2.302,-2.3247,-2.3407,-2.3407,-2.3634,-2.3768,-2.3768,-2.3821,-2.3848,-2.3848,-2.3888,-2.3915,-2.3915,-2.4155,-2.4302,-2.4356,-2.4356,-2.4356,-2.4356,-2.4596,-2.4877,-2.5157,-2.5157,-2.5291,-2.5518,-2.5518,-2.5518,-2.5518,-2.5571,-2.5508,-2.5471,-2.5685,-2.5701,-2.5581,-1.4299,-1.4299,-1.4299,-1.4299,-1.4299,-1.4299,-1.4299,-1.4299,-1.4299,-1.4299,-1.4299,-1.4299,-1.4299,-1.4299,-1.4299,-1.4299,-1.4299,-1.4299,-1.4299,-1.4299,-1.4299,-1.4299,-1.4278,-1.4204,-1.4075,-1.4048,-1.3953,-1.3783,-1.3641,-1.3566,-1.3566,-1.341,-1.3342,-1.3342,-1.3342,-1.3268,-1.3146,-1.3146,-1.3071,-1.2963,-1.2963,-1.2963,-1.2963,-1.2963,-1.2963,-1.2963,-1.2963,-1.3037,-1.3166,-1.3295,-1.3342,-1.3342,-1.3342,-1.3247,-1.3146,-1.3146,-1.3057,-1.2963,-1.2963,-1.2963,-1.2956,-1.2935,-1.2929,-1.2915,-1.2854,-1.263,-1.2406,-1.2284,-1.2257,-1.2216,-1.2088,-1.3022,-1.4054,-1.4933,-1.6745,-1.8415,-1.9598,-2.0431,-2.1198,-2.1926,-2.264,-2.3222,-2.3647,-2.3688,-2.3714,-2.3714,-2.3754,-2.3768,-2.3768,-2.4008,-2.4142,-2.4142,-2.4382,-2.4516,-2.4516,-2.4556,-2.4703,-2.4957,-2.4957,-2.4957,-2.4957,-2.4997,-2.5184,-2.5451,-2.5451,-2.5478,-2.5518,-2.5518,-2.5518,-2.5545,-2.5798,-2.5659,-2.5296,-2.486,-2.4669,-2.4547,-1.4299,-1.4299,-1.4299,-1.4299,-1.4299,-1.4299,-1.4299,-1.4299,-1.4299,-1.4299,-1.4299,-1.4299,-1.4299,-1.4299,-1.4299,-1.4299,-1.4299,-1.4299,-1.4299,-1.4299,-1.4299,-1.4299,-1.4299,-1.4272,-1.4197,-1.4197,-1.4163,-1.4095,-1.3865,-1.3749,-1.3743,-1.3682,-1.3607,-1.3532,-1.3532,-1.3444,-1.3302,-1.3302,-1.3261,-1.3207,-1.3207,-1.3207,-1.3207,-1.3207,-1.3207,-1.322,-1.3302,-1.3424,-1.3553,-1.3627,-1.3593,-1.3532,-1.3532,-1.3424,-1.3302,-1.3302,-1.3254,-1.3207,-1.3207,-1.3207,-1.3186,-1.3098,-1.3078,-1.3057,-1.3056,-1.2854,-1.2718,-1.2569,-1.2467,-1.2386,-1.2318,-1.2913,-1.3741,-1.48,-1.5984,-1.7176,-1.8285,-1.9062,-1.9921,-2.1162,-2.2241,-2.3041,-2.3411,-2.3771,-2.4008,-2.4008,-2.4168,-2.4249,-2.4249,-2.4382,-2.4449,-2.4449,-2.473,-2.489,-2.489,-2.505,-2.5197,-2.5317,-2.5317,-2.5317,-2.5317,-2.5317,-2.5478,-2.5758,-2.5758,-2.5852,-2.5999,-2.5765,-2.5687,-2.5622,-2.5269,-2.4756,-2.4135,-2.386,-2.3336,-2.2614]}]]